GFSSGP_con_3kmhel_000.txt.gz
Helicity
-10 9 24 75 94 67 6 20 52 75 27 -4 27 35 34 33 19 17 13 52 117 168 141 142 151 177 166 115 83 52 31 25 30 10 10 46 45 39 40 44 41 43 51 41 55 66 83 84 78
-13 -8 48 78 83 42 21 27 35 22 8 20 34 53 41 20 -2 8 46 77 176 177 155 138 171 194 159 110 75 52 33 24 24 9 18 44 46 49 46 49 41 53 59 57 69 67 78 68 75
-14 -14 66 105 80 16 28 53 122 38 10 17 39 56 36 17 -4 -1 21 125 158 141 142 140 186 181 149 106 72 43 27 29 29 14 20 43 56 58 55 55 59 59 64 64 68 66 64 76 77
4 13 68 87 45 34 14 68 77 107 10 13 50 58 25 6 -19 -10 96 144 153 116 126 162 190 174 151 111 81 50 39 33 19 15 30 59 67 69 50 49 56 58 64 57 55 68 72 63 59
12 12 85 79 38 48 31 70 93 62 5 28 15 41 15 17 16 63 107 139 144 102 116 146 178 186 162 129 94 70 44 47 50 35 40 45 74 65 59 42 52 60 59 59 55 57 68 63 58
33 11 79 47 41 50 44 68 70 -2 -8 -13 65 59 -26 20 46 21 74 108 119 119 110 138 162 194 185 160 121 96 73 61 68 49 54 45 66 70 72 46 43 52 56 58 56 55 57 62 56
32 40 44 38 46 43 95 211 44 -55 -5 -4 3 49 18 23 5 30 51 94 113 150 161 157 154 186 195 180 155 124 85 62 44 47 51 39 53 69 62 46 48 51 52 48 46 48 52 57 61
45 40 44 29 48 108 151 248 111 51 14 27 12 2 -8 -14 46 47 48 82 115 151 174 167 164 178 179 179 191 159 109 73 77 65 66 48 52 66 62 51 44 54 55 46 41 45 49 58 63
65 65 58 50 58 109 125 221 110 66 72 53 41 31 9 94 129 93 70 52 114 128 157 157 155 149 150 138 150 149 125 99 73 43 93 63 58 54 61 67 50 59 64 56 47 43 49 59 73
83 55 22 39 69 82 127 136 255 89 101 58 45 61 95 178 134 120 114 70 115 139 121 148 144 133 124 107 104 109 102 87 61 73 86 84 67 59 63 49 50 48 65 67 57 43 42 60 89
70 52 36 83 82 91 70 100 105 85 30 7 -11 42 96 133 117 120 92 94 93 142 161 148 152 142 136 98 111 96 77 68 57 64 83 80 70 58 49 52 60 86 79 101 77 73 72 86 91
73 39 42 71 103 101 45 50 40 49 3 12 42 36 148 111 95 110 102 83 113 125 107 166 169 182 150 140 138 121 96 71 64 75 87 86 63 50 48 76 92 132 128 121 99 91 70 71 82
66 46 1 54 84 57 60 5 27 3 34 35 12 46 106 85 89 103 102 102 101 127 127 130 215 208 194 186 184 163 126 96 84 87 86 96 75 66 81 99 130 154 165 155 123 108 95 92 84
62 43 11 11 38 15 32 20 18 -1 45 57 27 28 57 67 71 97 97 87 107 114 126 135 169 227 244 247 236 198 180 140 127 101 90 103 103 91 100 131 159 164 181 167 161 150 146 136 126
54 44 -2 7 38 36 35 35 38 142 90 41 46 40 28 21 80 68 102 84 121 122 131 153 182 211 249 252 260 248 205 177 159 133 121 125 140 143 139 166 187 170 167 157 170 163 161 164 150
82 65 47 60 25 15 54 59 101 128 100 39 30 111 93 76 100 115 112 63 72 104 131 156 203 247 248 245 248 251 221 209 190 190 173 156 169 190 178 185 180 183 199 210 235 242 219 227 229
105 56 51 88 17 55 70 55 44 111 125 140 128 100 139 176 214 175 144 108 107 84 86 132 196 263 265 249 259 269 239 222 215 209 208 205 209 219 234 240 241 254 256 247 242 224 263 207 228
79 87 64 68 39 63 96 18 82 69 62 112 153 174 190 192 161 134 132 118 107 103 103 103 107 173 184 205 249 241 226 202 225 217 221 224 230 218 237 228 235 281 264 234 254 231 254 253 214
75 87 88 122 48 78 67 80 42 52 121 158 177 174 175 147 76 83 90 96 93 113 123 120 130 114 241 271 231 211 216 223 220 217 190 201 214 207 222 219 223 284 273 244 251 260 229 232 282
69 54 72 91 34 34 55 50 46 89 81 100 109 111 100 95 127 141 136 138 144 117 107 97 107 117 64 160 206 210 177 174 185 170 140 134 150 178 188 205 214 243 267 245 245 275 250 253 277
90 59 58 46 62 41 43 61 86 131 138 123 119 92 92 106 118 133 138 135 138 163 134 106 75 81 77 46 96 138 154 131 109 89 78 76 90 114 143 162 207 221 283 256 249 281 296 236 203
64 39 68 66 47 53 43 57 99 124 97 98 74 91 105 110 103 96 111 131 126 123 103 77 58 65 83 107 117 132 120 104 97 76 72 64 57 69 89 119 151 177 228 257 251 250 281 244 242
60 74 86 78 46 59 70 77 50 148 86 99 54 86 100 114 103 100 96 94 98 94 85 82 94 132 130 141 147 155 174 152 131 143 163 173 169 161 153 151 143 156 189 207 203 206 220 242 252
84 137 157 117 77 81 62 98 40 158 123 125 74 86 110 116 103 95 98 104 94 88 92 89 95 135 184 217 244 250 248 227 213 198 185 169 162 154 172 182 167 154 149 159 167 188 197 229 178
167 178 158 141 143 82 98 136 41 63 90 176 151 117 142 131 100 106 94 77 73 82 76 74 107 156 186 202 218 189 165 155 154 145 125 122 117 116 145 138 149 148 158 160 162 159 146 142 140
122 126 160 123 124 116 140 106 66 36 63 226 203 168 150 135 118 88 77 69 76 79 101 124 136 167 173 167 147 132 127 102 98 92 78 85 91 93 99 113 119 135 148 155 148 142 148 148 151
120 108 60 131 138 146 113 83 49 77 203 227 243 186 126 103 77 82 81 105 113 149 135 107 100 119 142 140 136 139 115 109 91 81 70 77 84 95 100 92 94 106 115 127 142 141 154 157 146
100 85 127 136 120 109 121 88 60 68 151 222 203 127 93 79 114 108 93 115 172 176 159 157 123 98 105 120 112 99 91 92 87 74 79 79 80 80 73 68 68 77 90 102 125 133 139 151 156
119 116 119 104 90 81 96 63 57 44 119 160 83 70 94 127 110 100 152 242 256 221 189 151 113 115 131 119 103 95 79 59 45 49 53 61 61 61 50 44 45 47 40 48 72 98 117 152 160
59 49 85 84 63 71 49 47 52 33 60 85 68 92 108 122 132 199 255 276 267 230 195 163 141 135 119 102 94 83 76 82 89 99 108 113 109 99 98 87 72 60 61 61 62 77 98 89 101

GFSSGP_con_3kmhel_003.txt.gz
Helicity
2 -2 25 83 93 79 35 52 63 75 75 13 -8 16 19 22 21 16 -10 40 41 128 116 119 118 112 115 104 85 55 34 21 12 5 18 30 24 15 18 21 34 28 36 21 20 31 54 32 68
-1 -3 44 71 85 62 53 81 86 73 7 16 17 23 29 3 13 -5 12 75 76 141 112 100 92 137 143 143 95 63 30 24 13 17 20 33 25 9 20 3 21 34 40 32 30 35 66 37 48
-10 -2 45 83 63 33 49 91 139 138 79 18 26 24 20 11 6 -19 -6 107 109 125 104 81 96 146 144 126 100 75 43 35 15 26 28 41 43 32 27 21 29 45 50 43 37 58 53 35 45
12 13 43 73 50 48 37 84 63 73 77 22 27 21 11 12 -5 -8 62 113 124 100 85 73 109 145 132 123 97 66 44 34 35 7 33 38 38 49 37 19 29 44 53 51 46 48 46 40 47
18 12 71 70 49 55 63 99 87 71 70 30 45 29 17 11 2 43 95 115 123 84 72 67 108 138 143 130 110 79 55 33 29 8 38 50 42 39 75 38 31 47 47 50 47 45 40 40 34
45 19 75 48 55 74 108 68 122 20 13 -2 28 28 10 25 37 49 79 87 90 115 85 71 102 135 156 145 120 89 73 47 29 13 39 41 35 50 77 57 42 41 42 41 43 40 39 44 44
31 42 31 46 57 78 93 138 171 117 -1 -8 35 19 -2 -12 -2 54 62 71 80 91 115 87 87 112 141 148 140 112 100 80 56 21 26 26 28 48 52 53 43 41 40 39 37 36 42 44 43
54 44 27 32 69 79 104 163 148 193 60 27 38 20 6 -16 48 69 86 70 84 82 104 112 108 114 112 117 123 123 116 102 70 5 50 46 26 49 41 61 47 36 45 37 26 25 27 27 28
74 68 35 53 44 66 92 140 133 167 132 76 43 2 8 27 122 118 110 75 82 77 87 104 114 106 106 96 84 103 115 93 63 50 72 64 49 42 40 47 38 26 31 34 28 24 19 23 27
119 67 19 34 38 63 102 108 162 115 172 102 56 33 55 99 125 137 102 85 90 87 101 103 122 110 102 77 67 75 67 67 63 53 60 85 65 50 42 35 20 17 21 26 31 32 27 35 70
106 65 53 54 17 40 47 63 39 85 73 107 39 36 42 103 103 98 65 86 101 100 125 127 134 129 128 99 87 76 70 57 39 20 31 60 63 52 51 44 39 49 44 67 66 71 78 79 86
105 56 47 54 20 20 43 17 -10 35 60 68 41 35 61 88 92 109 81 83 119 158 133 145 165 163 156 137 122 106 96 79 54 49 39 56 55 39 39 48 43 63 75 79 89 94 77 70 71
94 51 41 36 26 -8 28 -16 -6 -35 52 56 45 10 20 77 75 81 88 86 80 97 112 140 172 182 176 186 146 132 111 110 99 86 74 76 64 44 21 5 14 25 58 95 109 112 111 109 99
63 52 47 33 22 2 12 5 -26 -23 39 27 19 48 46 57 60 50 69 79 82 101 116 141 173 214 214 214 201 171 142 115 123 113 98 96 107 92 69 67 80 92 112 115 131 130 130 124 120
69 51 34 4 42 24 43 2 -24 65 64 17 29 53 81 64 56 39 52 60 84 98 104 132 160 210 237 231 235 213 180 146 140 134 131 140 152 157 143 149 150 167 199 175 181 188 185 167 153
89 71 29 12 41 20 89 63 45 77 51 126 84 107 110 109 102 105 95 82 73 41 53 74 134 186 218 229 239 222 217 188 165 175 176 160 165 185 180 159 165 193 230 237 228 203 188 181 178
114 22 35 80 9 40 63 87 102 72 85 134 120 142 128 110 135 127 106 93 67 49 31 17 67 118 154 198 229 212 204 205 196 203 201 189 189 198 202 204 187 219 220 248 258 220 240 182 184
89 59 70 72 51 41 56 85 85 40 37 78 110 119 134 153 158 142 127 97 70 49 36 38 29 53 109 157 173 170 147 132 146 157 172 168 169 174 194 189 198 225 224 213 252 240 234 240 193
65 63 94 69 65 -2 30 44 46 14 -3 117 115 128 131 150 136 131 124 128 120 125 104 92 92 68 55 122 142 127 134 126 113 117 122 120 114 113 143 160 173 195 217 207 212 252 221 225 246
85 66 63 62 57 -1 9 15 35 28 62 91 118 116 103 110 135 136 133 135 136 119 116 104 87 74 31 6 0 20 17 35 34 33 39 60 68 73 93 126 138 148 177 178 189 225 218 251 236
65 49 47 42 77 12 13 2 71 85 103 97 98 105 113 106 104 121 125 127 114 124 108 96 84 78 61 23 21 45 64 91 115 110 116 116 111 113 108 115 120 120 150 148 145 195 233 213 205
74 55 47 54 48 24 28 10 28 83 109 79 104 98 94 85 86 95 109 118 117 98 69 63 83 100 109 109 119 137 125 117 101 80 88 138 139 138 143 133 124 110 104 123 142 149 169 195 199
31 30 46 49 52 31 52 45 -2 98 85 74 78 70 77 72 70 89 90 84 74 67 67 79 104 124 112 140 138 145 162 151 141 154 163 161 149 127 120 124 116 116 111 122 124 135 138 144 148
59 123 141 99 59 16 60 104 34 99 105 121 92 61 71 70 79 76 74 68 79 95 110 99 102 130 144 159 176 166 165 155 153 150 134 116 103 95 111 119 117 110 122 138 143 157 166 165 162
140 172 147 106 109 31 53 93 44 28 74 149 144 82 70 80 63 55 70 89 115 115 95 97 118 141 130 135 133 124 115 109 97 80 65 68 65 64 79 67 74 77 90 100 105 125 149 168 182
159 124 132 70 65 33 123 72 49 51 35 82 183 128 103 72 66 83 88 114 112 108 119 122 103 112 110 91 94 98 100 76 74 80 73 81 84 81 84 86 81 87 95 103 106 107 126 130 156
199 152 88 100 95 83 91 70 54 57 80 126 196 160 83 65 93 98 111 140 130 151 140 114 104 96 98 94 85 93 89 91 81 78 69 68 62 70 78 71 65 64 64 71 81 87 99 121 136
138 135 151 158 98 76 111 74 65 72 54 85 161 111 48 101 126 120 154 160 177 169 153 134 99 84 78 87 92 92 96 78 59 46 64 70 71 69 62 65 68 66 57 59 66 64 74 97 113
223 169 192 114 103 85 90 63 41 42 37 62 92 27 81 122 114 154 199 235 214 186 154 127 113 104 109 113 98 90 81 72 52 48 57 81 83 87 86 87 80 77 79 76 65 80 78 97 90
131 99 135 124 84 88 47 24 44 36 60 82 34 109 118 102 132 199 264 242 223 193 174 141 119 118 119 104 90 73 53 64 87 88 99 96 90 91 83 74 67 67 65 70 76 89 88 89 70

GFSSGP_con_3kmhel_006.txt.gz
Helicity
-9 -27 -1 70 87 81 49 55 67 84 87 35 20 25 23 14 3 11 -2 43 3 68 93 65 100 91 103 62 76 70 46 20 -1 -14 20 6 37 13 18 1 16 -0 5 -4 5 23 21 18 21
-17 -20 15 62 77 72 59 67 59 108 68 63 17 18 19 8 5 6 3 53 46 83 91 58 77 95 76 96 82 77 55 15 -13 -33 -1 25 23 11 6 -8 4 3 9 11 4 -2 19 20 8
-11 -5 25 77 70 47 59 78 113 154 115 35 35 27 23 14 8 -0 -15 98 81 91 83 55 49 39 79 96 82 71 47 23 -26 -27 -7 24 19 53 18 17 12 5 22 16 -0 16 27 29 26
17 17 24 76 70 55 47 106 64 112 89 25 44 32 18 17 10 -17 22 90 97 84 74 53 38 76 101 92 76 65 39 12 -13 -36 -4 25 34 43 24 28 9 22 19 18 5 11 25 27 32
18 17 40 73 67 72 80 95 82 80 51 79 76 35 23 12 3 2 42 76 90 71 64 40 36 95 91 96 84 70 56 26 -2 -24 -38 12 29 31 44 43 31 33 21 17 8 11 9 21 20
51 27 42 41 88 78 94 64 97 82 42 55 46 44 11 14 6 6 40 59 72 80 65 42 37 93 98 87 88 74 53 53 10 -15 -14 10 17 23 70 61 39 30 25 17 11 5 6 9 15
53 50 20 23 86 106 76 95 118 137 94 60 19 -5 -3 12 11 27 41 53 72 68 72 47 29 55 109 96 84 69 59 51 48 12 -18 -3 1 32 51 49 29 17 19 2 19 13 11 8 8
70 58 33 17 72 105 78 100 77 110 96 113 31 17 7 8 32 58 63 68 78 71 70 59 47 41 72 80 82 75 55 57 51 34 -14 9 13 12 29 11 37 13 -3 -12 -1 8 3 10 10
91 82 45 47 38 58 75 69 48 78 82 161 71 34 24 23 88 83 83 85 88 65 75 73 73 62 74 79 67 52 51 52 45 21 6 33 44 7 14 17 16 7 -5 -2 -7 3 9 18 29
111 66 15 36 36 38 94 41 68 36 95 151 142 65 47 29 91 77 84 79 91 77 81 87 89 82 80 83 81 62 52 40 28 27 28 42 52 37 27 17 3 -6 -5 4 6 3 17 43 72
89 59 51 55 33 -2 59 75 -18 9 33 89 106 64 12 12 65 59 64 81 81 79 91 99 106 96 106 101 90 81 69 63 45 30 30 36 46 37 34 32 29 31 24 41 42 52 71 75 85
84 57 55 51 37 12 37 45 29 -19 27 79 76 34 11 17 40 86 67 72 74 75 77 97 115 125 122 119 112 92 90 79 69 48 45 62 62 53 47 47 36 37 48 47 60 81 82 85 87
94 70 48 44 45 -0 -7 45 47 -63 27 54 34 16 16 5 38 79 64 51 59 73 85 115 151 159 158 160 137 116 97 96 91 77 67 86 87 88 85 75 71 71 76 94 93 97 104 119 114
36 53 57 30 25 -0 -4 39 -51 6 36 27 -8 -27 22 24 28 51 57 44 49 53 69 87 123 163 180 175 183 162 134 102 99 92 95 100 116 113 109 96 94 106 136 139 141 147 140 147 152
93 55 43 15 3 16 -20 -20 48 137 106 37 14 -43 67 92 96 82 73 60 54 32 26 62 85 140 157 163 180 175 166 133 124 120 114 119 124 123 119 127 135 148 167 155 163 165 176 167 176
107 77 16 -15 49 39 11 104 181 84 67 61 63 48 113 145 128 121 103 83 72 57 60 38 70 99 113 134 167 170 163 147 139 139 131 125 131 146 151 161 167 170 181 184 181 164 162 173 187
99 40 26 82 49 27 21 8 54 66 88 88 64 82 106 158 167 160 116 84 69 62 61 62 29 31 61 83 107 120 114 113 118 121 124 121 124 134 147 163 142 143 156 172 177 157 193 145 142
105 76 60 70 78 29 15 55 122 72 74 55 39 84 113 146 147 132 113 90 74 71 54 53 59 62 44 62 71 60 42 38 53 55 55 62 86 93 120 134 122 116 122 122 144 151 135 168 153
80 89 72 100 70 7 38 27 99 65 17 26 60 97 130 155 125 131 143 126 105 103 98 110 114 96 36 36 33 19 -0 9 18 25 28 40 49 62 72 81 74 83 98 93 101 136 141 126 156
105 91 74 64 72 -30 19 19 66 31 8 28 85 111 110 108 147 147 138 138 131 114 123 131 116 90 39 2 2 17 36 67 81 103 130 137 129 131 118 97 88 83 77 81 95 116 111 120 122
73 45 49 54 30 -29 -27 -42 41 55 79 84 123 126 103 96 93 95 121 123 125 138 116 93 83 85 77 47 22 54 89 137 160 165 155 147 118 117 108 95 80 76 67 61 69 72 67 84 106
51 22 47 81 33 -15 -1 -34 29 44 79 108 124 103 81 72 63 85 93 118 101 72 61 72 80 70 69 60 76 102 85 83 62 56 58 85 91 91 97 94 93 85 80 97 94 97 96 111 114
30 13 14 52 18 -15 -9 17 -22 49 76 75 93 86 47 60 57 76 98 87 69 63 61 56 69 89 80 103 84 68 78 46 50 75 90 95 91 82 80 88 81 87 84 96 101 116 126 114 136
77 68 89 93 52 -7 -1 69 24 39 104 125 102 78 46 64 70 92 92 80 82 74 80 66 81 92 107 112 109 97 103 90 90 93 76 64 49 42 52 61 53 48 60 73 75 82 91 108 123
182 126 89 89 102 47 39 51 70 24 38 88 128 78 51 57 68 77 86 93 87 87 77 77 84 94 76 90 105 99 82 80 80 73 68 65 49 31 43 39 41 35 43 48 49 55 66 76 99
111 140 137 103 70 29 59 36 24 41 36 26 105 128 86 64 59 75 87 85 78 94 104 104 99 102 91 82 79 76 84 61 64 66 50 39 34 30 54 63 59 55 53 53 59 61 69 77 104
109 103 97 111 90 33 36 50 48 56 61 72 145 181 91 72 72 92 99 88 99 134 135 108 96 90 83 69 63 73 70 69 55 39 22 38 51 63 80 70 62 58 58 61 59 45 52 70 84
95 127 150 157 77 52 54 48 48 64 67 60 119 137 116 99 99 114 112 121 155 157 135 135 113 96 83 84 82 73 67 56 52 53 65 68 81 92 84 78 72 68 64 53 57 46 60 66 73
243 223 207 145 132 85 70 59 17 36 44 46 57 114 120 101 98 114 141 179 188 178 172 151 134 121 113 98 90 94 90 68 50 55 70 105 100 77 60 62 59 59 53 50 50 50 42 68 66
176 155 182 153 141 124 60 34 11 5 15 113 120 128 92 80 108 162 180 225 221 206 198 176 152 135 117 127 136 91 62 61 70 71 87 70 68 76 73 73 64 57 45 34 25 23 42 32 47

GFSSGP_con_3kmhel_009.txt.gz
Helicity
-7 -10 -13 34 84 78 69 53 86 103 105 41 70 33 30 11 -0 11 -1 26 -6 34 55 51 57 68 52 65 54 43 34 17 1 -15 2 -4 15 7 13 -1 20 -0 5 9 11 8 -4 8 -5
-14 -11 11 30 72 83 61 74 98 102 101 104 42 39 28 21 9 -2 -8 35 1 51 61 50 73 65 62 54 50 42 42 25 -6 -31 -17 -14 19 32 7 -0 11 13 7 15 6 -8 10 27 2
-15 -2 12 48 68 65 75 90 94 113 122 31 34 29 30 19 10 -1 -7 56 30 44 52 45 38 33 18 61 67 61 48 29 -12 -44 -54 -39 10 40 33 39 40 15 17 5 2 -4 13 11 3
17 19 19 52 83 85 80 106 77 99 73 9 39 57 27 9 12 4 10 49 37 35 32 34 6 -19 27 49 70 52 36 12 -25 -47 -56 -44 -4 30 35 30 30 25 20 13 -2 3 2 7 4
27 21 38 52 67 82 97 93 81 58 73 89 55 60 38 18 23 15 22 21 33 32 24 21 7 -32 49 41 38 36 23 22 -10 -32 -41 -35 -12 14 26 42 33 27 31 13 4 4 4 5 -0
71 40 52 38 61 73 92 71 83 51 62 97 78 69 58 22 15 24 23 9 24 45 29 22 10 -2 48 42 33 25 14 8 12 -4 -35 -28 -24 -3 6 74 46 27 18 8 4 10 13 7 6
75 64 24 35 59 76 88 83 85 107 115 85 68 42 53 37 24 36 34 25 39 24 35 27 17 15 35 59 42 26 11 5 6 -13 -16 -49 -8 -5 29 44 27 21 17 6 13 7 14 15 10
88 80 24 31 53 82 81 96 49 53 91 120 48 57 55 45 31 42 52 37 36 25 29 32 28 16 13 32 53 49 23 7 8 -2 -35 -37 -17 -16 -16 16 26 9 10 10 3 3 6 11 14
105 106 53 50 49 39 66 97 31 9 50 91 83 51 58 62 31 64 66 62 43 19 21 36 38 29 32 38 34 40 34 21 17 -1 -21 -28 -3 21 12 24 20 14 12 9 -0 5 10 17 34
134 89 37 38 47 33 80 83 55 9 25 79 114 88 70 42 21 18 49 59 63 28 26 45 46 44 51 53 47 37 29 30 28 20 6 9 17 28 31 30 29 26 26 28 19 14 15 29 56
118 77 71 57 36 33 47 101 30 5 -31 58 106 116 105 36 27 32 51 65 55 39 39 60 56 54 67 71 62 58 51 51 48 32 25 16 25 34 37 41 38 37 33 38 34 39 50 45 57
117 71 57 41 44 32 27 40 72 39 28 68 63 55 55 55 53 45 28 45 48 45 43 59 67 84 77 77 79 72 70 60 56 48 35 38 37 37 36 45 37 42 43 41 41 50 43 42 41
104 79 47 45 50 24 4 35 64 25 108 62 53 29 11 -4 21 28 26 46 39 36 37 53 72 86 82 94 87 87 82 70 54 47 48 55 57 55 50 54 54 54 55 58 57 58 57 54 53
53 38 45 51 44 11 -4 24 -44 80 97 37 49 5 6 -32 41 62 67 61 52 47 31 21 54 75 83 81 84 82 86 76 69 59 58 59 65 66 67 63 64 67 73 71 72 72 74 73 70
105 57 63 50 41 11 -16 -19 17 104 25 37 47 53 17 57 129 113 91 87 85 79 60 43 44 74 77 68 67 65 67 72 80 82 67 66 73 77 81 93 96 97 94 85 83 81 82 80 81
109 73 52 26 40 43 -9 16 84 35 16 75 126 92 50 121 161 136 117 105 91 77 90 77 54 64 65 54 67 58 55 50 58 62 67 73 80 90 96 100 96 88 79 74 66 59 55 61 73
136 72 65 78 51 69 53 -22 31 36 79 102 119 68 80 129 149 138 123 103 95 81 88 97 83 56 55 57 75 67 63 61 64 58 58 55 58 60 61 60 61 61 56 54 53 55 61 69 74
139 84 71 82 112 86 58 58 113 53 31 61 64 82 110 120 132 135 129 115 112 104 105 89 90 77 49 54 60 55 66 71 65 59 57 59 57 61 62 65 59 55 46 45 50 51 60 67 74
105 84 53 95 104 59 54 -1 120 75 53 78 59 74 103 131 112 113 137 146 135 160 145 140 121 77 33 41 63 100 119 114 135 134 151 146 133 131 125 105 104 92 76 74 70 55 53 55 39
119 97 113 110 91 40 36 1 59 34 17 39 52 69 96 135 142 158 160 156 154 124 122 137 125 96 68 40 22 37 70 118 124 142 165 160 155 144 118 110 98 98 81 88 79 69 42 44 55
109 111 98 111 92 15 -29 -32 29 40 64 67 78 108 127 137 126 122 162 165 128 140 132 112 107 96 72 25 27 58 83 118 142 154 132 131 114 106 97 84 68 65 57 51 48 51 53 40 50
68 50 28 77 92 42 -4 -20 29 39 27 56 114 129 160 129 112 104 121 119 105 88 80 94 105 100 98 95 127 157 133 128 95 86 77 82 89 82 82 72 67 65 57 79 78 89 92 104 121
68 43 67 83 78 -2 16 25 41 70 71 66 79 79 94 104 91 91 87 72 70 74 83 77 93 102 104 121 103 85 85 54 57 69 86 86 74 67 71 54 44 39 30 46 59 73 78 66 77
78 124 126 72 47 37 26 47 81 33 6 77 88 59 76 91 97 82 74 65 86 88 90 78 95 94 100 111 102 94 86 81 84 94 86 65 37 11 19 15 15 25 43 57 55 56 58 72 84
151 121 150 136 106 44 31 49 53 41 9 24 75 59 72 80 95 81 70 74 91 98 82 91 118 128 109 114 109 96 90 95 90 76 65 64 37 15 33 50 65 67 70 67 64 68 71 83 84
170 158 145 112 71 36 36 38 32 34 38 20 67 114 99 92 89 74 72 86 102 95 104 132 140 129 126 117 116 106 100 71 69 70 48 35 35 23 65 71 73 82 86 85 73 54 33 32 25
132 142 134 87 65 64 47 43 27 26 41 75 94 153 106 98 97 82 86 103 110 117 134 163 172 152 131 115 107 107 88 81 53 51 49 40 39 61 99 99 94 84 69 52 38 32 35 44 52
98 158 151 166 85 86 57 45 48 49 57 68 73 103 100 125 104 104 109 125 137 164 184 212 190 169 135 126 111 102 101 82 55 57 74 83 102 118 101 86 72 52 48 48 48 43 44 56 61
194 155 147 138 136 87 74 47 47 114 77 26 36 70 97 98 101 119 136 148 176 226 233 216 197 174 161 149 136 136 100 71 63 79 89 105 109 89 76 65 58 60 57 55 48 43 41 65 58
170 162 109 168 139 117 92 77 12 -13 6 16 59 78 91 106 120 141 165 198 229 265 239 216 218 192 168 151 143 116 93 88 102 91 105 110 91 76 64 67 68 65 55 50 52 61 82 104 121

GFSSGP_con_3kmhel_012.txt.gz
Helicity
16 -4 -14 -9 59 52 42 68 103 100 92 68 71 41 37 25 18 47 8 22 10 30 44 51 43 53 33 61 70 49 25 14 2 -14 -4 -2 -15 -3 1 10 24 25 32 39 64 62 73 24 36
27 -7 -6 12 54 43 49 70 78 100 97 87 59 37 21 38 17 14 -4 23 6 32 39 42 54 37 52 54 46 30 27 20 3 -21 -9 -4 2 32 26 11 29 31 47 44 43 38 49 63 65
20 8 2 31 51 78 96 88 101 115 94 51 47 37 48 52 27 16 17 28 7 28 30 48 53 34 19 24 35 52 38 30 -1 -14 -20 1 -11 23 21 47 49 42 41 35 42 42 30 40 46
39 14 14 32 63 67 83 98 94 104 65 44 67 42 33 39 31 28 20 19 5 23 17 58 2 -15 -17 14 55 57 41 16 5 -26 -35 -17 -8 13 28 44 32 41 40 39 44 43 39 27 27
46 40 46 37 53 63 75 64 106 93 90 93 87 74 58 45 33 24 21 18 5 16 16 29 -15 -40 -50 49 43 22 14 0 -4 -19 -26 -18 -5 0 25 41 48 44 44 49 41 33 38 34 29
74 71 55 55 57 57 68 58 76 64 64 88 105 94 62 33 27 28 28 27 8 21 15 14 12 -32 23 28 26 12 6 -3 -12 -21 -32 -8 17 -3 -4 45 64 36 39 41 40 28 30 29 30
102 72 67 59 63 62 63 60 81 110 69 66 96 75 81 99 58 29 32 38 26 29 19 18 22 23 21 11 32 21 13 -7 -17 -18 -28 -39 -2 13 42 38 28 25 32 40 36 23 24 29 31
114 101 50 37 76 73 49 65 74 73 106 105 52 66 83 98 67 34 37 34 37 32 27 23 18 23 27 37 39 27 24 12 -4 -7 -13 -34 -14 5 12 25 33 33 27 37 24 21 11 10 19
119 104 58 35 58 67 45 72 74 34 49 73 59 67 95 71 47 27 32 35 33 33 37 28 27 34 28 23 52 46 23 13 9 7 5 -13 -8 1 10 32 29 31 26 22 18 9 4 17 24
124 98 39 48 47 54 44 77 96 57 47 85 53 37 68 81 65 56 31 29 39 46 41 35 41 45 42 47 33 34 26 19 15 12 4 10 4 7 25 30 41 29 28 22 18 15 14 24 25
120 59 50 35 33 55 56 55 51 59 24 53 86 97 107 112 78 57 47 21 37 42 47 48 56 67 55 59 50 46 45 42 32 16 14 15 18 20 27 32 30 29 42 25 27 29 28 26 32
118 64 69 44 44 38 42 42 49 51 42 75 94 79 90 75 79 65 50 34 31 30 38 51 68 80 65 58 60 51 58 56 44 38 30 35 39 37 30 38 31 34 36 38 42 48 42 40 38
84 59 43 42 41 37 50 32 39 15 128 89 85 66 30 62 64 48 45 32 44 43 42 48 52 57 56 50 49 55 45 55 45 49 48 51 59 59 49 48 57 56 54 60 61 59 60 61 62
56 56 36 44 40 42 36 49 -19 37 93 56 43 42 33 31 49 48 68 72 64 62 50 48 35 42 55 50 52 58 47 40 53 63 69 70 74 87 90 81 71 67 68 73 66 61 61 62 60
55 46 20 56 38 35 30 21 8 74 42 68 60 42 54 60 64 88 115 118 105 78 82 71 59 57 63 72 73 69 66 50 63 77 79 82 83 86 77 74 72 71 72 65 68 67 66 57 56
73 56 49 43 18 41 25 25 34 35 25 74 90 103 91 75 95 120 146 136 101 95 104 93 79 69 83 104 118 101 87 75 89 90 80 80 77 73 66 62 61 75 72 69 60 63 59 62 70
97 65 39 74 17 48 18 34 50 27 61 63 72 111 91 88 113 157 158 125 107 105 108 114 104 90 92 99 109 126 125 117 118 106 98 96 87 78 69 79 80 74 68 64 58 54 62 68 70
106 102 66 55 50 49 27 25 58 58 54 43 66 65 70 81 105 125 127 111 104 117 133 126 101 91 88 91 111 136 129 140 152 155 154 157 144 134 108 102 102 87 82 86 79 75 66 57 55
83 51 29 49 80 106 83 59 63 96 50 36 43 63 69 93 107 122 126 124 138 170 181 142 119 92 65 75 101 110 130 141 153 155 166 161 149 146 133 113 108 93 83 76 65 57 50 42 44
103 81 35 61 78 75 104 39 75 93 43 46 52 66 80 102 137 165 166 170 187 187 171 149 130 113 82 66 93 104 126 157 155 149 154 147 137 124 103 97 80 73 59 64 60 56 47 53 64
108 73 64 91 82 65 56 41 43 43 55 87 76 82 94 108 132 152 177 187 176 172 147 131 111 94 76 59 49 61 89 112 119 119 104 110 105 97 81 70 58 57 50 51 47 54 57 64 71
85 127 79 82 111 79 93 63 65 64 45 37 64 101 150 165 157 158 168 178 166 141 109 105 95 81 75 66 80 104 105 111 106 99 88 77 86 85 78 64 54 46 37 51 53 74 82 88 93
87 57 63 94 116 53 45 45 87 92 58 36 76 102 151 162 156 149 157 149 124 98 96 88 90 101 98 114 123 118 114 87 75 70 82 84 76 73 70 37 10 24 44 61 60 64 60 51 66
45 86 112 92 90 51 49 49 106 108 83 47 68 102 109 116 118 132 133 105 102 93 98 90 98 108 119 133 136 119 96 87 81 85 78 68 50 30 38 28 31 78 87 78 68 69 71 76 83
82 106 152 106 102 81 71 52 44 44 40 -8 32 42 65 83 90 99 98 101 103 109 105 101 111 131 129 139 126 105 99 96 91 83 78 63 45 42 62 83 102 103 94 85 76 80 78 68 68
144 89 194 135 118 59 76 77 77 72 75 26 24 64 94 88 71 79 99 106 110 116 113 107 123 151 155 142 129 118 112 94 91 93 63 45 57 79 102 99 96 98 94 95 84 62 56 55 58
186 152 156 133 110 105 66 68 37 34 35 43 46 118 117 89 70 92 105 109 119 130 135 136 151 179 176 153 130 128 116 114 102 76 58 72 95 92 99 104 105 107 102 85 67 69 70 82 91
100 108 128 131 99 97 81 84 83 71 95 47 63 93 109 97 94 100 106 120 136 157 161 162 183 219 189 163 148 131 128 121 102 85 96 112 111 119 110 108 107 98 83 71 71 78 88 96 117
178 165 149 133 111 95 94 58 78 123 96 52 27 67 97 102 100 104 113 131 157 173 164 187 216 215 192 178 151 144 139 132 108 105 118 121 126 121 109 105 96 76 68 73 82 91 94 114 119
60 66 81 104 86 130 153 74 54 91 78 36 41 69 85 96 104 113 135 164 173 180 181 213 222 211 211 190 170 165 133 105 99 106 131 139 131 112 100 84 69 67 74 83 85 89 106 104 108

GFSSGP_con_3kmhel_015.txt.gz
Helicity
40 13 1 -25 37 32 19 23 98 57 80 88 90 82 82 47 63 69 11 33 18 37 75 56 30 69 52 41 70 53 47 31 15 2 15 27 14 21 -8 13 31 43 43 42 60 88 132 119 83
41 22 4 5 36 33 18 28 35 67 94 100 77 50 30 48 60 48 11 35 16 31 46 39 61 39 32 59 50 37 25 26 18 1 14 21 26 30 27 26 30 34 36 37 48 63 74 96 73
45 12 24 35 29 59 91 104 108 109 86 55 60 42 67 84 71 54 41 37 14 21 17 74 82 27 22 41 40 38 34 30 21 12 -8 21 32 17 28 49 46 38 34 32 46 58 65 57 64
50 26 25 35 40 47 75 105 77 94 90 38 71 61 40 78 64 67 33 21 11 24 21 79 60 17 5 15 24 47 35 27 25 13 -5 9 32 12 34 47 36 30 27 35 44 58 60 64 68
37 52 50 48 52 47 46 54 28 73 87 97 68 79 80 61 40 44 28 17 21 28 37 48 36 -1 -15 14 46 35 24 16 20 15 11 16 39 22 31 41 45 39 28 33 46 48 53 61 57
89 75 66 61 42 49 40 51 43 61 71 77 69 107 87 56 68 52 37 32 32 40 35 63 42 8 -11 51 35 26 18 9 3 5 -2 19 49 65 44 41 40 23 28 43 47 39 27 27 33
84 95 62 67 89 79 41 62 54 105 86 72 89 73 58 89 71 35 38 41 31 38 28 42 46 34 37 25 32 34 24 15 3 0 -2 -11 29 41 56 55 47 44 51 51 45 29 25 17 22
133 93 63 56 67 55 55 45 74 79 108 122 46 77 116 112 79 44 41 42 37 31 32 43 40 59 71 58 57 55 31 30 16 10 12 4 -3 17 34 40 34 48 43 33 24 11 1 -5 2
121 108 69 48 47 66 50 40 79 61 50 88 68 74 92 42 42 45 45 36 37 28 30 43 46 59 57 56 131 86 44 35 23 32 35 24 10 21 50 72 58 38 26 22 14 7 -1 4 11
137 105 53 52 65 66 76 48 62 59 87 74 82 36 25 31 68 63 45 31 33 27 40 55 49 68 74 90 116 68 67 60 62 35 51 34 31 34 46 54 57 43 29 26 5 0 -3 14 14
86 84 56 54 56 87 85 72 63 44 53 69 89 140 123 83 85 56 45 38 17 14 51 58 66 68 81 88 81 71 65 66 62 44 46 48 51 46 50 49 54 45 51 40 33 34 42 28 43
80 69 52 67 50 57 50 49 65 49 31 77 90 102 86 69 66 69 68 55 27 40 55 53 53 70 67 79 76 69 73 79 78 80 63 66 67 69 63 63 64 55 55 52 51 51 46 42 37
85 54 57 60 90 54 49 39 20 42 45 58 46 52 62 53 70 75 60 50 41 46 49 47 51 58 56 55 68 73 75 85 73 91 79 76 81 88 88 77 71 69 67 54 51 50 54 52 59
141 45 57 43 65 42 38 32 35 26 42 61 82 53 45 46 68 69 56 74 65 80 83 66 50 46 54 65 75 90 86 86 83 100 92 86 81 84 81 70 63 64 59 55 64 64 65 64 69
70 88 36 77 60 75 48 19 23 28 44 34 52 38 36 59 50 72 104 96 135 145 127 87 74 55 78 103 113 115 99 107 100 104 94 78 76 72 68 69 70 75 81 70 67 73 76 70 67
101 103 78 75 33 49 60 24 58 26 55 27 26 74 63 62 66 81 109 132 153 148 131 106 79 75 94 126 133 130 145 128 118 121 107 103 101 90 76 75 94 104 85 83 73 72 74 84 80
147 131 48 84 38 42 27 21 32 30 46 51 50 49 78 85 88 118 141 163 157 136 115 105 104 120 123 144 151 181 159 152 138 157 168 141 152 128 124 135 118 99 96 103 99 90 81 73 68
159 114 66 28 64 46 51 14 52 67 51 51 54 45 71 66 91 108 133 140 126 122 122 136 137 120 107 106 118 139 192 224 212 193 183 174 156 160 146 137 136 122 107 100 92 91 87 75 78
98 62 71 42 -4 74 46 27 42 33 49 49 43 60 72 86 94 108 128 132 141 157 168 159 129 90 77 93 128 136 137 136 158 168 176 169 175 172 166 138 126 118 105 98 88 75 72 52 63
184 56 65 66 34 63 67 39 41 52 52 44 45 56 89 127 105 126 137 162 188 201 201 192 158 112 100 96 114 120 132 150 152 153 162 159 160 153 135 131 110 100 77 79 65 53 42 54 70
222 108 107 100 60 46 86 43 37 39 38 84 69 82 118 105 120 138 167 191 209 243 220 180 147 126 104 91 88 107 112 117 140 142 129 133 130 127 113 94 73 59 39 43 51 73 81 67 61
93 124 124 104 121 69 52 42 2 55 77 75 81 137 169 158 149 180 190 203 220 221 175 142 122 107 97 98 112 121 117 128 117 100 90 85 95 87 76 61 58 56 46 60 55 94 75 73 72
153 48 150 141 122 163 70 82 76 27 61 72 67 112 163 158 187 185 189 197 212 185 154 130 122 115 102 95 94 99 115 97 77 69 72 71 73 77 76 43 38 50 64 86 82 82 86 84 98
194 162 171 168 142 86 76 45 122 33 41 43 73 129 197 181 201 188 175 188 195 154 133 119 118 117 105 113 126 133 123 102 86 90 83 74 70 49 58 40 54 83 89 86 85 94 92 86 87
80 278 325 196 142 107 87 67 52 78 106 86 44 98 116 140 138 133 152 171 151 129 128 122 120 125 119 134 156 149 125 112 109 90 78 80 68 58 66 70 86 98 95 98 97 96 83 91 95
117 111 250 248 129 82 62 67 75 96 100 61 39 67 94 91 83 97 124 131 127 124 134 132 129 128 132 153 177 155 137 117 106 97 99 99 78 74 95 108 119 116 109 105 102 96 90 89 110
210 136 165 267 268 120 44 70 15 64 77 62 56 90 97 81 81 98 121 118 123 132 144 144 136 143 163 186 184 168 159 148 119 116 111 92 84 96 122 130 121 110 105 103 101 103 93 109 104
205 154 187 267 148 150 65 73 91 38 59 34 42 81 105 104 108 116 113 119 128 148 159 153 154 168 193 217 198 186 174 153 129 120 111 101 93 130 150 134 117 106 101 101 104 101 103 103 115
117 217 183 205 216 175 90 79 139 98 68 29 25 80 97 124 125 114 115 124 138 143 154 169 174 189 221 230 212 197 178 151 134 136 103 88 97 133 131 127 113 105 103 99 105 101 92 114 116
72 102 106 132 104 201 199 102 79 86 76 35 34 45 92 110 104 107 128 137 134 143 167 178 190 214 254 237 217 205 176 149 147 115 98 77 114 139 135 122 110 98 92 101 98 99 102 128 125

GFSSGP_con_3kmhel_018.txt.gz
Helicity
48 36 22 6 36 39 37 52 30 105 71 67 85 47 55 41 71 76 8 39 52 95 73 50 67 56 75 75 90 69 47 33 18 11 30 36 39 51 15 29 41 32 48 50 57 61 105 93 105
38 53 41 14 41 44 43 -25 68 82 139 84 76 42 60 77 70 41 59 33 58 86 55 35 29 55 47 74 80 71 48 31 26 16 28 34 45 49 35 39 39 43 41 44 46 52 54 74 85
38 26 48 29 60 39 97 182 235 204 168 55 83 61 89 134 150 69 69 25 58 41 34 118 68 37 29 75 64 57 48 40 34 26 10 30 34 17 39 55 47 42 39 36 40 46 57 60 62
31 45 38 52 39 38 31 82 79 153 165 71 93 85 85 94 72 78 47 9 52 37 112 109 87 35 41 61 65 62 53 42 38 24 8 25 48 43 41 64 47 37 25 25 30 36 41 40 41
53 53 77 66 51 59 62 90 35 -3 77 88 67 106 59 36 53 37 46 25 62 64 96 83 77 35 31 40 77 69 52 39 34 20 24 23 43 34 55 70 50 29 22 27 21 30 27 27 20
110 82 97 71 43 -23 94 37 97 48 55 37 20 93 83 85 80 62 49 63 74 95 81 64 49 34 31 71 79 60 54 40 31 20 18 32 39 66 62 67 44 36 34 45 41 34 12 7 6
115 121 87 67 66 81 46 112 63 70 127 94 60 49 83 80 56 23 41 86 70 81 82 59 44 49 48 58 69 66 57 50 37 27 14 27 21 32 58 67 52 39 37 32 21 8 -3 -9 -4
130 120 89 80 79 104 86 92 41 76 97 97 65 96 121 71 25 35 56 67 53 72 46 89 73 72 67 49 69 94 81 66 52 42 34 17 9 1 33 52 47 44 30 18 14 3 -7 -17 -19
132 180 122 72 50 54 50 62 35 68 48 95 95 85 7 -16 -45 8 32 59 48 63 45 38 87 74 94 72 107 107 90 71 66 55 51 55 25 13 47 57 81 47 22 10 2 -9 -12 -7 5
187 190 125 82 42 68 50 55 52 95 55 103 118 89 55 5 32 44 48 56 51 62 45 43 61 101 64 112 176 102 87 76 65 53 69 52 31 63 103 68 46 25 13 9 -1 -5 -6 12 43
116 142 126 65 63 63 72 139 123 79 67 68 100 97 134 123 89 80 44 24 69 66 93 64 79 87 108 120 111 69 107 54 80 75 104 70 81 65 69 60 65 53 38 56 42 49 62 58 62
99 87 83 89 45 57 101 81 65 58 47 67 119 71 104 149 72 75 77 83 58 94 109 121 87 95 90 120 100 57 103 86 79 100 95 94 84 86 72 70 66 62 61 54 51 57 49 49 57
86 106 68 65 98 94 75 64 32 27 44 43 69 85 60 49 59 72 105 89 74 102 135 115 100 116 92 98 102 65 112 117 99 116 105 102 97 86 84 72 68 61 63 62 53 53 57 63 53
171 85 98 81 78 72 103 59 46 26 36 48 44 95 82 58 79 137 95 86 93 89 132 110 104 106 122 110 87 123 124 126 143 137 97 103 94 96 81 69 67 76 68 83 80 74 71 77 84
141 124 91 71 84 107 30 32 21 23 25 34 53 51 47 144 158 98 147 192 181 236 259 179 158 121 121 132 125 158 178 196 159 118 129 94 88 87 91 77 98 101 86 93 98 101 92 90 73
217 159 134 53 151 79 77 22 23 40 54 51 70 59 108 136 114 126 125 157 155 176 169 182 123 111 129 158 171 168 200 197 201 181 174 193 172 133 129 155 144 139 138 145 121 106 87 74 65
131 203 114 117 138 107 56 20 23 27 27 76 84 66 102 101 110 141 111 135 151 195 171 129 93 95 164 268 265 320 315 328 313 288 256 229 203 232 203 191 188 186 158 145 125 104 87 60 67
224 184 170 123 115 127 66 31 68 70 114 79 48 68 153 134 115 111 100 115 133 137 130 128 166 208 279 296 276 364 356 332 293 260 230 200 195 242 236 203 171 168 149 122 99 88 75 65 68
132 133 95 101 101 45 35 6 47 56 62 56 67 73 155 218 178 94 91 119 162 152 132 147 158 150 153 171 244 248 227 208 219 218 204 202 211 192 195 168 137 121 118 96 92 60 53 52 50
96 115 126 87 47 54 1 48 39 58 42 66 74 79 144 300 175 109 119 148 178 207 242 267 273 245 242 225 196 160 155 161 164 172 181 176 178 164 127 113 99 91 90 93 80 56 23 34 61
98 78 96 68 19 121 96 79 50 52 56 74 88 74 243 316 212 147 186 187 218 258 268 244 228 214 206 205 185 143 122 128 135 133 125 109 100 105 97 86 80 77 69 48 53 58 65 42 57
133 22 81 63 49 169 100 56 -6 61 49 47 74 153 307 345 246 180 202 240 255 260 250 223 191 141 95 69 56 91 111 124 105 95 65 62 67 72 67 51 44 40 45 62 61 75 72 86 79
91 26 19 36 82 216 161 66 37 77 66 67 144 114 317 381 290 269 249 241 262 269 258 230 217 212 183 169 147 132 133 126 112 91 85 67 57 52 59 41 30 42 46 69 82 85 86 82 97
15 -39 69 50 99 143 103 78 41 104 131 144 137 193 348 399 350 329 288 283 270 255 238 204 196 197 190 188 187 173 165 150 125 105 78 66 56 63 59 42 41 58 65 70 73 77 91 92 100
47 -63 6 149 232 111 83 83 60 107 230 103 162 265 344 415 388 344 276 256 235 237 204 176 176 182 170 172 178 183 188 162 140 113 92 82 62 51 49 45 53 69 84 89 91 92 92 96 109
-66 -34 113 105 377 300 194 101 75 113 129 171 218 268 337 331 311 230 211 217 216 196 166 165 161 165 158 163 181 191 192 151 139 129 98 79 69 60 74 72 89 99 99 97 97 97 97 101 115
-245 -113 44 213 166 258 203 147 148 129 216 141 158 241 234 213 210 166 175 197 193 182 158 162 168 168 161 172 189 205 200 187 158 144 120 98 89 78 79 84 95 98 98 101 100 98 99 114 121
75 103 115 236 188 164 103 95 87 93 95 117 150 193 184 170 171 159 186 193 184 172 178 173 168 175 184 196 207 224 212 190 165 151 128 108 93 82 69 88 102 101 100 99 106 111 115 126 136
74 74 163 90 210 202 226 202 79 66 70 47 116 183 195 183 194 208 204 189 209 206 184 199 201 195 205 217 241 246 216 191 171 151 128 111 87 81 85 99 100 100 101 102 114 121 120 127 134
140 153 216 257 195 232 181 177 113 97 73 48 36 175 192 200 216 222 225 245 231 190 199 186 186 217 230 247 253 245 217 198 176 157 131 110 91 90 100 107 105 103 104 114 125 133 123 150 151

GFSSGP_con_3kmhel_021.txt.gz
Helicity
27 36 28 34 51 51 38 -6 50 98 82 68 69 89 55 59 56 48 -13 59 88 71 66 65 62 78 78 101 131 106 73 60 41 36 36 52 69 52 27 34 41 46 40 35 42 54 85 76 75
31 42 34 34 59 55 74 17 100 170 128 114 76 60 77 78 53 41 49 68 81 48 50 28 34 59 66 97 114 128 104 68 51 41 43 50 60 58 44 33 41 43 37 30 37 41 50 61 61
42 40 36 54 54 55 82 52 90 129 206 138 132 101 89 102 48 53 13 96 81 32 16 2 16 32 27 97 106 106 89 77 69 48 16 27 36 37 42 48 42 36 32 32 31 29 36 34 33
43 81 79 70 44 50 113 80 42 92 137 176 86 119 58 52 55 24 15 70 101 41 25 24 43 34 56 79 90 81 71 59 59 50 23 11 20 38 32 65 55 34 27 22 18 12 10 11 12
99 92 102 86 38 52 110 29 -23 40 56 104 65 101 85 54 26 21 24 58 140 89 93 66 59 53 69 57 79 80 63 52 42 35 22 12 -2 -7 64 82 57 36 17 7 3 6 -3 -8 -7
164 130 136 99 34 23 110 33 40 22 62 97 88 44 77 31 54 15 50 72 127 105 78 67 67 71 60 60 77 74 63 51 38 30 36 19 10 19 35 60 44 24 22 11 -2 -0 -14 -21 -21
145 165 127 93 48 38 131 35 86 63 80 156 109 68 48 61 -3 -2 52 117 98 95 70 70 66 54 44 68 69 76 74 64 46 39 41 37 18 19 22 29 31 18 16 10 -4 -9 -16 -19 -19
139 159 117 95 56 -7 42 46 59 49 47 59 93 98 49 37 -27 17 70 81 92 96 86 70 73 53 53 55 62 82 81 80 59 49 41 42 24 7 13 41 36 19 9 -1 -9 -12 -17 -20 -16
156 222 151 115 76 -11 83 130 43 49 41 66 82 99 32 -7 -20 15 35 61 91 78 92 81 70 53 55 57 60 80 79 81 67 59 39 38 24 -0 23 28 10 37 16 -0 -10 -17 -21 -17 -8
220 260 183 152 89 54 82 135 65 95 81 48 105 143 83 13 34 16 25 46 68 81 85 111 92 66 52 62 88 77 65 51 50 51 33 30 29 25 38 54 60 45 22 13 7 -1 7 20 53
170 157 183 100 54 14 49 85 71 120 87 63 95 154 37 80 93 75 56 82 65 80 89 82 122 81 85 89 105 74 50 48 39 47 17 24 18 27 52 49 39 42 36 48 42 45 57 65 81
127 126 103 51 60 24 61 96 95 83 56 71 69 76 111 133 99 72 76 70 77 94 85 83 85 114 145 167 111 92 77 45 47 23 19 47 68 68 65 59 54 52 52 51 54 60 53 49 49
95 83 113 62 43 51 73 137 110 59 28 73 45 36 66 86 89 72 87 101 94 86 92 119 134 144 144 165 107 106 93 90 99 109 125 117 107 94 82 77 68 62 65 64 62 61 56 51 62
204 142 63 24 56 96 105 111 128 66 36 54 57 56 46 87 129 138 148 149 133 109 160 159 164 160 175 173 132 113 138 170 161 155 130 117 107 96 87 86 89 92 89 94 107 137 136 111 78
166 159 126 57 39 12 103 111 102 42 52 26 39 45 58 68 138 173 189 199 168 193 211 198 171 162 179 149 157 157 177 189 191 147 153 118 112 114 116 142 158 161 165 180 157 132 96 81 67
212 184 141 116 90 69 58 8 78 44 65 28 60 135 135 133 171 183 185 185 190 207 226 251 224 222 184 180 153 200 276 327 303 299 249 235 190 187 191 177 195 181 170 148 129 102 81 84 84
212 219 194 103 109 129 162 98 52 29 48 29 47 85 157 177 169 156 141 130 138 163 176 160 159 185 220 302 383 427 440 411 338 298 258 238 262 247 196 186 181 181 158 142 115 111 87 72 80
184 155 127 102 71 137 111 92 53 58 66 56 55 62 111 189 177 132 117 118 134 131 128 152 157 227 412 485 495 481 428 406 340 302 260 237 216 215 197 171 173 158 135 125 101 93 83 58 45
151 123 144 100 88 83 91 107 30 13 33 78 94 81 120 245 217 149 120 129 127 129 132 154 207 284 409 447 422 399 321 316 288 256 228 221 200 192 159 133 130 119 103 88 87 54 49 43 59
99 98 53 72 56 101 90 96 45 42 67 48 49 68 207 337 241 182 167 191 203 171 169 211 269 320 317 298 268 258 243 231 219 202 196 171 157 130 117 96 80 80 74 88 76 53 31 23 42
111 102 65 66 108 59 37 53 40 71 61 91 93 70 259 345 288 265 250 254 252 247 233 235 249 278 259 238 229 228 236 206 180 165 143 122 115 100 76 66 57 61 50 45 35 44 49 32 36
118 97 73 59 89 74 113 40 40 53 101 127 84 149 271 364 371 340 325 296 261 262 257 263 270 262 214 175 171 141 119 124 114 113 92 95 87 80 68 57 51 44 31 48 47 63 58 61 68
82 119 136 104 62 27 76 65 49 94 46 73 97 148 290 401 408 394 359 308 275 283 309 297 281 240 172 159 141 143 143 131 136 127 118 93 85 75 54 44 38 42 44 54 71 83 92 72 72
111 147 141 97 88 49 -28 36 43 112 31 1 115 216 319 406 405 422 375 362 334 318 328 320 318 273 234 201 167 155 155 166 184 154 133 92 61 46 47 50 54 58 65 68 72 75 80 75 78
159 165 254 141 74 18 -49 1 35 104 61 102 188 252 375 409 474 481 407 382 339 311 307 303 292 277 254 243 211 187 188 201 188 154 119 96 65 49 47 42 45 50 62 78 81 78 78 77 86
151 156 255 294 73 -100 -46 -4 149 52 78 174 285 336 450 481 457 383 332 344 308 276 276 281 264 249 234 226 213 203 206 199 187 155 128 107 86 63 50 51 60 69 79 86 89 80 82 89 99
115 61 17 161 39 -27 135 198 138 180 198 272 326 360 359 414 401 340 295 272 257 235 236 234 229 220 208 200 211 216 214 209 185 166 143 114 97 77 71 68 69 79 93 94 90 84 84 94 100
-15 -33 -99 -229 3 46 163 144 116 189 209 241 287 322 321 368 340 276 234 231 212 202 224 219 203 199 188 203 208 210 207 199 190 172 153 129 106 88 80 71 85 94 96 91 90 88 93 99 112
-78 -112 -184 -138 -97 180 225 176 113 121 147 194 201 247 318 289 264 234 195 184 196 221 224 211 210 214 217 217 215 219 221 217 195 168 137 119 101 94 82 87 94 96 90 85 90 91 89 113 128
-43 101 -50 -85 7 117 192 263 137 98 83 126 153 198 225 257 247 232 203 222 234 231 222 210 224 227 222 215 225 234 233 222 193 161 131 114 102 84 92 100 95 89 85 82 90 105 120 145 144

GFSSGP_con_3kmhel_024.txt.gz
Helicity
52 48 9 30 56 48 43 59 66 141 134 89 64 84 59 57 35 61 6 41 81 83 50 64 48 39 97 111 121 115 101 76 62 63 77 119 133 67 41 33 27 29 27 28 20 24 50 50 37
43 45 38 35 67 69 77 54 60 72 80 95 64 70 114 116 92 54 47 0 62 62 26 22 37 40 54 89 102 95 113 82 72 64 55 80 96 77 48 24 14 15 16 15 15 22 35 44 38
60 32 53 59 59 57 106 126 160 80 81 103 82 94 105 102 83 33 27 28 54 39 23 16 22 24 20 84 85 90 85 71 56 46 30 34 46 50 45 26 14 24 23 19 15 14 18 19 13
67 86 91 90 49 47 78 186 188 72 81 86 101 132 141 71 42 22 58 67 58 29 7 14 31 24 29 67 67 74 67 57 36 21 6 -24 2 15 38 57 43 39 23 19 13 8 7 3 3
95 113 126 100 41 44 78 135 112 100 27 81 107 82 99 82 46 49 77 64 74 28 9 17 38 41 80 63 59 64 57 44 34 18 5 -20 -36 -44 16 67 63 45 18 15 8 15 4 -6 -10
163 150 153 114 46 36 80 126 119 38 20 62 100 89 88 30 20 0 64 67 79 76 47 36 47 53 84 60 57 56 56 48 44 28 22 -2 -8 -11 39 44 35 19 7 3 -3 -1 -4 -5 -4
165 205 158 113 71 51 71 117 172 78 49 61 110 111 99 52 3 12 55 110 97 92 94 78 73 66 77 63 59 54 56 55 53 37 37 23 11 9 11 23 13 10 2 2 0 -7 -11 -9 -9
163 188 167 142 95 23 59 114 113 72 57 58 70 117 120 36 -7 11 68 103 99 92 82 85 81 74 69 65 58 53 66 69 63 49 44 37 14 0 2 17 20 5 4 4 -2 -13 -15 -18 -18
201 237 188 154 125 45 91 161 117 70 62 52 84 75 77 54 38 46 72 94 99 80 75 83 75 71 71 66 45 45 56 62 56 54 42 33 14 -8 -2 18 17 14 11 -3 -10 -14 -14 -8 -2
235 255 219 178 118 60 48 62 109 104 114 69 82 131 100 81 31 38 57 54 96 84 70 93 76 63 69 55 51 42 46 43 38 27 23 28 24 14 30 33 28 13 15 6 1 4 16 33 68
208 200 215 146 75 82 16 83 73 154 89 73 57 113 188 125 66 64 59 61 75 110 114 94 86 62 94 62 79 54 39 29 29 17 21 22 23 6 16 28 25 27 23 39 41 46 54 56 67
154 175 155 99 92 80 47 6 173 148 109 71 64 67 133 148 141 101 84 54 68 111 122 117 90 98 114 102 102 70 54 30 44 27 26 40 25 33 34 36 38 42 38 43 50 55 53 60 53
129 95 125 81 33 49 56 27 43 75 110 97 63 56 40 64 98 71 80 71 70 77 88 138 126 107 130 135 99 104 71 70 55 47 31 55 55 69 83 74 68 57 57 70 90 100 107 107 97
203 217 107 101 64 66 63 33 33 23 77 63 46 27 41 36 46 85 91 126 134 104 88 104 152 153 181 149 135 107 103 93 92 83 78 82 104 102 110 116 128 122 131 120 119 117 109 95 64
97 86 94 135 104 65 92 -30 -93 61 89 69 36 33 55 47 48 43 121 188 182 161 149 146 160 167 198 168 157 129 132 160 201 247 204 158 126 147 159 160 162 142 131 117 112 108 98 87 72
151 103 96 133 137 67 84 -121 81 81 96 73 23 24 35 56 83 129 147 184 201 209 208 195 197 177 183 198 219 253 283 336 362 306 250 200 195 157 155 166 144 116 116 108 98 96 105 102 93
134 136 163 147 98 138 152 -32 55 58 75 65 45 25 51 79 126 157 138 145 171 186 207 252 253 203 268 355 373 374 398 409 372 304 248 223 200 172 163 147 135 115 114 115 106 116 106 100 97
125 149 133 149 138 122 68 31 69 77 65 48 41 32 53 87 110 158 147 139 156 169 209 223 238 287 401 460 441 424 449 441 355 303 252 216 184 168 162 148 131 116 113 114 106 115 105 90 63
132 143 127 154 139 131 119 48 39 9 -2 54 46 34 67 85 141 160 164 145 161 174 168 184 275 356 468 505 461 439 351 306 326 270 237 213 180 165 147 130 121 100 95 92 101 76 86 72 66
125 122 105 98 66 107 108 94 66 34 4 33 56 42 114 138 188 168 187 176 158 160 180 231 271 307 390 434 412 389 356 288 256 243 254 211 185 161 140 112 91 86 74 91 90 78 56 51 52
125 117 116 105 68 42 62 37 51 14 29 65 23 0 117 191 207 220 227 209 202 189 184 203 222 261 330 375 405 391 347 280 266 251 229 191 160 142 112 90 71 65 62 71 65 64 63 45 40
133 112 95 90 101 126 169 50 46 24 57 63 39 62 88 176 255 313 314 281 254 227 223 225 230 260 268 265 270 245 233 221 175 167 163 164 147 120 98 78 60 55 51 71 61 66 59 59 62
96 122 109 114 129 119 92 145 -43 7 63 66 38 81 114 249 342 368 348 316 303 280 275 263 272 253 215 206 206 205 207 193 169 170 174 155 131 112 92 69 57 59 61 63 77 85 97 80 75
156 113 126 119 123 152 76 147 -65 51 60 56 57 108 150 277 389 476 469 422 372 349 338 297 283 256 219 203 189 196 193 172 173 150 152 129 115 102 88 73 63 64 76 82 85 91 99 93 86
141 169 221 205 230 205 22 142 81 49 40 48 77 161 204 312 477 483 472 412 377 373 376 317 303 265 231 231 210 187 166 157 158 143 136 128 109 91 84 77 83 79 86 97 99 102 99 86 85
121 139 286 203 218 82 86 109 15 -113 -131 46 8 63 334 482 471 486 456 436 407 398 410 340 323 293 268 250 224 201 190 189 180 164 161 143 113 92 83 91 95 100 112 114 107 94 88 83 87
146 180 77 210 144 133 77 57 52 13 -17 -44 55 217 367 512 501 462 418 400 381 380 361 331 323 289 266 253 235 224 213 211 204 195 175 144 125 110 116 115 115 121 119 114 108 95 89 90 87
44 127 164 195 187 204 130 103 -22 -30 42 42 151 220 325 384 447 417 370 350 332 337 334 303 264 242 236 245 237 229 223 218 203 189 176 152 137 126 131 130 127 126 120 108 102 98 92 95 107
-41 -48 4 133 91 13 -84 -151 -71 25 94 123 164 222 311 359 390 363 316 302 309 308 279 262 272 268 248 245 255 245 225 210 203 193 171 145 135 132 135 128 130 120 108 104 100 98 95 114 105
6 62 -22 -85 -146 -144 -77 -108 29 34 149 122 173 179 269 312 354 304 271 267 255 232 243 238 253 241 220 242 250 239 218 209 209 187 163 139 137 134 128 124 116 113 106 98 104 109 109 106 126

GFSSGP_con_3kmhel_027.txt.gz
Helicity
55 65 22 40 68 70 68 67 94 129 105 64 79 82 52 75 74 72 18 -11 31 65 3 13 42 31 79 79 78 72 81 75 61 52 58 95 76 58 33 26 18 17 17 16 23 23 41 40 39
54 37 51 45 82 93 82 95 146 151 75 88 78 56 80 62 75 72 35 -1 45 60 26 11 19 22 65 60 78 70 70 79 61 50 44 74 93 54 28 16 10 17 17 12 14 18 23 29 34
56 40 63 82 79 74 80 93 170 202 122 53 74 95 92 76 95 48 10 39 35 48 30 13 14 25 26 75 78 65 65 66 64 40 29 18 28 31 21 22 22 26 22 19 15 17 16 25 23
92 81 111 127 70 59 60 120 191 228 131 55 62 97 91 70 84 43 53 58 41 38 33 20 14 11 14 78 67 61 53 53 56 27 5 -3 -8 13 37 27 42 35 28 21 14 13 12 14 15
110 122 129 113 63 47 69 94 125 215 171 95 79 84 85 94 69 61 67 47 39 26 28 22 25 24 27 69 58 54 45 45 44 24 8 -13 -34 -22 15 46 40 36 25 19 13 21 14 15 9
170 161 173 109 42 50 68 96 109 137 152 81 94 97 77 59 54 32 49 35 37 50 36 37 39 37 50 71 60 50 42 45 35 21 15 -9 -28 -34 18 50 34 17 10 7 6 8 6 1 -2
177 201 165 118 76 53 41 58 113 120 130 105 35 96 95 77 20 62 37 47 60 59 63 56 62 61 79 69 61 48 43 40 40 33 25 8 -8 -12 36 39 18 7 2 -4 -2 -5 -9 -13 -16
179 188 126 88 73 25 38 96 107 113 124 57 55 75 97 100 49 79 68 75 76 76 64 72 82 86 86 68 69 54 44 43 45 32 27 25 8 -7 -0 15 10 1 1 -4 -6 -10 -11 -11 -10
199 227 134 119 126 104 37 123 144 142 146 134 97 74 63 77 125 103 105 88 82 65 68 76 81 92 97 83 63 52 42 41 33 26 23 19 3 -5 -3 3 15 11 4 -0 -1 -2 2 13 20
234 236 179 161 137 69 48 76 127 150 162 123 101 81 87 106 102 91 89 81 70 67 66 72 82 88 103 73 69 58 48 39 23 13 15 20 19 10 10 9 15 13 5 8 8 11 20 34 53
231 189 171 164 94 64 27 35 13 92 104 103 73 63 69 118 136 95 76 103 78 90 91 73 77 94 115 86 86 71 53 44 19 8 17 20 24 22 19 17 20 29 29 34 39 42 45 44 50
193 157 129 105 87 78 56 22 62 115 111 137 160 82 94 95 103 117 118 96 130 143 99 115 98 120 115 104 94 73 64 54 30 20 32 35 39 37 39 46 49 44 43 40 43 50 66 84 87
147 90 101 86 58 40 38 42 44 55 95 115 130 140 79 52 68 83 101 96 95 93 128 150 145 133 126 123 103 90 68 65 61 53 52 60 57 55 67 74 72 64 65 73 81 86 87 84 83
130 124 75 91 77 35 35 20 40 1 41 112 119 135 107 48 29 60 63 56 77 86 97 184 179 159 161 125 115 79 79 79 84 86 82 92 89 89 99 115 112 114 103 98 90 90 83 71 56
109 84 74 64 91 61 68 -38 13 25 15 57 83 116 92 73 43 30 42 46 67 153 114 178 221 206 173 128 105 88 84 133 172 187 157 136 97 115 108 123 125 118 115 110 93 79 80 73 67
138 103 74 62 100 109 91 -54 62 80 60 47 61 94 75 47 38 43 51 60 80 131 113 158 213 219 179 162 161 176 223 271 301 256 208 167 129 120 125 123 130 109 99 91 79 71 71 76 69
137 137 116 108 96 124 115 20 14 46 116 80 61 72 59 17 35 21 58 95 99 115 134 157 234 255 281 309 331 320 362 392 349 294 261 197 171 156 142 125 116 111 105 101 84 88 82 72 74
155 150 95 66 102 144 107 7 8 25 93 115 55 67 50 41 32 74 93 110 117 122 151 202 273 361 408 434 432 433 466 447 370 322 270 214 194 168 151 135 131 113 100 104 93 94 87 71 48
145 130 112 132 131 81 66 13 2 30 25 78 34 46 32 8 10 50 104 121 133 152 183 236 307 370 435 444 474 455 415 401 379 326 253 229 190 175 156 137 126 105 93 81 84 69 93 76 65
145 126 112 61 55 105 75 9 20 61 48 44 53 35 26 38 55 90 148 154 138 139 164 228 296 352 405 464 462 418 420 379 309 269 251 222 210 178 162 130 108 100 79 90 87 88 69 69 65
145 127 111 87 85 74 53 -18 26 70 74 50 50 63 39 48 105 171 179 166 164 156 167 223 276 348 402 473 500 505 436 400 306 250 259 244 207 178 146 125 102 93 77 69 65 66 73 66 63
122 102 95 109 120 139 146 -68 -11 97 93 76 73 80 13 41 64 155 232 210 178 166 192 231 249 264 297 341 387 335 299 278 213 234 231 227 197 171 139 123 110 90 60 76 67 77 67 62 62
138 97 70 97 137 126 120 141 -156 -62 98 72 82 115 88 61 79 157 234 218 208 210 220 235 252 250 247 269 302 329 333 305 274 248 241 216 192 164 147 124 97 87 73 73 90 91 97 86 87
166 110 115 146 175 198 131 177 -158 -26 55 62 70 91 85 89 140 211 337 317 302 283 274 269 260 253 236 236 245 261 290 269 255 210 203 182 166 159 140 125 113 102 102 94 88 97 113 108 104
116 179 261 251 290 288 89 137 127 67 93 50 57 95 101 133 227 314 365 337 309 287 301 304 288 275 240 236 231 242 243 212 185 159 158 155 151 142 140 127 125 111 105 107 107 114 117 106 105
225 206 335 302 302 174 70 133 132 -9 -8 27 183 51 92 164 205 290 372 387 364 328 337 330 320 320 281 257 249 238 223 197 178 159 164 168 160 151 139 140 132 130 128 121 120 113 111 106 101
245 154 106 258 219 176 140 114 36 44 41 30 28 73 175 154 219 286 420 435 397 364 354 349 370 351 317 287 263 247 220 205 188 189 189 176 164 150 145 142 141 138 131 126 127 121 113 102 97
132 131 170 191 179 172 120 77 27 24 22 91 70 43 156 233 258 333 414 468 408 391 389 375 347 321 310 294 261 243 225 218 210 201 191 182 169 165 156 154 151 149 140 135 128 116 102 102 105
110 104 212 176 181 198 93 1 -49 -64 1 58 135 114 170 221 332 427 494 459 415 402 371 380 358 341 315 287 273 268 249 236 222 212 193 181 176 173 170 160 163 159 141 134 127 113 95 107 110
158 136 175 154 207 175 75 -71 -13 -63 1 40 147 145 136 190 278 374 394 364 350 365 357 361 338 314 286 277 270 262 246 232 230 208 192 181 187 177 167 166 168 153 141 124 114 105 102 104 116

GFSSGP_con_3kmhel_030.txt.gz
Helicity
60 50 17 42 74 77 73 64 84 142 105 65 65 59 59 51 57 70 24 -26 3 35 -5 -10 23 37 55 62 55 39 31 37 31 29 37 66 52 26 5 17 17 17 15 10 15 31 37 36 51
56 41 55 55 93 107 76 72 99 138 150 144 50 66 69 54 57 56 33 -13 13 45 -9 -29 29 36 60 61 50 50 45 41 39 32 15 42 53 12 7 8 13 14 15 18 17 19 19 23 27
49 53 65 94 93 90 71 68 112 184 172 109 100 68 63 62 55 59 29 39 35 32 11 13 28 38 55 60 61 56 53 52 39 25 7 34 36 11 13 13 21 23 25 24 19 20 25 29 34
83 82 124 135 88 66 67 88 113 204 139 87 77 102 68 49 65 51 44 53 52 29 26 31 32 37 32 68 56 47 46 43 46 29 15 3 4 16 20 13 26 34 26 26 22 20 20 19 21
115 130 153 126 48 57 63 77 99 152 175 131 104 105 86 73 64 76 70 49 53 31 23 30 31 33 34 66 50 43 37 34 39 25 2 -13 -22 -5 14 33 34 22 15 13 7 13 12 9 10
166 161 199 133 82 28 55 55 92 106 129 156 148 106 86 69 76 47 49 40 37 52 36 33 29 36 34 61 50 41 33 28 28 17 -2 -24 -30 -48 -3 43 35 19 9 4 4 8 12 12 11
167 205 179 133 71 43 32 27 97 108 126 127 89 139 82 78 55 27 42 52 39 41 47 39 45 45 42 70 57 41 28 23 18 9 7 -15 -30 -49 -1 43 25 11 4 3 5 6 11 11 10
158 189 158 100 77 43 26 61 87 88 119 109 84 111 124 74 87 74 71 71 69 51 40 51 61 68 77 84 71 50 36 21 15 12 -2 1 -4 -17 3 18 11 2 -2 1 8 11 13 13 18
149 185 105 102 110 102 49 78 107 136 138 160 118 92 71 72 118 141 107 86 73 49 41 56 70 80 84 87 75 63 38 24 21 15 3 5 -5 -12 -7 -0 6 1 7 10 16 21 19 22 32
162 153 90 78 82 66 53 71 105 173 174 186 157 114 84 69 84 99 72 71 75 58 57 60 71 86 93 83 89 72 58 40 35 26 14 16 8 -0 2 5 8 13 18 24 25 33 34 38 38
189 159 139 116 87 82 39 34 25 89 97 147 169 194 130 86 69 63 56 61 68 86 82 79 90 96 98 90 93 84 75 54 38 34 24 25 35 31 31 30 29 32 40 36 38 44 47 54 59
185 173 123 86 91 69 33 46 69 75 96 83 142 178 184 115 58 53 58 72 86 107 105 103 109 116 102 100 91 84 83 61 47 48 39 45 53 51 53 48 50 49 48 50 53 65 79 79 69
165 160 132 113 86 47 26 20 33 41 86 101 113 133 170 158 90 56 53 65 65 75 129 139 163 150 133 113 94 98 77 70 68 65 61 73 82 73 65 67 73 69 74 75 87 85 85 82 75
150 149 149 106 66 48 29 9 67 13 1 97 121 139 151 149 118 87 70 56 51 48 61 135 181 194 192 137 112 83 90 87 92 89 98 102 91 86 99 111 116 122 100 97 89 83 81 68 64
111 107 107 107 99 77 47 4 60 57 63 86 83 116 141 153 145 97 65 52 47 41 44 91 164 220 222 179 126 113 119 124 116 116 122 107 105 120 113 111 110 112 100 99 92 84 84 83 73
114 114 119 113 96 120 94 30 78 132 64 109 121 111 128 137 127 100 67 53 49 32 58 119 174 205 226 204 187 176 158 179 195 196 199 173 154 111 115 111 111 106 100 87 78 73 68 67 59
165 133 125 146 170 120 102 96 31 105 102 95 110 108 93 115 119 88 68 66 45 55 81 110 159 204 240 286 289 310 271 277 284 285 268 222 164 114 140 121 113 105 104 95 68 63 50 39 55
194 141 102 108 97 145 128 86 44 7 46 53 98 107 106 87 74 83 48 57 69 107 116 112 193 257 328 406 459 433 391 376 375 347 304 248 199 174 173 161 134 111 99 91 68 71 68 48 30
150 166 131 138 128 98 96 63 32 -16 -3 15 32 43 49 91 104 81 53 67 121 135 147 136 188 260 396 460 480 426 417 384 425 379 320 273 211 196 190 160 139 108 84 66 68 40 59 47 42
164 144 119 94 73 106 63 9 11 -3 8 12 35 54 35 63 53 60 54 78 119 116 127 152 189 268 367 444 478 480 439 405 402 370 332 230 206 197 195 155 126 100 81 82 61 51 25 28 20
210 173 159 127 124 106 90 -69 -8 3 22 66 93 94 72 71 31 15 57 87 131 120 135 167 197 290 388 473 541 584 517 480 431 335 283 228 216 224 186 152 120 104 66 47 39 33 37 33 26
142 161 98 107 123 97 87 -56 -53 32 50 65 91 108 123 124 114 40 55 119 132 128 146 167 216 289 333 402 448 456 399 334 288 266 244 242 226 210 173 144 119 95 74 70 38 31 25 20 34
249 121 119 109 150 139 153 162 -58 -113 4 62 87 98 102 109 139 106 104 126 192 181 162 171 223 263 289 342 363 404 420 325 332 284 278 256 236 201 170 135 117 108 80 69 72 69 67 45 47
198 184 182 177 163 168 150 169 -146 21 -30 9 118 144 85 80 134 126 152 187 235 211 188 187 220 236 258 292 311 325 367 312 305 273 273 232 204 180 155 139 125 105 96 94 86 90 96 80 81
180 244 249 222 313 293 89 87 146 66 83 11 54 66 62 75 109 160 176 192 225 207 208 203 215 247 244 247 270 263 277 278 272 247 216 188 174 153 145 131 125 111 115 123 115 108 97 91 94
167 216 287 298 266 210 153 128 107 -56 -37 6 18 147 97 86 108 161 167 210 247 239 238 225 229 279 247 246 263 273 281 269 242 209 192 187 162 146 132 133 141 148 143 131 120 104 98 103 99
225 237 174 239 223 216 214 139 38 -21 37 53 62 -12 60 76 83 148 183 221 274 267 280 294 297 311 292 281 284 290 293 277 239 230 219 195 167 147 147 155 163 157 145 132 129 115 104 103 99
173 173 191 263 242 240 175 139 97 116 89 116 119 101 28 40 102 166 200 238 327 331 392 356 314 311 324 322 308 298 293 274 250 235 221 201 180 167 166 166 168 150 139 138 127 109 104 107 106
157 183 212 232 266 265 220 112 9 -58 61 53 -4 59 151 189 156 219 212 283 403 384 349 376 358 368 381 347 332 324 307 288 267 242 210 194 180 169 167 167 155 148 145 129 123 111 99 115 113
173 110 154 234 281 279 276 51 71 -3 -58 -6 -20 16 106 191 209 296 332 353 381 358 332 365 358 384 375 337 332 320 300 277 259 233 210 189 179 172 169 159 163 151 127 124 125 117 114 112 115

GFSSGP_con_3kmhel_033.txt.gz
Helicity
62 52 25 44 73 81 74 58 57 90 109 64 66 51 60 66 76 94 44 -3 9 32 7 1 12 38 50 43 40 25 20 20 12 12 20 41 38 46 25 17 20 17 15 20 40 49 39 54 48
65 42 53 60 98 101 76 57 59 85 137 125 66 54 61 70 26 29 55 -3 0 27 6 -8 28 42 48 42 36 28 25 24 18 8 -2 29 30 16 12 20 23 24 19 20 17 23 20 27 35
47 66 74 107 105 81 69 50 68 118 136 93 104 56 69 75 46 45 29 21 21 23 -5 -17 34 43 46 39 30 30 28 21 18 11 17 36 26 12 13 17 24 28 24 22 22 21 27 31 38
87 80 116 124 46 75 75 100 86 140 126 100 108 138 59 47 70 48 44 54 73 43 16 11 30 53 48 48 39 35 30 25 20 10 12 21 9 13 15 20 31 33 32 29 30 27 29 26 31
141 128 165 116 48 43 65 70 61 108 147 149 139 141 88 43 44 41 45 40 59 35 31 10 22 35 56 59 45 38 29 19 23 19 9 0 -10 0 11 32 31 25 20 24 16 22 23 19 24
203 177 206 115 65 47 55 39 50 75 104 148 131 147 118 35 34 44 51 47 35 50 43 23 17 38 58 63 52 40 27 21 21 19 6 -28 -22 -22 -36 14 38 19 14 11 13 16 21 20 20
196 227 192 127 44 64 31 39 86 80 84 114 108 147 119 72 40 52 74 73 50 41 49 32 24 32 50 63 60 48 32 25 19 11 0 -27 -29 -29 -26 35 29 14 10 3 7 10 13 16 20
183 211 184 119 49 45 45 47 76 90 112 107 88 137 151 93 50 66 83 87 73 54 45 36 38 38 41 46 67 59 47 36 28 15 -1 -8 -9 -2 39 32 19 7 3 7 7 14 20 26 37
174 212 168 120 104 76 57 61 86 112 125 150 138 133 117 91 69 82 85 75 69 52 38 35 37 46 52 56 52 56 49 41 32 22 14 11 2 2 15 23 12 9 18 19 19 26 39 46 56
201 182 103 93 80 45 49 74 107 141 173 173 202 158 127 74 84 75 56 41 55 51 45 42 39 46 62 63 61 50 51 37 35 35 27 18 10 5 10 29 31 31 31 34 33 40 53 51 55
155 110 108 80 66 81 52 59 42 112 129 121 183 215 192 149 102 87 56 43 40 65 49 49 55 60 61 65 75 61 55 55 45 43 41 39 47 44 34 31 33 32 39 34 43 48 63 70 67
138 73 44 36 60 57 51 57 79 87 66 93 124 191 196 235 172 97 63 47 49 51 47 60 62 69 58 62 69 63 58 61 56 53 53 60 61 62 54 55 57 52 51 59 69 68 80 80 72
146 111 81 50 60 58 56 36 53 44 32 80 122 154 182 178 163 129 92 74 60 50 52 60 80 92 86 78 66 67 56 65 67 69 72 76 75 79 82 90 91 82 76 78 82 75 74 76 70
122 107 98 90 49 54 63 45 91 25 12 36 96 120 134 148 160 152 115 72 71 46 54 62 69 105 113 112 82 71 69 81 86 84 85 82 81 94 121 136 129 112 91 82 82 80 75 76 71
100 82 60 47 58 65 56 30 51 67 67 63 87 117 141 140 132 130 108 66 62 66 63 47 56 95 132 132 113 100 95 114 106 102 87 87 99 111 117 129 119 104 99 95 85 81 77 75 72
82 86 79 118 123 80 102 62 98 101 66 62 67 108 126 128 117 136 127 100 69 66 53 55 50 87 119 160 162 144 137 143 157 149 129 128 135 134 122 132 112 102 95 84 89 74 67 60 53
100 106 93 82 125 136 109 76 77 129 162 124 108 116 167 143 127 123 129 111 73 68 61 63 88 104 127 163 187 188 197 196 220 232 234 226 200 193 144 127 125 104 99 97 74 69 54 54 54
91 105 90 87 92 140 103 56 62 71 66 77 79 98 130 178 168 170 156 123 79 84 60 68 104 137 152 221 290 343 326 324 302 301 310 278 254 202 165 138 144 114 109 95 77 70 62 46 33
134 110 88 129 115 84 76 17 68 59 59 44 35 42 55 98 106 159 191 181 116 90 90 93 139 173 230 296 387 401 408 361 363 371 349 330 268 219 165 158 159 132 121 100 75 56 60 52 40
100 81 79 74 66 98 68 -9 29 70 87 89 69 71 67 69 52 108 131 162 151 116 113 125 132 139 178 243 355 423 477 432 412 407 404 331 243 165 161 175 162 127 97 106 102 58 23 22 30
141 138 131 116 104 100 81 -27 -20 -9 52 76 78 72 71 76 86 87 90 124 155 110 114 139 126 136 212 332 492 532 526 468 439 390 378 326 275 206 189 175 148 120 99 90 74 67 48 30 20
108 130 104 109 134 107 104 11 26 25 44 76 77 83 73 79 96 90 93 119 117 123 150 144 131 179 224 285 377 432 447 397 351 365 343 298 247 211 181 163 143 124 99 85 73 55 43 15 35
165 144 127 131 143 120 109 141 -4 41 18 46 50 42 55 67 83 89 92 117 113 153 145 164 161 169 200 255 314 406 438 392 425 403 369 293 256 205 177 157 138 122 101 93 71 59 55 42 30
166 171 136 138 146 214 149 144 -41 -29 -77 -56 -17 68 68 73 98 93 83 116 144 190 173 168 164 177 207 253 311 362 459 410 417 326 290 224 225 211 182 159 142 119 103 88 79 71 70 59 63
176 195 175 152 201 281 135 49 161 6 70 17 40 129 138 68 73 86 94 121 144 188 195 190 169 187 206 235 290 330 359 363 328 266 280 243 235 196 166 149 126 112 97 90 82 85 89 89 86
196 224 242 199 218 187 186 171 126 -37 -73 -10 38 16 30 57 79 58 57 132 142 199 216 196 185 205 209 242 298 328 353 324 294 273 239 234 204 179 151 140 124 107 100 101 96 101 103 96 93
206 222 129 217 178 185 273 217 139 61 70 41 15 55 58 77 63 81 79 95 162 187 192 208 239 243 243 250 325 323 302 283 277 264 250 231 208 178 150 134 119 112 114 110 115 111 111 103 102
151 205 256 327 358 368 396 251 251 88 73 8 -6 63 105 98 77 116 82 92 138 197 234 254 248 276 272 281 297 317 298 292 286 273 246 220 199 173 151 135 129 125 118 121 114 120 116 109 110
227 242 312 318 374 470 331 310 243 26 -35 -14 37 39 52 146 83 108 113 156 193 267 314 311 308 330 334 329 349 377 349 314 288 266 228 207 189 165 151 139 132 124 125 117 128 126 110 108 103
213 219 298 320 327 543 454 316 174 131 49 -28 -133 -39 41 41 55 75 144 198 207 263 302 303 340 357 340 361 395 393 373 325 289 249 213 185 185 165 150 135 131 124 123 131 131 114 102 100 110

GFSSGP_con_3kmhel_036.txt.gz
Helicity
73 56 37 21 53 59 63 53 65 58 65 65 73 91 127 123 94 88 54 62 48 42 21 7 39 27 23 25 26 28 28 28 27 23 33 53 60 47 42 23 17 25 35 45 46 57 50 39 23
74 53 38 67 86 71 64 52 44 75 82 96 67 32 47 85 61 60 53 58 34 39 18 20 38 41 33 28 26 25 24 23 24 22 26 79 57 53 37 26 29 30 31 38 51 41 39 49 45
55 69 66 87 70 53 85 65 79 89 97 88 97 60 69 69 59 52 66 47 23 34 30 42 52 45 32 28 26 25 25 20 15 22 50 66 50 39 37 35 43 44 47 47 54 51 45 40 45
65 63 82 79 27 50 79 94 97 120 90 100 129 116 58 43 70 74 52 36 35 45 49 90 54 47 36 27 26 24 28 23 23 39 59 34 43 39 43 43 50 50 51 57 64 62 52 44 48
108 118 116 72 2 28 66 83 86 116 128 135 143 151 125 54 39 54 51 48 47 61 57 53 49 52 50 28 32 31 26 25 21 22 29 14 31 26 37 44 45 35 32 34 39 40 36 35 34
133 161 147 73 20 50 37 64 59 74 91 130 123 139 127 55 45 46 49 58 47 44 40 56 42 46 64 44 38 35 28 17 19 13 6 -16 -4 9 5 24 31 26 22 21 18 24 30 27 25
111 122 99 71 36 45 35 68 87 89 82 102 128 156 128 83 62 48 65 72 68 50 44 37 36 32 60 53 45 39 32 22 20 11 -1 3 23 11 -17 8 32 22 17 14 15 24 23 23 30
168 147 110 108 36 13 90 64 81 88 109 102 109 127 132 125 65 53 58 64 69 72 67 55 48 35 36 38 54 46 42 37 31 25 13 21 22 25 67 55 22 17 10 11 24 24 27 33 40
174 141 112 65 44 57 76 60 45 102 113 114 114 161 160 115 68 56 55 58 64 63 62 58 50 41 36 32 58 52 51 44 42 35 34 21 10 22 24 63 43 28 26 28 32 36 43 39 54
142 133 70 103 72 70 64 83 112 120 85 89 102 120 153 128 107 90 78 58 48 53 54 56 44 43 44 47 51 39 49 34 27 33 40 20 26 27 31 52 53 44 38 37 44 49 38 18 52
139 107 96 86 85 103 84 66 80 99 127 98 113 144 173 178 139 124 100 92 62 52 54 45 56 52 45 49 48 56 59 49 46 49 53 49 42 33 30 41 38 37 34 35 37 43 56 62 55
128 78 81 77 62 75 35 48 40 58 37 138 176 185 206 191 183 146 99 88 78 50 44 43 41 53 33 45 48 54 61 62 65 60 65 75 73 64 58 52 62 54 50 58 72 62 65 58 59
110 80 75 62 47 39 38 -7 -5 21 26 67 94 128 184 198 194 170 138 120 97 80 42 37 38 43 45 40 44 50 52 63 73 80 79 84 91 91 79 75 80 86 80 74 63 66 60 65 59
108 94 75 72 41 37 23 -17 -10 -24 13 17 49 91 112 159 177 176 155 130 98 83 71 57 46 43 44 52 52 63 66 74 86 96 95 93 114 107 95 105 114 102 91 77 73 73 69 69 65
64 44 41 24 28 33 26 -10 -17 -11 7 -23 19 62 89 95 137 141 150 131 108 91 80 73 57 45 46 53 64 87 99 104 97 105 113 105 101 95 99 114 115 103 86 77 72 68 66 66 61
62 58 66 63 72 53 46 -2 41 99 40 54 33 48 96 104 130 114 99 142 133 115 93 84 71 50 45 60 83 114 142 144 125 129 116 103 102 109 109 99 111 93 85 81 76 69 62 57 50
29 59 32 51 61 67 36 38 41 105 88 81 99 102 129 163 167 176 168 146 133 116 103 89 59 36 33 49 94 124 162 175 175 154 160 141 138 144 150 119 104 113 100 87 75 67 56 54 45
42 6 16 21 28 55 35 20 33 43 65 63 56 72 76 96 159 198 223 187 163 124 107 97 94 64 72 89 119 151 190 252 239 222 199 205 217 190 214 131 121 106 98 84 70 63 60 56 40
66 57 44 38 46 45 27 16 40 41 35 46 54 57 52 66 73 129 211 230 200 169 154 129 120 91 113 144 157 193 284 344 331 292 250 286 278 262 182 164 110 126 108 92 72 67 65 51 37
26 33 40 45 42 64 46 -6 34 42 44 54 53 56 52 48 49 74 102 169 220 221 178 158 117 96 113 161 171 184 335 390 428 418 347 312 317 286 208 163 117 132 112 106 93 69 46 42 40
21 30 36 45 83 66 36 29 -16 56 54 55 47 43 56 54 59 68 74 103 161 218 230 167 129 121 133 159 232 313 395 491 494 446 403 366 317 282 176 180 130 133 117 104 93 79 52 42 47
43 84 50 59 74 77 110 83 90 81 78 49 51 50 56 71 59 54 69 83 119 164 201 184 150 145 152 200 179 188 312 460 437 411 405 383 315 318 138 181 145 130 109 100 87 74 66 45 55
81 81 60 76 86 102 93 149 96 89 56 39 9 12 57 53 62 70 69 68 112 128 159 178 156 164 169 123 143 168 240 402 446 389 376 359 302 204 193 166 144 129 114 101 83 68 63 64 67
149 106 83 88 126 158 66 125 93 57 31 -36 3 124 109 66 98 71 68 91 88 137 137 145 142 155 145 130 135 174 290 389 392 335 394 336 262 223 182 177 146 125 110 94 81 74 71 76 83
127 155 163 118 177 187 176 127 194 122 138 70 74 52 14 39 87 109 72 73 84 133 134 139 128 146 133 138 144 196 220 287 258 313 352 248 261 197 170 165 137 127 117 98 82 77 76 82 81
73 123 164 150 127 120 268 234 280 95 60 47 4 42 53 71 40 71 82 70 95 99 123 133 125 124 134 154 170 202 222 282 366 349 328 269 225 186 171 164 148 134 116 99 83 86 90 93 95
136 127 64 103 102 137 233 172 127 93 20 -70 -25 29 29 83 156 80 68 71 91 98 121 124 126 129 151 166 210 216 289 334 337 367 315 308 223 206 182 156 144 131 112 96 93 97 93 90 104
84 136 196 246 232 180 149 120 161 79 64 50 11 -46 42 62 120 134 79 53 88 96 119 135 142 141 177 193 203 247 296 337 387 317 313 253 224 201 169 156 136 115 105 103 100 92 101 103 130
147 194 238 216 277 343 204 252 225 95 33 -10 63 81 61 48 80 120 108 77 97 103 136 157 169 179 182 201 229 266 346 363 334 325 224 231 213 183 164 143 125 113 108 102 95 101 110 125 137
88 128 166 297 287 459 370 278 240 95 67 80 29 11 -20 -6 51 45 73 86 108 121 131 177 187 185 207 234 261 327 379 369 307 227 241 218 205 180 156 139 129 121 110 106 104 104 125 131 123

GFSSGP_con_3kmhel_039.txt.gz
Helicity
75 42 34 24 57 48 48 52 25 41 52 46 98 101 82 105 81 81 41 113 83 61 69 38 54 48 33 21 10 8 10 13 16 29 51 62 60 57 55 37 39 47 58 60 67 78 76 67 52
78 56 32 60 76 59 44 33 45 45 88 77 65 59 77 77 47 42 29 75 67 59 70 57 64 52 34 26 20 15 16 13 7 19 54 96 74 58 53 50 44 47 52 50 56 52 48 31 32
59 47 68 60 28 26 47 85 49 90 44 38 79 58 60 79 57 46 74 69 60 47 55 105 73 54 46 29 18 15 16 17 16 -0 31 73 65 55 57 52 50 52 50 55 53 46 46 51 49
69 59 82 80 7 -8 19 93 67 49 52 61 112 101 55 89 47 94 67 53 55 52 59 126 100 83 63 41 26 19 19 18 20 28 74 61 63 60 53 53 44 43 46 53 56 56 47 42 43
72 99 89 57 -9 -16 57 49 83 79 110 68 74 56 78 58 60 50 55 57 50 67 119 80 102 81 71 43 36 28 26 22 23 42 40 36 45 51 57 55 49 42 38 38 42 40 31 28 25
124 120 111 72 8 21 28 60 61 61 62 66 64 74 62 62 30 51 45 48 69 100 112 104 84 79 81 50 43 35 29 24 24 23 21 27 26 30 37 45 39 34 30 23 18 22 23 24 20
133 114 99 67 39 37 65 67 78 56 32 42 49 105 79 65 107 43 43 61 65 91 86 78 52 69 91 63 50 41 35 23 20 16 25 31 29 9 -20 17 31 22 23 16 14 21 19 21 17
126 123 74 75 37 29 61 78 85 89 74 85 115 93 62 173 67 55 61 62 68 84 79 76 64 71 64 58 56 53 47 38 34 25 41 32 20 -0 47 75 41 23 16 18 28 28 26 27 29
149 146 100 71 46 64 98 140 70 118 126 102 77 85 124 125 74 74 63 60 60 63 66 68 72 82 69 69 75 67 61 51 46 38 47 25 -4 20 34 74 63 40 30 30 31 28 24 16 22
168 120 85 78 74 67 121 58 88 123 71 106 101 99 116 114 87 87 88 83 67 50 48 60 64 74 71 105 114 61 59 47 38 38 51 16 24 56 84 70 55 46 39 30 28 24 5 1 20
103 70 67 116 198 188 149 102 91 120 123 70 63 79 74 151 125 108 98 99 93 61 64 64 71 71 71 93 98 96 82 45 43 49 59 32 59 62 46 52 39 31 18 15 16 12 31 55 52
90 93 82 148 91 99 84 79 64 49 68 110 93 134 217 155 148 122 121 113 117 77 71 62 66 75 76 64 69 71 57 55 68 63 59 68 63 63 62 49 59 47 35 69 69 63 47 39 44
92 85 72 90 86 54 75 71 63 79 66 99 187 154 159 133 148 153 137 74 76 90 90 70 52 60 59 51 62 51 58 83 58 77 64 71 83 79 88 95 72 94 107 86 52 59 55 55 52
165 123 99 57 54 32 38 40 61 47 27 23 29 88 86 97 128 135 124 123 116 98 103 75 59 54 55 45 43 42 53 91 74 89 80 80 89 106 95 117 149 122 96 83 78 81 73 64 55
146 66 52 26 22 19 10 -5 23 11 1 -48 4 -8 -3 36 94 104 133 122 100 79 94 88 79 67 54 50 46 49 65 113 108 102 95 90 139 116 109 120 107 100 103 96 87 80 73 64 57
59 41 74 38 65 59 63 -3 70 34 10 36 20 35 -1 14 59 95 102 121 89 97 102 102 134 98 74 62 63 54 72 109 151 132 132 123 121 111 119 107 100 86 108 104 96 88 69 62 51
47 93 32 69 3 70 28 44 75 71 93 69 72 71 65 41 11 57 118 103 71 88 105 126 127 107 81 64 77 61 65 127 193 152 186 141 127 134 155 120 98 90 112 117 103 90 76 56 42
78 34 67 77 38 6 48 31 38 63 36 49 65 69 76 77 83 100 139 162 105 77 102 118 132 110 86 98 91 93 84 207 213 220 233 193 167 179 187 149 138 94 108 117 101 81 68 56 43
100 125 102 79 64 38 48 21 29 35 29 31 51 62 66 66 64 60 89 166 237 206 162 137 141 144 132 141 131 139 136 325 316 320 347 223 219 240 216 186 174 114 106 116 95 79 62 62 52
40 43 42 37 31 42 33 40 32 29 38 43 45 56 59 61 60 49 60 85 120 209 222 212 194 180 181 196 148 149 348 500 503 473 360 317 298 276 258 219 200 153 132 129 103 71 60 57 53
18 32 39 48 76 47 24 36 -19 24 43 28 42 45 36 45 82 68 62 71 100 108 207 250 234 207 215 197 202 294 506 584 555 491 427 379 366 319 319 272 232 172 151 137 111 89 78 52 44
36 32 48 49 42 15 56 5 65 108 70 78 36 35 49 67 89 71 77 85 90 110 138 221 239 266 244 238 240 277 383 431 443 463 471 491 412 384 301 260 243 204 148 126 103 89 80 52 63
52 109 72 70 78 98 72 97 69 108 33 11 -8 23 81 88 69 78 77 96 94 130 128 198 253 255 254 250 277 312 244 240 356 473 462 441 423 371 329 289 194 201 138 123 101 89 86 78 72
128 78 54 58 71 80 16 57 94 81 98 130 102 89 113 75 105 112 106 98 101 130 194 213 230 224 250 283 245 203 224 329 417 489 498 479 405 338 279 244 201 174 136 118 108 100 87 84 88
87 102 76 8 92 142 116 138 262 127 94 94 61 52 48 49 88 72 77 91 92 100 156 254 203 211 243 192 176 154 265 242 294 426 456 435 378 338 259 245 190 162 142 120 104 93 76 76 78
51 107 91 117 82 120 205 182 160 99 144 73 46 21 40 89 66 184 98 75 70 86 110 189 181 195 186 165 172 178 276 240 294 369 360 372 331 276 237 201 201 153 134 119 102 86 79 83 83
101 89 70 130 111 157 184 98 62 32 32 45 33 28 2 28 70 109 149 79 69 56 83 134 157 186 174 157 170 266 207 234 299 324 341 357 314 259 251 207 170 152 138 117 93 91 84 82 99
62 132 167 188 132 104 122 77 138 118 87 137 61 56 65 53 70 91 102 108 66 55 76 101 123 178 158 166 255 232 211 257 379 402 424 381 340 242 253 200 167 150 132 116 109 100 105 105 119
97 114 169 155 226 183 103 215 253 302 290 226 123 23 154 90 84 68 96 25 59 63 75 110 155 161 183 236 213 223 238 265 383 427 389 377 231 249 217 183 160 141 129 119 106 117 118 110 110
69 84 46 190 165 242 285 365 209 125 128 183 119 73 77 77 47 -18 55 -10 57 80 106 144 195 161 222 260 211 212 229 319 386 406 362 205 245 192 225 178 153 143 131 119 119 119 111 111 109

GFSSGP_con_3kmhel_042.txt.gz
Helicity
78 92 49 51 74 66 54 25 50 76 56 74 73 138 169 52 71 63 68 98 156 104 81 52 65 54 39 30 22 18 15 20 25 31 53 61 63 64 52 46 51 65 80 91 87 86 84 75 50
62 84 61 69 98 84 57 3 71 71 85 132 153 123 118 71 16 22 57 56 105 115 65 83 83 69 51 43 37 25 15 10 11 15 34 71 69 58 57 51 49 55 61 70 79 72 63 40 32
53 61 101 82 77 45 33 17 113 103 129 43 33 14 26 69 75 -47 105 69 101 113 66 90 83 74 68 58 46 33 21 11 9 10 61 57 47 53 57 57 51 51 60 62 63 58 55 47 34
72 81 98 94 25 12 8 2 103 167 60 49 53 44 79 123 91 111 53 76 92 88 158 110 92 84 82 59 44 32 20 14 8 -16 43 50 54 58 57 52 50 53 51 53 54 54 48 39 35
97 122 88 72 13 -8 -4 26 97 124 86 61 48 36 90 121 118 81 52 62 72 245 154 112 111 105 91 66 56 49 35 30 41 60 40 33 47 43 44 39 35 34 33 36 33 29 22 17 17
140 137 139 72 21 29 38 20 124 132 52 32 63 35 77 75 56 66 46 41 107 157 115 126 121 119 88 77 68 58 43 34 38 44 39 27 25 26 31 22 20 23 20 20 19 19 21 20 16
127 145 115 71 50 49 44 24 125 62 62 70 33 76 90 111 117 64 28 46 116 116 127 113 110 103 91 81 75 59 54 41 30 34 35 43 47 27 12 35 19 19 17 17 15 14 16 14 13
155 154 89 85 71 48 50 46 128 123 92 17 97 90 122 132 80 56 66 109 117 150 112 88 111 114 98 82 83 75 60 51 44 52 58 41 27 5 -17 46 29 29 24 25 26 21 17 14 11
112 180 140 88 76 46 73 70 150 189 123 79 72 73 62 116 75 111 105 109 125 116 92 77 104 107 93 100 94 94 79 62 49 58 51 31 10 20 73 66 59 46 34 29 26 17 5 2 -9
208 180 154 102 76 78 54 89 105 158 98 92 134 119 43 64 85 107 71 77 93 88 85 97 119 88 80 115 137 108 96 79 59 47 47 5 -9 62 80 94 70 52 41 27 17 3 -11 20 14
159 133 113 100 129 85 174 273 172 235 222 115 99 108 114 45 80 78 63 69 76 79 79 88 128 87 66 200 131 105 103 72 52 51 71 -7 78 146 109 74 60 44 24 20 4 7 30 54 59
107 128 97 86 216 140 77 175 269 174 125 109 110 103 146 148 101 109 127 95 99 98 95 110 112 153 153 205 134 141 128 62 48 58 75 29 97 103 89 79 54 50 52 43 27 58 61 44 64
106 108 86 107 207 208 91 110 146 177 169 79 96 201 167 188 202 191 102 90 118 136 139 150 118 132 156 206 151 150 109 20 53 130 101 88 102 82 59 74 84 69 128 123 104 101 85 87 70
96 121 88 105 101 99 75 49 84 117 59 42 88 164 231 235 220 169 198 158 140 111 179 173 122 158 137 154 148 113 46 86 132 157 101 94 80 68 96 130 187 198 155 143 149 135 108 85 70
191 131 92 81 80 83 56 34 57 42 41 50 64 61 99 134 174 149 137 163 98 120 157 173 166 158 162 107 100 96 81 184 155 155 110 86 109 123 120 189 188 162 171 178 168 136 115 102 81
84 56 81 23 31 47 53 17 63 54 67 52 44 60 67 83 50 35 91 125 149 104 123 161 166 159 162 141 103 118 103 200 179 166 149 107 182 213 222 224 168 136 158 174 165 139 117 101 87
62 98 71 78 64 72 87 43 48 111 114 108 76 78 86 70 32 73 91 85 104 171 137 133 195 216 175 143 152 129 105 231 203 170 190 151 220 210 201 190 146 138 157 165 149 159 129 110 86
63 63 115 105 73 63 45 40 53 81 71 61 80 100 116 114 120 131 128 106 154 136 165 183 228 275 236 196 194 177 134 226 243 238 226 327 289 247 205 238 219 206 189 154 151 146 135 100 75
178 204 171 203 200 107 60 47 46 45 57 58 82 103 105 91 88 105 120 140 178 153 154 169 252 280 269 228 244 273 206 286 304 289 326 449 372 277 253 280 279 216 181 149 145 140 119 117 74
81 72 73 57 60 58 39 48 47 68 78 87 78 108 114 101 96 70 90 145 126 165 219 202 207 297 276 269 272 262 384 409 418 446 513 553 401 382 292 320 315 282 271 221 161 123 109 85 81
65 60 65 69 55 17 46 63 17 101 23 8 26 53 69 105 112 102 88 103 144 137 119 230 282 274 311 329 429 496 577 562 607 660 639 658 497 414 305 357 374 304 271 236 174 151 105 79 69
55 57 51 58 62 46 113 34 49 36 44 44 33 68 87 97 113 112 99 114 139 150 145 118 215 280 286 341 475 483 491 539 596 655 689 702 484 414 388 427 369 340 280 281 191 151 123 84 69
54 73 100 76 66 61 26 61 -21 -4 34 38 73 112 89 72 86 107 144 128 107 124 166 174 136 189 266 321 463 545 580 601 638 679 731 643 473 415 418 394 363 333 300 258 214 160 137 113 76
105 83 24 42 59 58 -3 22 4 -17 86 68 175 82 50 113 107 123 162 174 126 132 143 181 181 199 263 355 470 532 571 571 558 552 613 554 446 433 435 379 367 354 308 268 217 161 131 118 112
71 60 42 14 42 50 61 63 147 84 32 51 96 123 115 155 152 100 130 117 86 86 120 134 200 269 323 410 503 508 473 481 446 488 536 515 459 445 439 405 368 326 278 240 181 143 116 108 106
44 82 67 83 96 105 152 157 146 40 4 147 113 94 67 97 97 128 100 105 91 91 91 138 190 309 373 475 442 387 445 402 388 393 417 419 444 429 403 346 311 286 272 204 160 126 107 108 105
92 46 112 135 100 118 116 181 109 6 33 61 91 121 100 108 88 159 180 145 107 92 101 126 192 282 387 446 365 368 413 388 336 372 388 418 425 411 339 334 270 260 230 183 127 109 105 101 91
50 81 149 156 105 80 116 92 85 200 278 283 300 252 183 101 199 233 216 134 80 77 99 126 168 231 360 340 355 454 453 383 320 349 388 379 374 387 389 329 268 245 212 169 144 124 112 100 99
85 90 118 170 153 121 96 122 221 209 154 140 124 104 201 256 232 185 102 55 49 67 54 156 175 227 277 332 442 547 529 431 378 362 359 400 450 372 353 308 270 233 194 154 143 129 109 103 107
69 91 75 130 99 194 229 94 167 92 202 235 146 163 93 132 123 104 84 49 49 40 61 154 178 226 416 510 546 470 424 392 374 396 396 417 361 321 337 297 225 213 169 134 129 116 116 110 120

GFSSGP_con_3kmhel_045.txt.gz
Helicity
58 64 56 91 105 97 67 37 86 122 49 77 70 63 60 109 99 90 27 100 126 103 61 50 60 60 64 60 63 63 63 54 53 67 64 63 64 59 48 44 56 69 101 99 66 60 68 58 50
67 74 93 108 134 126 60 36 64 18 75 86 110 100 120 106 50 20 79 132 136 133 72 62 67 73 80 71 66 57 46 38 43 43 45 62 53 50 44 39 37 52 69 74 67 63 53 35 28
80 75 134 133 128 95 54 48 162 73 105 88 57 49 84 135 56 -19 83 152 130 138 76 67 74 75 69 65 60 44 35 32 28 36 87 68 53 45 33 33 32 41 46 58 56 47 41 34 30
132 153 148 162 79 40 37 27 5 89 104 86 80 82 95 62 -5 19 132 179 120 110 103 82 77 76 88 81 62 44 35 29 22 60 58 51 47 37 33 32 32 34 41 43 45 45 41 33 29
172 180 142 107 15 1 -3 75 72 74 99 39 73 84 75 148 108 59 148 140 135 111 102 87 83 103 97 88 67 55 50 32 34 41 47 45 39 35 32 30 31 33 34 38 36 29 22 18 17
198 164 137 75 25 24 16 33 58 82 114 120 60 41 41 32 82 38 108 186 192 116 90 78 106 107 104 86 71 60 58 52 53 43 34 35 37 36 29 25 24 27 26 30 26 23 21 21 19
161 174 111 86 45 55 26 119 123 121 95 84 90 73 100 94 39 47 134 182 190 174 126 104 105 100 97 86 77 67 62 62 71 63 49 31 21 23 30 24 18 20 16 11 14 14 15 15 15
171 182 124 97 42 18 7 40 54 200 149 140 83 83 96 58 28 35 115 185 184 142 115 137 134 128 119 93 87 78 73 66 59 64 78 66 43 17 27 29 15 18 20 17 16 18 19 13 13
140 199 128 102 69 68 47 78 81 129 174 198 215 56 73 62 82 101 136 225 182 134 109 121 144 139 130 120 98 96 90 85 82 85 63 47 20 -5 2 51 33 27 20 21 18 19 19 23 11
228 189 141 138 61 52 71 37 114 129 159 180 153 107 85 84 97 124 116 172 175 136 113 110 119 123 131 124 122 116 107 94 88 70 47 30 23 22 66 62 47 35 29 24 18 20 36 35 19
182 172 137 103 67 62 61 121 125 254 264 169 123 145 100 83 72 90 102 114 120 133 125 116 103 83 103 148 148 144 133 112 85 69 44 38 41 57 85 63 46 36 31 21 18 41 45 40 38
187 142 95 82 52 96 91 131 221 206 285 303 226 176 162 110 72 77 80 81 80 99 96 168 137 108 105 168 164 141 128 112 92 56 39 87 88 118 95 65 46 35 41 30 48 39 54 86 78
149 137 126 135 117 111 101 106 137 178 243 261 148 144 228 212 159 126 92 89 78 103 91 117 153 166 184 227 171 153 107 119 94 78 47 86 95 81 98 75 56 45 72 52 72 83 107 97 93
133 119 169 156 123 145 65 53 92 114 191 130 82 14 129 233 219 171 160 141 150 134 152 122 155 199 258 244 207 170 120 106 102 98 45 77 100 77 84 85 68 85 115 124 149 160 130 114 94
201 194 164 110 58 68 84 26 103 72 65 61 37 46 9 147 204 206 152 164 185 148 159 203 197 178 301 258 224 187 129 92 103 111 102 94 106 87 98 128 146 184 207 240 231 196 157 139 113
174 120 90 61 80 90 136 48 52 39 95 118 90 61 13 -21 124 135 120 133 162 182 139 180 230 235 242 279 231 199 131 115 155 168 150 137 111 114 163 188 188 217 232 224 207 185 183 153 127
146 115 71 115 39 84 111 54 9 58 74 109 95 98 84 -9 -15 35 137 -13 -8 145 182 175 227 269 238 216 242 216 180 208 239 234 199 180 194 215 242 231 203 215 226 214 197 192 167 156 130
103 116 153 126 137 96 107 100 92 76 62 58 78 97 86 84 56 -19 79 135 123 77 152 231 201 242 290 274 202 187 227 242 247 260 214 223 278 288 323 256 227 239 256 225 199 183 193 154 128
124 177 163 113 189 137 92 60 62 54 58 21 15 54 45 31 27 75 82 95 126 149 132 153 209 247 327 382 325 240 253 281 277 300 277 301 339 319 325 283 290 274 268 210 202 211 186 185 133
133 93 66 35 93 69 65 17 9 56 102 106 51 70 42 30 36 17 33 55 90 116 126 149 144 209 291 301 336 340 350 376 314 312 363 396 459 433 379 342 315 288 296 250 212 212 205 172 145
88 64 53 51 -3 -5 1 23 53 64 43 12 1 36 73 84 91 82 79 71 60 79 104 115 163 126 251 425 565 625 644 531 477 407 477 497 538 500 433 380 360 329 317 261 228 203 205 179 161
80 73 65 67 50 58 39 64 61 41 39 32 33 36 39 74 121 145 129 134 104 91 94 102 102 132 147 249 385 517 537 506 468 522 587 632 547 569 522 468 427 377 343 291 268 233 208 183 135
60 60 62 67 61 33 47 80 4 -46 10 -13 23 -9 -1 14 46 27 50 50 100 147 142 136 106 119 152 202 302 402 536 598 598 636 663 669 618 563 492 450 425 373 354 320 306 282 235 188 154
68 69 57 45 43 73 55 87 21 -21 -51 -14 47 69 -6 11 52 73 65 73 75 87 105 126 135 123 134 204 317 450 576 656 685 665 660 653 620 567 557 501 448 411 369 307 264 289 270 208 163
91 76 87 58 63 32 90 59 113 13 -39 -20 9 13 66 43 169 176 152 136 132 152 150 124 100 116 128 170 352 485 540 606 607 597 618 602 624 582 556 536 480 416 352 315 309 279 262 203 148
87 55 63 38 42 46 82 35 -7 -54 -36 20 45 66 82 66 76 68 101 127 166 179 155 96 69 144 129 265 396 471 563 642 603 566 549 550 542 521 514 528 451 405 372 306 257 267 248 195 141
56 53 79 85 79 94 91 109 73 32 137 158 210 252 241 187 112 127 210 195 158 145 118 69 102 105 168 319 523 541 572 526 470 476 471 457 458 469 492 460 436 370 317 293 239 256 226 159 103
61 67 99 102 57 55 71 94 83 61 80 97 110 133 161 131 112 143 151 218 206 172 88 84 64 110 214 395 457 553 523 471 439 414 384 388 413 418 483 464 413 326 309 235 248 235 189 136 107
80 76 93 112 108 71 62 37 76 116 86 41 57 67 48 59 125 205 208 201 169 118 72 59 47 136 300 446 458 471 455 389 384 335 330 343 392 428 451 405 381 355 249 272 213 183 141 121 105
104 102 109 109 77 121 148 149 32 39 125 82 -13 -62 -11 81 129 162 115 148 184 110 57 63 103 322 413 421 430 422 432 379 347 294 290 369 412 405 395 364 324 315 314 326 170 155 102 97 103

GFSSGP_con_3kmhel_048.txt.gz
Helicity
60 65 47 73 93 80 62 61 62 118 151 32 16 20 9 51 51 71 29 68 118 87 53 39 40 52 58 73 84 91 85 78 75 76 63 59 55 50 35 44 54 69 69 41 34 54 61 60 51
74 85 97 92 112 97 60 60 106 121 118 45 39 40 58 68 55 76 71 38 108 102 60 38 47 58 68 82 76 75 75 76 83 74 61 58 52 46 39 36 44 62 81 69 53 49 47 33 35
110 109 122 122 113 67 47 122 129 108 50 40 59 53 71 69 47 24 44 102 146 127 78 49 51 53 52 71 60 54 63 62 63 59 64 56 49 42 35 33 34 45 55 54 49 44 34 26 34
165 179 184 167 108 48 36 103 190 253 59 65 46 60 86 81 72 33 78 129 179 139 107 69 51 55 58 75 66 52 60 55 31 69 76 56 47 35 34 30 36 35 35 39 36 30 27 30 29
205 219 207 167 86 45 31 1 96 235 160 61 56 54 87 108 73 108 99 126 165 147 119 75 59 63 76 89 71 54 68 62 87 89 72 59 42 32 32 33 30 32 31 26 22 21 19 17 21
261 254 229 176 80 24 4 52 90 142 102 81 56 89 77 67 121 114 114 99 125 128 118 85 66 72 70 69 69 56 64 65 88 74 70 67 49 34 27 22 20 19 20 19 19 19 22 21 25
234 270 194 135 56 45 -0 -11 125 165 80 77 78 99 76 40 82 115 107 109 126 128 115 93 70 75 70 68 72 59 55 46 64 70 69 66 47 31 27 19 12 10 12 9 11 13 17 19 22
169 208 181 110 92 21 30 54 75 118 77 107 133 102 98 49 55 148 174 162 144 124 97 104 90 99 97 76 79 69 64 82 84 71 64 63 48 40 30 17 8 11 10 13 15 22 26 27 33
182 202 168 103 89 62 47 54 87 98 104 160 193 135 86 79 135 207 204 187 170 136 120 125 140 138 128 105 86 86 82 91 99 97 81 65 38 23 34 26 16 19 16 20 22 23 26 25 44
232 206 132 101 86 73 47 44 64 176 179 173 209 189 217 170 71 163 155 163 151 137 129 128 143 144 138 116 112 106 97 92 90 87 80 60 39 23 30 41 31 28 18 23 26 31 36 35 50
215 166 127 98 83 82 82 108 80 168 201 186 193 154 192 160 107 142 129 154 167 156 131 125 135 137 149 148 133 121 116 109 99 87 77 73 56 46 61 57 35 33 26 32 40 47 47 45 55
192 146 137 77 61 60 60 90 118 176 183 189 191 261 248 143 130 106 154 129 181 165 157 144 129 138 147 156 165 144 140 120 110 82 81 99 80 71 80 74 50 47 44 56 52 60 67 80 89
149 185 146 94 94 86 96 71 84 105 178 217 193 200 231 249 165 150 159 150 155 164 147 172 164 148 166 172 169 161 136 127 114 109 90 117 103 93 92 61 71 56 63 73 67 73 93 103 101
137 93 109 111 102 99 86 47 89 86 93 158 87 152 197 238 263 276 213 135 120 132 193 189 180 159 192 196 185 176 138 105 119 121 98 109 110 107 100 73 50 73 68 80 82 100 125 132 116
163 170 191 147 90 95 90 -6 58 63 32 75 78 42 81 115 204 200 233 204 157 132 123 244 229 198 207 220 213 204 164 132 134 119 85 91 103 108 99 84 73 86 89 132 172 168 164 166 148
155 171 138 102 76 74 107 21 47 46 60 53 35 20 -0 40 89 144 163 157 144 165 158 181 242 269 248 240 237 241 190 164 158 124 92 69 86 109 123 116 104 137 177 202 212 206 209 178 156
196 154 121 130 70 91 134 70 23 68 93 85 60 67 62 75 65 63 130 133 83 118 188 182 210 308 301 285 261 261 230 183 197 165 120 91 108 144 173 181 199 217 237 224 237 226 192 170 162
115 127 113 101 153 134 141 121 88 99 88 89 90 68 53 77 50 96 123 156 91 42 89 157 194 280 331 322 309 316 265 219 226 226 158 162 169 203 233 254 269 273 280 250 229 222 201 165 162
113 139 135 116 107 83 88 73 37 32 41 38 17 9 8 -15 -30 30 112 135 140 108 101 141 183 171 315 367 346 363 288 266 266 239 219 233 254 250 269 280 321 302 282 244 244 238 201 189 164
83 108 80 50 60 54 45 14 -0 41 101 147 90 11 2 16 11 31 65 78 117 122 151 133 154 168 216 301 344 375 426 374 317 291 260 268 312 294 295 322 343 325 318 273 250 235 218 193 175
90 83 51 42 27 -6 10 13 70 93 61 65 76 82 71 67 31 11 34 39 65 85 89 113 135 133 149 207 367 512 539 531 495 379 315 284 390 411 362 354 386 375 351 306 244 239 223 214 195
100 42 9 31 40 60 72 40 48 61 37 8 11 43 58 87 119 127 118 78 69 81 102 87 101 125 132 204 365 327 370 418 412 379 428 412 413 466 399 367 428 435 398 348 286 246 219 233 214
67 55 42 33 27 28 48 74 38 41 58 63 84 69 24 12 47 50 83 112 128 133 133 126 114 106 150 202 237 318 311 388 543 579 548 474 471 474 462 444 460 457 439 414 355 293 249 214 232
68 77 70 29 17 74 34 85 34 17 46 4 29 85 101 24 36 27 46 45 42 50 72 108 128 150 101 135 212 269 367 448 522 524 552 508 515 498 466 458 488 516 487 476 393 303 278 225 271
88 83 84 91 99 58 40 49 11 9 -54 2 9 52 100 100 90 41 30 108 151 147 131 93 82 104 141 123 124 214 351 428 461 491 531 564 561 532 497 463 516 528 526 472 401 355 329 261 283
83 49 52 52 52 58 51 24 7 34 37 50 93 133 196 204 141 60 72 100 121 133 152 157 130 97 76 100 134 205 299 417 471 510 554 525 572 599 548 501 499 506 457 456 413 400 362 336 226
63 61 46 72 73 60 57 54 7 56 105 153 184 196 177 210 217 185 145 108 103 115 132 127 116 73 57 86 142 273 319 396 486 558 571 604 585 530 514 473 444 432 452 472 424 361 370 205 279
54 66 84 91 40 23 36 27 -8 -0 77 99 105 84 54 -8 17 75 106 122 110 96 118 117 81 54 29 73 231 296 373 432 472 539 495 483 455 442 448 422 420 476 446 442 444 360 406 243 204
90 64 61 67 56 31 40 -0 46 43 82 49 -17 -37 -69 -34 -0 12 46 136 136 170 208 124 65 43 95 199 270 329 406 455 422 418 411 389 364 384 411 410 457 432 457 374 345 388 328 174 205
82 59 82 56 40 72 52 90 5 3 66 45 -44 7 44 54 68 70 117 173 191 170 120 65 57 26 136 242 302 331 357 366 357 325 297 328 382 352 379 444 460 463 428 409 377 382 246 204 201

GFSSGP_con_3kmhel_051.txt.gz
Helicity
79 85 56 74 88 71 74 71 67 115 152 80 77 48 51 61 75 86 34 25 105 92 46 45 24 28 20 34 48 72 94 81 84 80 74 65 60 50 37 42 33 35 25 19 -0 39 65 41 36
90 93 105 80 92 75 64 46 80 88 101 105 77 57 52 54 65 76 57 17 87 91 60 35 19 22 35 45 46 51 74 84 91 83 65 53 52 45 40 43 59 61 57 41 49 54 44 32 34
103 126 121 101 71 40 53 79 107 132 129 75 80 67 34 42 66 49 -1 55 89 100 73 42 39 32 48 58 55 44 44 79 82 72 75 53 47 44 42 45 55 68 69 63 48 44 37 31 27
146 180 177 135 68 58 39 96 135 199 166 74 63 90 55 46 60 24 77 105 112 105 79 54 54 45 43 59 59 49 37 65 78 79 77 59 52 42 37 34 42 50 47 41 36 33 29 29 32
216 211 186 134 70 43 50 10 43 178 214 186 87 67 53 81 79 110 107 107 131 123 100 90 72 50 43 47 46 50 50 50 66 90 82 62 51 47 42 35 25 22 25 27 23 21 19 21 27
257 232 208 148 78 44 37 40 27 113 169 194 149 85 61 59 113 79 110 91 101 126 115 105 72 54 46 43 42 44 46 43 74 109 85 74 60 50 40 32 28 22 15 12 12 17 21 22 25
225 260 196 131 68 56 50 36 98 145 185 181 87 102 83 68 72 121 91 106 96 118 131 115 84 56 54 51 53 46 51 47 86 92 82 74 63 52 44 33 24 20 17 16 13 13 14 25 35
219 226 176 147 99 52 51 52 73 107 155 50 68 70 71 50 79 148 128 131 118 99 108 105 89 80 71 69 62 51 55 60 75 76 82 84 69 48 42 34 24 20 15 12 11 15 18 38 48
214 231 209 169 117 87 87 134 117 83 139 118 120 87 92 211 186 199 181 137 97 88 100 99 110 88 99 90 72 70 63 44 56 72 78 82 59 42 39 27 21 21 19 21 24 24 32 50 62
252 230 190 138 101 41 69 55 94 127 172 157 148 137 197 256 182 154 133 117 108 101 86 93 97 110 127 109 102 91 81 88 97 90 80 77 64 50 45 37 24 27 25 31 35 43 49 68 63
226 182 186 133 98 61 40 100 52 111 146 139 163 187 222 204 178 166 130 117 113 127 119 93 81 124 132 135 126 119 106 100 102 100 99 90 77 53 45 40 31 32 22 32 41 53 64 67 74
194 154 144 57 81 47 24 58 57 83 101 139 204 208 201 167 160 119 126 135 130 126 128 111 103 136 134 151 152 137 133 115 107 93 107 114 88 69 61 60 46 47 54 46 51 64 75 94 111
163 193 128 79 91 54 37 47 45 45 78 135 174 208 229 237 190 138 130 149 203 169 149 134 135 155 157 172 170 161 148 142 106 112 121 135 115 94 90 80 72 66 69 60 57 71 88 107 124
131 99 94 107 80 60 40 41 67 42 52 146 106 166 193 210 178 193 168 163 199 190 164 179 152 163 180 190 182 182 157 136 133 122 131 142 129 112 110 97 73 71 76 67 73 87 106 118 123
145 124 109 86 78 79 39 11 76 70 44 38 38 85 150 153 151 149 179 187 220 222 195 184 182 195 196 208 205 198 173 148 169 126 127 143 149 129 111 96 87 67 75 85 109 127 148 146 145
153 160 142 127 98 89 75 -16 79 47 94 66 43 5 32 97 100 100 131 155 203 235 240 224 210 216 227 240 243 220 184 166 175 138 133 132 147 138 117 106 92 92 103 127 153 187 189 160 136
187 163 156 137 85 110 121 29 -5 22 102 89 87 50 2 56 68 78 89 130 157 194 206 225 230 232 225 251 285 260 213 178 198 163 137 148 144 141 144 130 113 137 150 178 217 217 189 153 143
173 129 130 134 153 130 123 62 43 63 84 82 87 63 33 30 12 65 57 65 138 126 142 176 198 212 250 300 295 272 264 198 207 187 150 164 169 161 161 152 160 197 233 246 240 239 201 159 155
116 136 143 141 111 89 44 21 38 19 39 38 24 22 22 17 8 21 55 74 74 124 190 183 198 186 266 330 350 294 268 254 238 219 184 191 211 216 197 177 219 252 285 260 260 249 195 195 177
140 139 112 99 71 56 36 -4 13 9 29 63 74 65 60 74 54 48 62 66 85 112 154 183 177 155 192 268 298 345 347 283 251 269 242 244 244 264 249 219 242 292 332 311 303 271 247 213 191
112 77 93 73 67 15 20 -15 47 47 62 77 65 72 72 61 54 68 61 60 67 95 103 149 200 178 156 185 267 408 432 446 417 349 261 242 279 307 265 238 272 318 334 333 307 291 276 256 227
53 49 41 59 75 59 58 4 30 69 74 60 52 50 69 101 98 112 122 129 122 102 117 112 125 146 162 164 306 320 378 399 395 341 285 301 339 355 346 289 288 363 375 381 363 304 322 291 252
83 62 49 30 27 28 54 51 44 68 92 109 127 182 154 151 142 154 117 105 110 103 126 130 119 112 116 139 186 250 299 348 351 388 356 426 422 395 402 387 353 369 393 392 394 361 341 315 288
49 87 59 29 29 76 51 88 59 57 134 123 119 81 147 196 179 185 122 81 75 48 57 75 107 116 121 148 155 188 209 321 397 408 416 389 431 402 406 440 386 363 388 401 409 378 332 324 314
96 96 97 108 120 68 31 60 -1 61 91 45 49 103 168 187 220 203 170 123 110 97 75 78 87 78 81 100 147 173 185 254 299 359 376 404 431 448 415 455 489 435 405 424 435 392 340 343 338
96 71 75 118 112 78 41 43 11 40 47 63 95 102 126 150 111 100 127 120 91 98 107 93 89 69 64 58 51 83 153 214 259 330 382 362 363 408 490 490 529 512 463 433 418 404 388 410 380
53 66 46 14 26 38 41 28 -4 60 83 87 133 130 99 39 34 59 33 83 123 139 124 137 124 100 80 68 58 54 117 188 215 271 374 403 450 520 508 541 496 446 475 400 401 436 438 458 390
39 42 65 81 36 45 47 24 22 32 35 78 78 50 -19 -55 -28 -19 -20 9 47 122 149 162 119 90 64 43 28 54 119 190 254 326 411 443 455 492 505 505 454 433 424 403 430 467 458 470 475
79 72 72 54 45 27 40 12 18 49 17 47 46 -40 -108 -8 -41 11 62 121 123 145 213 268 212 124 89 86 79 126 185 239 274 309 375 404 420 402 399 398 372 393 413 430 466 465 445 461 429
45 35 69 53 38 84 44 26 20 14 -46 -19 -45 1 9 53 49 76 43 16 91 134 190 211 211 172 94 69 92 135 166 212 255 291 312 305 349 321 314 346 386 429 497 476 453 462 421 414 308

GFSSGP_con_3kmhel_054.txt.gz
Helicity
75 84 66 78 91 90 88 95 66 115 162 96 97 79 78 85 94 113 12 33 53 76 39 31 37 11 8 22 51 68 78 95 65 70 81 79 71 63 55 40 25 42 20 -12 10 50 74 41 33
84 78 113 84 91 88 83 54 80 109 110 146 89 81 115 99 50 55 47 23 39 99 56 53 42 16 7 30 46 44 45 49 58 57 63 70 62 54 43 48 72 44 41 56 78 87 65 29 27
101 109 114 86 58 60 62 57 97 95 140 92 111 76 83 84 50 35 25 35 84 100 65 41 27 27 21 34 51 50 46 35 65 73 60 45 51 50 50 61 82 80 55 52 54 52 43 39 37
144 162 148 108 48 54 58 77 82 188 129 119 113 122 67 31 53 37 44 84 103 93 69 33 33 50 41 49 50 46 49 48 53 72 63 47 43 40 43 56 79 79 56 40 33 33 35 30 30
236 186 154 101 35 37 59 7 44 113 161 181 165 137 85 47 50 77 114 98 98 93 74 54 57 70 48 35 42 37 42 63 62 68 64 53 49 45 43 45 48 43 34 31 25 21 21 22 28
274 217 168 113 37 25 31 48 30 62 100 162 141 132 86 42 67 72 100 125 85 78 86 73 61 60 46 30 27 32 28 47 56 65 61 53 48 49 46 39 29 20 17 14 15 20 21 18 20
235 257 168 101 49 30 29 21 55 59 89 132 111 159 106 47 54 86 108 133 104 92 109 92 80 66 52 31 31 33 37 34 12 77 61 62 44 43 47 41 37 30 27 23 20 22 24 25 30
228 223 136 114 74 48 -1 54 60 68 99 69 42 157 98 57 96 135 125 116 101 103 88 91 81 83 59 53 42 40 45 38 68 75 72 76 57 40 41 31 27 31 29 22 23 33 40 43 43
241 236 167 130 91 72 43 87 124 121 130 141 93 131 98 89 163 159 124 92 62 61 68 96 93 70 71 71 59 54 50 56 75 73 79 84 56 39 39 30 18 17 20 22 28 40 44 59 61
262 215 160 143 118 60 90 82 126 172 186 162 163 170 144 146 154 134 91 88 78 39 41 63 75 73 77 85 88 79 68 68 81 82 82 91 70 52 49 40 29 26 22 20 24 40 53 60 56
238 189 219 167 113 103 64 105 94 111 148 126 164 196 208 200 144 102 60 49 75 54 65 67 64 71 94 104 111 108 93 87 89 90 88 92 86 68 61 55 43 43 36 37 43 54 54 54 57
186 169 180 144 127 109 75 85 94 73 71 87 122 167 199 172 121 98 69 56 69 95 79 77 75 75 96 118 132 116 118 108 112 105 101 112 99 82 69 64 61 61 60 57 57 64 67 69 77
161 167 129 109 132 72 44 44 37 58 51 88 143 174 204 193 157 131 99 104 98 77 74 86 95 92 105 146 151 142 130 125 109 122 119 127 119 99 88 71 80 80 79 69 68 79 84 88 96
108 117 119 109 74 43 17 20 35 26 31 67 93 145 155 177 157 157 136 106 118 88 84 117 108 124 129 161 167 163 148 132 132 136 136 140 136 118 100 94 87 100 91 86 81 83 102 104 101
160 113 124 56 55 65 6 24 74 48 60 69 62 85 129 136 142 144 141 131 126 147 161 154 148 164 146 154 192 183 169 157 152 135 137 155 159 134 121 106 104 94 99 101 109 117 133 139 129
155 121 133 97 81 94 64 11 48 69 45 59 59 33 71 115 125 129 146 150 141 164 190 179 185 172 173 191 208 187 193 189 173 152 151 145 169 154 139 123 107 105 117 113 121 141 160 159 143
181 137 152 138 48 99 118 3 11 97 82 73 84 65 48 61 94 110 123 126 117 128 153 180 204 215 216 222 248 199 200 205 198 186 168 153 172 163 157 135 107 130 136 136 160 180 186 180 158
167 176 123 122 106 110 110 58 22 45 27 39 70 64 64 41 40 99 100 94 129 152 165 193 219 200 200 234 243 231 212 206 211 203 179 182 169 175 163 143 126 162 183 177 196 218 217 181 172
105 122 132 128 115 85 57 10 11 34 30 40 44 44 50 47 41 49 74 98 123 159 180 213 236 236 246 262 242 233 182 201 222 248 203 207 198 187 172 158 152 194 218 208 211 262 244 226 210
145 140 123 127 102 62 38 -12 11 35 56 71 70 73 58 33 21 34 60 98 119 120 142 151 175 199 230 272 266 299 236 202 230 248 227 221 256 235 201 204 205 206 229 249 278 314 303 245 201
171 113 101 93 95 31 16 -47 53 49 51 68 91 74 87 83 76 96 116 125 108 95 128 163 157 128 147 231 290 398 363 341 256 290 250 254 291 272 250 229 250 254 257 247 285 335 339 299 213
125 57 68 91 93 69 85 -4 64 79 153 137 223 231 202 159 155 147 163 177 165 155 134 137 156 171 167 171 251 263 270 294 304 291 282 298 325 306 301 286 284 307 319 293 321 370 362 302 258
47 58 62 41 30 48 80 54 78 110 160 160 202 208 188 182 178 190 180 149 149 132 110 123 123 185 176 170 200 216 213 242 275 257 276 297 303 325 328 302 305 326 349 341 342 371 349 325 294
43 107 83 59 48 85 71 72 81 99 159 136 129 164 169 169 174 179 155 137 144 113 112 117 120 91 111 140 150 156 172 213 257 282 296 331 334 347 345 341 344 354 354 376 359 365 354 330 296
108 102 99 97 119 73 63 79 54 64 86 48 46 109 145 99 97 94 134 164 173 164 149 131 141 139 107 78 91 116 138 175 209 238 256 278 292 321 323 354 345 348 353 389 414 386 358 328 312
105 74 76 106 117 87 66 81 51 50 40 29 57 71 88 94 26 28 42 44 86 102 101 117 127 136 134 117 93 74 70 125 150 192 227 271 267 275 301 359 386 431 504 429 391 388 385 348 342
74 94 68 51 72 101 57 44 31 54 34 53 111 116 76 17 -14 -16 -20 -29 21 78 115 102 132 144 171 145 102 79 74 73 102 141 200 217 269 287 309 366 460 457 444 409 376 390 413 405 396
70 43 87 96 87 99 58 55 46 90 96 71 86 33 -18 -54 -56 -22 -40 -15 44 87 123 140 188 210 225 175 117 81 54 59 85 131 173 226 268 303 313 371 419 436 429 406 433 445 427 459 458
86 76 83 58 55 48 65 43 28 70 85 19 -6 -49 -27 13 12 -12 38 27 16 36 128 167 216 234 257 248 181 117 93 89 124 163 187 221 256 253 262 277 313 353 390 393 395 443 466 507 482
45 22 54 45 37 52 39 37 31 17 -70 -20 -32 -20 11 9 -14 -10 10 2 12 85 116 140 130 125 130 138 134 102 79 82 122 149 147 172 188 195 191 221 305 358 401 391 409 461 480 474 491

GFSSGP_con_3kmhel_057.txt.gz
Helicity
82 70 59 79 82 99 106 102 82 114 148 93 107 92 118 128 109 99 23 19 54 60 59 35 48 14 -15 4 43 46 69 79 64 70 77 82 74 59 45 42 20 31 -3 -16 28 57 56 33 37
100 89 103 88 89 87 91 70 89 98 137 152 100 94 107 125 59 58 34 12 44 55 51 44 51 10 -14 29 50 61 68 56 46 59 62 59 50 42 40 17 33 29 33 49 92 82 56 35 28
138 139 114 97 80 73 74 58 96 77 130 122 136 81 119 125 59 21 11 19 27 55 50 43 48 30 24 21 37 45 34 30 36 40 42 33 35 36 56 56 51 59 68 81 92 65 42 35 33
178 187 165 117 72 76 64 64 83 139 98 119 137 153 90 28 58 18 22 35 38 64 56 47 39 32 43 25 32 40 36 37 44 52 31 24 24 28 41 60 69 65 58 47 56 50 41 29 27
256 209 149 98 69 59 59 30 90 130 151 140 120 128 124 39 28 24 35 49 55 57 50 38 38 58 58 40 28 29 14 18 40 51 47 27 24 25 31 50 69 52 31 26 24 26 26 24 21
278 236 153 91 57 41 39 53 23 54 106 142 105 100 96 32 35 27 27 45 54 49 44 49 54 59 63 49 35 27 24 29 38 49 38 30 26 23 28 27 34 29 19 20 18 19 22 16 12
227 250 151 87 54 55 38 35 52 53 81 101 97 115 128 79 27 29 48 46 62 62 53 50 50 53 59 58 52 33 28 36 28 42 41 41 33 25 22 18 14 11 12 16 19 23 19 18 19
233 215 124 103 58 41 22 44 53 29 59 62 66 129 161 113 36 44 68 68 62 50 46 49 51 55 48 40 54 40 25 24 35 50 66 65 48 31 34 28 25 24 23 24 22 24 29 25 22
233 222 150 101 95 65 45 66 84 96 97 100 96 134 136 77 64 64 75 72 64 40 37 56 59 48 50 48 42 46 39 31 26 81 86 68 38 36 38 35 30 33 27 28 29 35 46 46 42
251 206 133 138 120 87 92 76 91 111 140 132 149 136 87 66 92 87 75 66 53 37 26 27 38 47 52 53 50 48 45 42 57 80 74 57 54 50 47 47 47 48 38 39 41 49 61 45 40
234 180 169 145 128 112 84 109 98 100 110 122 158 155 110 130 117 94 65 44 30 19 37 28 29 34 44 51 63 67 69 68 73 74 81 70 69 67 63 66 57 55 51 51 54 57 47 47 44
211 187 158 146 122 119 95 116 129 86 95 87 111 148 123 116 146 122 91 61 52 36 40 36 29 39 48 60 75 71 79 78 79 71 79 86 80 79 71 67 70 69 64 67 64 60 60 62 58
173 144 151 143 121 97 69 72 85 65 77 93 102 137 150 139 135 113 90 86 68 45 54 74 63 46 51 62 73 79 78 81 73 78 84 88 80 81 76 67 75 78 81 72 75 70 70 70 83
93 124 105 110 83 92 50 45 58 69 44 56 89 109 120 137 133 140 127 86 73 60 50 72 84 76 78 89 76 85 83 78 82 88 93 87 85 88 91 81 74 80 84 85 82 79 78 81 84
124 109 106 63 71 70 9 8 37 53 63 57 61 84 123 117 133 110 118 102 79 79 76 70 83 109 120 106 108 111 100 99 91 89 84 94 96 95 97 88 93 77 87 99 107 109 102 103 100
141 153 118 96 63 75 59 -1 22 87 43 55 72 78 106 107 100 106 109 110 122 115 88 72 123 131 147 138 138 155 137 109 108 103 104 96 96 99 104 96 89 91 106 111 112 126 123 118 120
171 108 128 180 69 95 94 14 -29 96 40 76 86 94 78 97 104 93 99 96 100 116 122 123 118 123 138 127 146 152 161 140 141 134 120 115 114 106 108 103 98 111 122 122 127 140 134 140 143
176 174 135 113 99 102 87 68 70 73 14 40 63 68 54 56 75 106 103 107 111 121 131 136 163 130 140 170 167 188 169 158 128 144 139 142 135 138 127 109 103 121 131 142 153 154 159 141 162
91 135 123 106 114 100 63 34 49 57 41 42 59 78 90 88 66 74 112 131 143 162 147 145 168 186 198 230 237 207 204 185 166 154 130 147 163 159 156 141 114 122 137 167 162 203 180 198 205
127 146 140 149 129 82 77 37 57 59 54 45 54 64 64 60 64 74 78 88 91 111 148 163 167 169 222 261 269 278 241 198 174 143 152 164 174 204 190 172 156 135 155 172 206 233 263 238 222
176 138 146 140 124 58 26 -12 53 65 103 133 145 105 128 131 150 173 187 149 155 160 160 155 165 191 186 185 253 345 336 312 240 211 188 173 197 228 226 212 215 213 227 229 237 253 275 308 233
135 106 113 108 115 121 91 77 100 90 139 192 229 257 258 249 212 205 239 234 207 215 170 137 150 157 176 179 191 198 251 273 291 272 203 170 184 214 239 222 242 270 293 266 279 307 290 323 330
105 71 105 116 108 107 106 60 107 117 157 180 227 270 273 233 192 194 186 180 169 163 157 125 128 142 169 194 159 167 161 179 208 232 208 200 219 219 238 236 264 300 340 295 324 323 303 315 317
17 133 134 123 115 129 117 92 136 136 137 145 165 230 232 214 191 159 142 124 147 132 144 139 139 115 122 159 177 155 142 148 182 187 195 194 218 238 251 273 266 279 299 326 345 332 319 330 340
52 80 157 222 209 138 94 93 97 88 110 89 139 204 151 70 63 77 112 142 166 161 131 128 143 165 171 160 135 134 119 147 164 167 184 168 187 217 193 229 291 310 283 293 342 342 333 327 338
93 66 76 106 121 94 80 96 91 78 78 59 100 87 23 19 12 38 31 38 65 99 128 130 131 143 163 168 181 177 167 151 133 130 153 181 186 170 137 172 204 235 273 335 351 308 264 334 379
68 74 65 73 93 100 71 72 57 56 60 66 105 73 34 -23 -13 8 21 29 38 47 70 100 148 186 190 204 195 192 171 150 132 116 106 113 131 153 144 156 189 241 246 270 335 379 334 347 348
71 61 88 90 95 116 102 90 61 79 80 84 95 60 26 -11 14 25 25 26 38 62 57 68 115 178 225 209 184 176 172 161 130 99 91 100 111 121 120 128 190 247 272 293 310 393 365 347 409
85 81 88 76 64 99 136 100 37 25 27 25 14 -19 -35 -26 -19 4 26 46 57 49 67 88 128 143 158 172 195 202 211 197 149 135 132 122 121 120 141 136 131 186 259 303 344 357 377 415 442
49 38 40 41 42 51 55 64 45 43 10 -12 -29 -26 -38 -48 -24 -29 29 56 62 108 140 141 130 113 93 95 126 160 149 141 131 95 99 99 131 142 166 140 165 183 221 279 339 379 400 445 519

GFSSGP_con_3kmhel_060.txt.gz
Helicity
55 60 59 47 62 85 80 81 90 82 79 98 85 117 151 202 153 84 29 58 53 56 38 38 22 14 -20 -6 9 49 54 65 59 54 58 53 45 33 20 11 7 -13 -29 17 43 50 29 23 39
83 74 78 74 87 71 71 64 105 90 133 158 85 76 111 150 85 84 29 39 52 58 58 43 37 16 -14 1 37 57 54 72 56 48 39 35 28 17 1 2 6 -10 -20 50 92 60 29 26 23
100 101 77 86 70 77 91 60 88 92 117 156 129 97 138 144 71 54 29 23 54 47 32 37 41 13 9 40 44 51 53 55 59 38 29 25 20 16 14 31 45 58 87 120 80 50 35 29 27
133 143 136 81 41 44 59 95 84 89 101 123 132 130 88 61 72 41 24 24 38 43 30 64 51 24 57 52 40 26 25 22 38 37 29 14 16 27 45 56 61 67 69 74 67 43 27 21 23
187 157 86 59 41 37 50 66 81 126 150 150 153 133 119 57 42 22 17 23 24 35 50 47 48 38 36 38 25 20 11 9 40 41 20 4 7 20 34 32 41 41 40 40 35 26 23 23 16
185 163 111 60 35 30 42 68 54 110 117 127 122 118 103 47 41 34 10 15 34 54 53 57 37 40 44 37 31 23 5 17 32 44 45 13 7 13 17 17 22 16 10 11 11 12 13 11 4
195 148 78 41 41 27 38 34 43 89 105 128 101 114 98 79 55 32 14 16 30 40 43 41 44 36 49 44 36 27 5 24 48 56 40 42 24 12 14 14 10 1 -4 0 5 11 12 11 12
206 158 80 69 43 34 35 49 47 49 74 76 99 108 104 136 48 39 22 23 25 32 37 39 39 39 42 38 57 50 46 32 43 45 68 62 50 30 22 17 14 14 14 15 12 12 16 22 20
249 171 110 54 49 39 49 50 53 76 70 69 89 116 129 102 54 63 67 44 35 28 29 40 47 42 35 43 49 47 44 40 45 63 79 60 24 31 46 46 44 37 33 29 27 29 43 38 38
182 137 89 99 80 83 23 49 44 75 67 59 69 87 91 85 84 79 70 77 48 36 31 36 41 47 50 52 50 34 37 25 24 55 63 23 35 41 35 63 56 55 50 42 40 51 51 13 31
167 126 158 92 91 76 41 76 93 91 88 97 90 132 111 82 102 92 64 57 53 30 26 25 21 31 46 54 54 54 49 43 38 42 37 34 46 66 53 63 55 53 44 50 46 60 31 32 40
191 150 180 109 114 128 77 106 95 94 123 106 123 159 144 114 103 105 91 76 70 47 36 34 30 29 27 38 45 47 50 52 50 42 39 52 57 59 61 61 67 65 61 62 54 54 59 56 50
167 133 127 119 125 120 125 111 105 89 93 107 131 132 125 144 127 97 97 91 85 64 45 33 34 38 35 36 47 46 44 54 49 48 44 54 62 58 62 65 74 72 78 70 68 67 68 66 66
98 150 108 104 108 73 67 75 98 82 88 69 83 108 116 121 122 128 105 95 83 61 56 46 35 44 53 52 36 43 39 44 52 50 44 41 51 56 66 69 71 79 77 80 79 80 79 79 73
162 89 100 105 87 75 55 39 55 58 65 82 67 81 98 98 109 104 108 103 115 98 87 64 53 53 50 51 63 58 57 48 56 58 50 44 44 55 62 67 83 81 80 80 92 91 92 97 92
90 101 87 50 54 102 82 71 51 65 70 71 64 70 83 78 90 91 102 108 119 108 97 80 74 61 59 64 106 125 99 76 74 63 58 54 56 53 64 76 87 90 96 100 101 102 100 107 104
86 68 71 54 67 53 29 59 64 78 72 92 74 71 78 84 94 86 87 98 102 92 91 94 101 80 61 71 104 136 133 98 85 93 83 75 70 71 78 88 85 91 103 103 111 105 98 119 119
84 89 83 90 101 86 44 28 30 31 64 88 81 78 71 89 103 128 134 130 124 132 131 136 125 100 87 100 123 163 153 132 107 98 95 95 94 87 98 103 93 93 114 116 121 110 113 116 128
103 57 81 109 89 80 50 46 50 56 48 45 58 73 89 89 100 112 115 125 131 142 137 145 171 163 149 170 195 176 189 159 165 139 114 104 89 90 110 111 124 106 115 125 127 113 131 158 177
45 63 76 141 91 106 57 45 36 47 60 67 69 79 91 87 73 109 128 139 141 141 159 163 166 173 193 208 224 198 179 171 154 143 129 131 109 94 110 122 135 135 139 133 140 142 193 171 202
105 89 99 137 119 106 85 43 43 86 99 90 106 112 128 148 156 161 173 189 189 169 152 162 187 195 196 194 207 233 257 269 244 199 157 131 145 149 138 131 133 170 161 191 212 194 191 241 212
80 138 125 131 125 146 123 98 90 80 105 115 149 187 207 206 199 201 210 211 213 207 186 157 169 167 163 159 183 178 192 193 189 178 159 164 141 166 171 160 135 179 228 211 257 287 262 258 280
134 110 131 143 136 134 107 133 105 74 98 131 199 227 238 230 213 209 206 199 189 173 155 141 122 114 128 153 183 195 167 146 131 131 117 106 112 104 157 153 148 200 224 220 248 280 301 320 297
74 119 142 129 136 152 119 146 80 94 101 132 191 226 208 197 176 166 152 149 160 151 136 118 123 123 123 99 102 153 162 140 138 129 129 113 121 124 115 147 166 211 254 222 240 252 280 335 293
154 123 188 187 202 200 142 142 167 121 138 144 197 190 169 126 109 117 118 125 133 138 134 123 129 136 144 148 144 129 127 149 160 153 162 153 165 158 151 130 150 158 212 230 238 248 256 303 316
88 153 262 225 185 159 126 147 143 107 118 139 184 161 109 75 42 43 54 72 92 114 132 147 141 145 164 177 169 148 146 149 144 130 137 144 131 121 116 129 145 175 172 197 221 239 244 250 307
59 80 98 129 141 148 110 100 82 101 70 100 140 108 79 56 43 41 44 51 62 78 95 116 140 152 173 196 200 210 199 185 171 169 164 156 130 125 111 114 123 136 174 208 229 260 257 239 265
68 63 84 101 116 147 86 102 103 92 102 108 116 85 43 25 15 15 26 54 77 85 92 106 126 154 186 219 228 212 203 207 213 216 213 202 180 170 129 108 113 138 174 193 217 210 234 269 377
71 76 84 92 93 117 111 83 63 67 78 87 76 34 0 -4 -7 9 28 55 86 98 118 138 160 166 157 150 146 143 141 154 179 191 184 168 156 134 122 100 91 108 152 168 199 252 281 313 334
64 75 82 122 81 85 126 94 63 75 38 30 46 7 -13 -26 -13 20 41 52 67 89 115 106 88 86 94 89 76 81 106 145 166 185 188 169 158 151 143 135 129 121 136 196 235 248 267 317 383

GFSSGP_con_3kmhel_063.txt.gz
Helicity
69 55 53 50 71 61 86 65 67 51 47 90 114 93 102 120 73 73 34 89 89 71 68 42 32 13 -4 -10 7 27 38 52 51 48 42 34 18 10 12 8 2 -8 3 25 30 29 17 23 26
79 58 60 68 98 77 66 46 36 56 136 89 69 32 83 83 74 47 4 56 53 70 56 44 39 23 21 9 12 17 34 47 49 52 38 24 11 4 11 2 12 1 12 47 65 35 23 21 19
100 70 72 75 63 104 94 30 53 85 63 120 93 74 79 94 72 82 59 43 56 80 38 64 55 35 27 34 34 18 20 42 41 30 27 18 10 -14 2 17 53 54 69 88 58 39 29 25 25
90 102 105 94 73 45 62 55 118 64 80 95 157 87 76 91 85 61 27 28 46 59 44 70 62 48 42 50 41 22 26 28 46 41 20 13 17 31 54 57 65 66 79 72 57 42 31 24 25
137 93 89 36 55 61 39 61 77 73 93 111 142 81 83 83 42 31 12 12 43 54 86 66 75 56 62 61 47 24 22 15 39 35 24 10 18 43 56 45 45 45 43 40 34 24 21 22 22
208 119 72 64 35 44 34 71 42 83 79 102 106 104 81 42 53 38 14 12 37 52 61 87 82 72 71 58 43 25 14 11 33 41 26 23 17 26 47 45 35 27 23 21 18 16 18 17 13
125 108 68 70 48 38 36 33 63 60 58 79 115 121 65 84 73 63 27 25 27 51 47 58 62 58 58 52 48 29 12 11 40 52 34 41 28 23 19 28 24 20 12 6 7 12 13 13 14
173 147 65 58 66 51 28 64 51 67 97 63 108 119 65 99 76 76 53 38 30 35 25 47 47 60 51 41 37 45 24 41 47 59 69 52 44 35 26 26 21 19 18 19 17 16 15 16 13
234 164 103 54 52 50 40 35 60 82 97 56 68 164 119 92 80 98 85 62 40 40 21 37 37 43 43 47 67 70 67 62 58 59 79 51 19 27 49 43 70 43 40 35 31 29 39 35 28
186 156 83 59 52 84 48 77 47 79 56 51 52 72 89 83 98 92 90 84 66 38 34 37 49 55 52 62 59 34 41 36 30 37 50 15 29 31 31 83 78 63 58 46 39 45 48 22 37
135 128 98 95 162 176 163 45 63 60 70 62 49 58 67 80 88 90 75 65 61 41 32 33 46 54 60 65 58 47 44 36 32 34 79 8 43 69 53 66 69 63 61 54 52 65 42 38 41
173 86 207 107 144 188 123 58 77 68 110 121 215 191 100 68 76 88 78 67 56 57 52 63 50 52 52 56 55 56 54 49 46 51 44 34 66 61 43 48 48 49 79 45 58 55 51 60 57
127 130 180 194 112 81 62 77 64 83 119 157 112 114 110 121 96 77 95 77 81 77 67 62 57 66 53 45 51 47 47 51 48 63 60 64 77 61 41 49 56 56 68 60 76 69 89 72 74
102 203 136 164 89 113 90 77 103 94 96 82 88 105 104 107 122 135 99 103 92 80 86 72 70 61 56 47 45 61 56 52 45 60 75 66 70 66 65 65 107 67 67 71 84 91 99 90 93
194 188 137 105 73 65 91 82 66 94 59 68 71 80 89 103 106 113 126 119 103 82 63 50 71 66 60 54 61 67 61 53 57 55 59 57 74 82 84 78 82 96 96 67 88 99 109 113 115
146 139 102 95 93 75 46 78 -1 32 55 63 59 71 74 65 70 70 94 112 130 163 162 135 97 81 76 71 94 85 60 65 70 76 74 57 57 66 88 116 113 106 110 118 106 118 137 128 128
110 106 83 56 34 86 55 72 35 58 66 66 67 67 72 65 68 69 84 102 99 91 98 99 108 98 94 88 106 118 95 107 86 97 94 79 70 69 86 101 111 105 130 179 161 135 148 137 143
99 102 30 74 51 57 49 79 105 67 96 101 86 74 85 78 76 91 114 127 129 125 120 119 127 122 121 108 116 160 155 132 134 112 107 92 104 94 119 114 104 111 144 154 206 137 173 155 153
74 51 146 97 48 61 66 52 60 4 39 72 74 73 68 71 88 141 121 120 119 114 116 123 135 127 116 145 150 205 182 158 151 143 122 111 108 116 143 155 122 134 151 147 202 160 161 186 183
218 68 99 148 84 73 46 56 80 72 32 47 68 85 96 116 106 96 109 94 116 114 115 113 127 129 150 167 187 223 161 157 178 172 160 164 163 145 185 170 179 168 178 147 179 180 178 219 221
131 85 63 107 105 84 143 46 28 62 116 90 71 73 104 114 111 94 110 121 131 179 184 161 166 198 200 220 238 257 250 218 213 197 199 177 162 156 173 164 185 192 213 206 200 239 195 246 258
97 138 122 119 66 115 52 100 27 55 77 72 80 112 126 124 140 142 157 182 200 194 182 166 142 140 163 172 208 212 231 216 188 178 177 126 114 113 127 172 159 176 210 200 222 259 288 301 284
134 92 89 114 142 158 81 162 63 54 82 99 123 143 154 160 172 174 177 182 188 192 189 169 152 122 103 98 116 151 162 198 186 163 106 115 143 119 113 101 169 199 200 217 204 249 267 360 309
74 103 118 135 147 142 77 135 69 49 76 109 132 136 165 173 174 166 140 133 142 142 145 137 134 110 103 95 82 73 101 135 167 159 153 149 148 150 151 142 137 155 190 238 237 215 290 355 301
134 83 189 183 173 166 169 138 228 101 114 100 139 158 174 148 146 140 126 114 108 112 112 113 121 120 118 121 116 110 97 102 138 155 146 123 146 153 161 164 145 154 161 176 222 240 285 320 319
150 147 214 200 160 140 132 154 155 157 141 202 171 157 144 131 102 90 80 74 76 89 105 117 125 133 144 151 151 148 139 128 125 115 128 140 141 141 151 128 130 122 128 174 195 234 264 278 264
133 156 158 228 194 153 121 147 96 114 122 131 156 147 131 108 73 63 54 51 63 82 104 124 145 161 175 202 225 251 259 258 233 214 193 186 191 196 197 218 202 157 148 154 170 205 244 283 265
166 89 162 174 173 156 102 117 130 89 121 121 128 111 82 65 53 41 36 47 58 79 104 127 149 167 172 182 195 201 218 227 232 237 246 242 231 227 220 204 177 179 151 150 179 208 231 261 344
61 83 102 131 140 187 114 130 117 49 90 109 105 77 53 47 35 22 29 45 60 81 111 140 157 162 164 159 148 138 138 138 151 171 190 211 221 230 213 198 180 167 138 137 189 243 245 308 350
97 79 65 105 60 93 141 87 41 85 133 96 59 32 18 6 -2 -8 10 41 68 84 100 121 133 123 104 96 100 111 105 100 116 150 187 198 215 219 222 218 206 197 190 177 161 197 245 268 256

GFSSGP_con_3kmhel_066.txt.gz
Helicity
75 64 110 131 114 93 116 121 53 75 101 100 153 167 150 118 88 71 59 94 149 81 77 58 52 29 7 2 24 26 22 39 44 46 31 23 12 12 13 13 2 -1 17 24 24 18 21 27 31
71 113 92 114 142 149 110 78 67 50 109 146 103 46 115 119 13 37 34 54 83 77 62 53 46 27 12 28 24 20 17 39 44 37 22 5 1 7 11 9 6 14 39 61 27 21 18 20 22
64 99 146 116 125 148 156 6 61 125 95 42 49 55 63 80 141 65 59 40 80 62 31 54 59 45 40 39 28 5 16 34 28 20 8 -4 -9 -6 7 25 18 44 78 56 33 30 22 24 25
57 88 121 164 150 73 115 66 197 68 43 86 126 81 96 153 90 81 17 53 111 50 151 72 65 60 56 43 37 19 17 19 32 19 0 -7 -7 36 54 55 69 85 71 51 45 34 25 25 24
125 149 105 136 124 109 73 55 94 98 31 37 88 61 110 105 48 37 -6 46 93 150 108 88 86 72 67 55 50 32 32 39 39 19 11 5 27 48 50 50 61 57 52 51 41 32 26 24 19
247 167 129 140 114 89 74 37 67 125 44 78 92 80 88 42 67 37 11 34 92 115 87 91 98 87 78 78 60 44 31 11 17 31 28 17 29 44 46 45 47 44 38 34 29 24 24 20 14
198 232 112 69 40 53 66 53 56 83 109 63 90 164 97 146 119 37 14 40 60 46 56 95 112 92 82 80 67 44 23 16 28 46 46 30 34 45 50 46 40 40 36 31 28 25 20 17 15
166 125 171 142 96 67 19 59 52 86 64 57 111 196 138 88 69 110 55 67 79 86 30 44 77 79 62 59 52 45 32 31 18 55 70 44 41 45 49 52 45 42 42 38 34 31 28 26 20
131 125 74 66 152 72 52 83 136 83 97 77 44 59 99 80 91 94 78 59 86 56 54 61 63 69 60 62 64 57 54 63 65 64 63 51 26 28 46 30 68 55 50 48 48 44 46 45 34
201 156 113 50 65 98 75 67 78 130 120 129 99 57 72 48 83 123 159 113 91 64 37 63 65 23 31 58 87 80 82 75 64 66 60 12 14 27 42 75 74 74 66 58 56 61 63 46 42
196 122 81 119 57 115 86 87 123 90 90 74 67 36 50 77 81 90 98 88 120 79 54 58 72 20 15 124 31 43 78 51 36 65 58 7 32 111 107 85 71 70 71 69 67 79 56 39 30
208 65 174 153 95 146 146 177 102 100 78 85 255 278 71 64 76 79 67 73 63 61 90 85 101 109 111 120 96 55 68 46 44 63 108 46 43 120 82 91 72 64 71 54 80 84 66 45 63
103 222 127 201 196 185 192 218 209 117 75 114 158 244 178 108 57 68 75 64 72 64 73 135 118 131 104 96 72 50 78 83 41 78 123 26 75 147 97 96 86 60 98 48 83 84 71 66 99
78 150 235 159 136 205 147 130 190 124 93 47 127 147 115 97 124 86 69 97 106 113 90 105 73 86 98 81 72 69 78 89 67 68 95 83 119 142 120 69 119 82 93 69 102 82 119 174 130
165 149 244 192 66 128 130 93 73 99 142 128 54 70 93 124 100 135 124 83 99 91 69 107 113 79 64 77 98 107 87 87 98 87 90 78 105 131 141 108 126 159 119 126 103 116 129 168 173
161 155 190 143 101 96 50 97 104 97 102 84 79 100 75 60 66 71 97 128 146 187 194 121 107 85 88 89 94 74 118 109 96 106 91 111 94 113 130 152 123 149 145 106 132 133 153 181 206
146 115 134 106 123 159 65 39 73 86 65 76 73 74 76 86 91 107 113 114 111 140 175 219 197 123 72 80 127 133 95 100 118 117 120 125 149 156 153 154 155 126 193 173 135 127 179 214 236
120 117 69 94 79 117 115 59 129 99 120 90 85 81 91 86 77 79 94 164 209 162 111 108 118 122 147 151 146 194 182 154 135 97 143 147 163 183 205 178 163 174 164 239 225 185 163 221 225
60 60 87 50 71 79 76 84 82 82 52 81 93 90 97 78 70 110 193 187 196 221 213 204 207 193 165 165 202 277 232 191 187 162 53 121 172 206 222 222 214 212 214 213 273 238 187 197 261
136 99 51 127 104 68 78 76 83 105 91 58 73 102 101 123 176 191 157 115 126 150 179 172 165 171 160 171 153 191 239 250 216 176 138 106 167 214 209 254 239 227 245 254 302 290 296 247 276
133 148 91 183 181 159 162 98 77 120 131 149 134 109 136 155 173 177 110 117 163 218 208 181 183 191 210 250 230 208 241 274 253 194 140 116 133 158 228 216 227 222 216 233 254 321 335 278 336
129 148 89 141 133 127 117 111 46 78 150 115 75 63 83 125 167 184 171 126 109 138 168 192 166 150 135 162 195 208 210 272 208 174 116 99 95 79 106 173 267 247 213 205 233 233 324 331 357
180 151 224 148 123 168 100 144 77 134 126 102 101 173 171 151 133 130 140 120 114 139 161 178 184 156 152 141 122 112 125 137 166 196 172 153 129 133 155 123 122 161 219 213 218 241 240 315 356
140 243 233 144 141 139 120 118 107 142 90 99 171 142 136 139 163 141 134 142 131 132 144 149 160 133 122 112 110 99 88 80 102 143 153 141 140 136 138 177 160 141 120 139 199 226 279 287 290
154 225 201 175 168 157 158 124 118 90 100 161 149 127 144 126 163 164 155 150 122 116 119 127 128 131 119 128 130 120 107 111 109 108 149 199 154 118 105 130 158 183 156 144 146 151 168 243 297
157 144 211 177 149 160 209 144 188 209 175 152 210 214 151 164 139 136 125 116 112 105 100 109 120 137 136 142 160 184 206 196 198 211 210 192 184 196 191 184 149 138 127 133 137 145 161 205 241
179 146 118 213 176 175 154 160 196 246 300 270 166 109 132 135 111 104 100 96 92 80 81 98 130 167 178 167 184 190 180 199 208 230 238 234 236 243 263 269 239 221 160 113 120 141 148 196 206
177 122 130 162 202 164 115 89 134 137 214 177 165 128 136 129 115 99 79 68 58 60 75 110 141 169 184 190 201 197 213 215 205 208 234 233 214 224 216 218 240 232 248 263 201 182 181 193 276
213 206 150 151 168 165 107 116 96 107 175 137 131 136 108 104 95 66 58 43 50 71 100 131 162 163 175 182 180 185 195 185 179 172 175 173 191 201 215 226 236 240 221 217 211 222 213 230 266
116 135 98 152 105 139 147 117 50 73 87 142 125 102 95 86 66 54 37 40 74 92 113 126 141 139 141 130 108 101 120 133 139 119 117 138 161 163 146 154 180 202 210 205 199 202 198 201 214

GFSSGP_con_3kmhel_069.txt.gz
Helicity
29 39 63 97 164 162 186 197 179 96 172 152 97 114 123 139 114 81 49 77 117 96 44 30 43 27 17 28 31 23 18 19 19 27 30 29 17 16 14 4 0 25 35 25 18 18 24 29 35
30 49 51 102 206 214 208 140 226 76 62 111 128 125 144 163 79 47 100 79 114 129 67 40 42 38 32 22 13 6 11 37 37 33 23 13 10 9 1 8 1 27 54 32 23 22 19 22 27
30 23 83 113 159 181 188 128 61 88 84 98 99 69 136 155 51 14 94 74 87 131 73 44 50 41 43 22 13 -8 3 19 25 21 5 1 -2 1 6 6 19 70 56 34 28 26 22 22 15
52 72 102 151 209 97 110 285 129 131 126 90 76 122 137 113 71 7 121 80 59 93 77 56 62 59 53 30 16 -14 -5 22 22 11 -6 -28 8 21 26 46 67 65 48 32 32 26 20 15 11
169 91 176 194 156 71 25 88 38 94 48 82 87 148 149 113 45 46 140 101 96 87 76 70 67 70 63 41 24 16 36 29 10 12 7 13 44 33 38 51 59 61 55 50 36 26 19 11 3
236 193 166 158 176 56 57 56 67 64 51 81 93 133 126 67 62 55 109 157 115 94 76 70 74 73 72 59 50 46 48 27 8 23 30 37 39 40 38 45 50 50 48 42 36 28 21 11 1
244 222 110 135 113 90 76 41 59 93 117 94 56 161 111 141 121 64 122 151 144 104 89 81 75 68 73 86 71 58 29 5 26 25 19 31 43 53 51 48 46 48 47 43 39 34 25 16 6
208 238 96 124 138 186 99 37 38 81 94 102 64 116 101 69 101 105 106 116 88 62 63 86 98 78 106 92 77 62 43 18 19 55 40 30 40 51 67 58 54 54 52 52 49 45 38 29 17
198 154 237 119 117 -17 99 59 111 96 152 128 71 76 63 67 83 145 146 104 63 42 28 50 67 77 76 70 57 58 52 36 64 71 57 44 34 47 56 55 59 61 63 61 58 56 52 47 33
181 139 72 31 -2 65 48 51 325 142 146 126 114 92 80 85 109 153 133 134 88 59 37 22 35 58 62 61 66 60 69 70 86 79 59 33 37 37 35 41 52 60 69 66 67 71 78 67 47
162 79 96 62 39 52 91 99 120 74 124 128 41 42 71 75 93 127 133 139 103 69 59 42 26 7 60 75 93 89 103 94 83 79 61 37 48 50 71 65 61 70 60 47 53 72 72 76 71
105 81 145 67 83 29 132 76 61 105 78 68 63 75 86 53 66 64 87 97 111 87 102 63 44 28 58 84 61 57 74 59 83 64 42 31 75 101 107 101 93 88 84 65 51 58 62 69 68
143 144 70 59 93 105 102 85 136 137 77 107 202 150 41 29 34 39 50 57 57 80 88 146 141 103 87 100 52 56 63 64 48 118 50 50 125 121 116 99 95 74 80 76 73 63 51 54 76
92 120 145 176 91 130 103 160 168 191 185 91 90 161 161 50 17 77 66 79 57 57 67 86 127 170 182 131 100 88 88 60 62 126 119 53 104 132 136 129 103 87 73 72 72 76 74 69 81
144 104 157 206 142 121 145 180 181 194 226 151 116 67 115 130 101 35 58 65 86 82 65 61 68 106 142 135 125 93 90 99 102 105 99 70 99 137 156 147 138 108 103 60 88 75 90 105 96
124 153 219 215 148 130 106 63 52 75 158 159 132 103 99 97 67 78 57 57 73 113 163 135 97 86 113 139 120 110 119 149 110 106 110 110 128 149 164 156 149 137 157 147 158 143 139 157 175
204 154 177 203 108 112 133 87 95 94 102 102 106 108 110 100 89 81 87 125 161 121 133 129 158 140 100 72 99 104 112 126 129 122 104 115 120 136 161 171 168 183 165 159 171 160 179 175 195
183 184 158 197 168 122 107 92 85 130 97 84 73 84 78 65 74 73 121 149 180 225 231 215 156 108 95 99 97 102 94 95 120 124 135 156 124 155 172 178 178 214 226 182 180 179 193 192 203
114 102 87 69 103 101 71 98 101 111 87 103 102 79 102 98 104 152 167 186 205 233 262 246 231 248 200 182 173 153 129 125 115 117 110 163 173 169 172 231 222 235 240 231 205 209 200 205 235
133 138 78 97 58 88 104 96 78 58 85 90 72 66 111 144 154 183 202 232 221 185 200 216 223 226 241 239 222 222 223 189 183 166 143 134 154 156 218 201 230 265 271 273 265 279 280 255 301
126 97 102 109 205 209 114 136 120 90 91 115 115 115 126 106 143 175 190 166 160 158 167 181 186 186 187 216 239 245 221 237 233 231 191 133 117 131 165 192 210 206 282 255 282 316 312 256 332
88 68 160 171 243 186 118 79 78 83 98 156 160 143 125 131 147 141 128 106 71 99 148 188 207 169 150 145 162 180 193 199 158 153 160 143 101 72 93 131 150 171 228 248 233 267 283 338 274
86 156 162 197 178 154 127 86 43 108 145 171 160 127 108 113 115 128 96 80 112 140 163 189 210 199 200 193 161 130 130 134 158 154 150 123 100 93 88 91 110 137 174 205 190 187 244 282 278
208 231 265 235 181 128 105 116 39 134 67 174 192 159 167 148 124 123 153 140 142 161 180 188 196 190 182 174 187 183 158 137 126 130 125 160 170 154 98 75 105 108 123 144 146 144 152 187 221
240 124 303 219 209 94 91 113 63 113 111 234 202 207 163 151 167 149 161 162 146 150 149 146 167 172 149 150 164 161 160 153 153 158 159 183 202 228 284 200 131 111 116 127 135 131 135 139 182
80 314 186 182 192 118 125 95 83 86 117 189 207 160 139 159 148 141 141 138 126 110 104 115 131 148 132 131 140 134 145 138 142 151 160 181 204 207 224 258 256 205 167 133 107 113 129 143 155
143 254 177 168 147 140 157 141 129 214 260 236 199 199 174 149 135 133 129 112 97 88 90 88 109 127 130 135 142 160 172 178 177 189 177 176 187 188 197 209 223 223 213 223 217 151 123 126 132
154 210 212 202 169 139 120 121 82 135 204 248 231 189 151 140 132 122 100 83 75 73 80 105 108 120 154 180 178 169 177 188 187 188 214 213 204 200 188 190 192 196 199 215 231 218 212 198 182
165 229 156 147 123 120 116 101 72 113 202 261 193 131 127 132 125 104 88 66 63 71 86 107 123 146 172 156 151 154 152 147 138 134 138 142 140 151 160 167 175 181 171 177 188 209 219 211 208
145 162 180 149 108 109 93 98 96 101 216 214 146 144 127 128 96 74 57 57 65 74 93 114 131 148 141 123 124 125 115 113 117 117 112 109 110 114 123 135 140 143 153 169 180 181 204 217 214

GFSSGP_con_3kmhel_072.txt.gz
Helicity
28 34 43 87 199 190 196 192 230 215 179 124 73 35 69 184 141 93 86 41 93 63 31 32 33 27 21 32 36 41 46 36 30 30 36 27 20 21 14 3 29 40 26 20 17 23 35 49 59
56 27 79 107 222 229 204 238 264 207 94 52 44 68 138 175 129 90 115 41 113 70 40 26 25 25 25 8 2 10 16 19 32 44 25 19 14 15 7 -3 34 57 37 26 22 19 19 33 52
142 21 106 147 198 193 230 185 203 172 101 105 120 126 105 144 130 66 45 74 116 79 44 26 37 29 24 9 -4 -11 8 22 38 28 14 4 8 7 8 13 56 59 37 26 24 18 14 17 36
266 135 127 160 232 126 179 270 237 150 143 136 96 157 144 120 86 42 47 98 149 112 74 56 56 43 27 19 2 -0 8 -0 -12 -10 -7 -11 -2 5 12 32 67 61 38 32 25 15 8 9 22
385 259 196 178 189 39 82 259 209 127 98 122 128 173 192 192 124 95 76 76 121 119 92 73 60 49 36 25 12 13 32 -2 -30 -29 -26 23 24 23 42 54 61 56 42 42 27 17 14 5 5
295 321 257 207 134 -32 14 86 128 70 98 98 139 181 187 161 152 67 60 35 75 101 95 72 59 55 46 40 39 47 60 35 8 -9 -7 43 30 36 48 55 57 50 57 47 33 23 15 -1 -8
238 319 202 218 103 41 42 87 62 31 70 132 71 170 143 160 152 83 77 55 61 68 76 81 65 55 55 59 63 49 47 33 26 24 3 19 45 51 48 42 39 39 41 42 36 29 20 9 -2
253 250 128 172 126 78 67 91 40 58 102 124 133 127 128 134 151 140 127 84 89 78 71 60 53 47 68 68 75 56 50 30 35 27 40 49 45 43 41 35 21 22 30 37 40 36 26 20 13
273 152 112 129 160 113 125 108 127 86 144 156 156 114 97 132 137 151 148 133 105 69 64 69 65 67 91 88 66 65 58 38 38 45 37 47 41 45 48 34 31 30 27 29 36 36 28 16 7
212 228 167 131 155 24 104 243 278 195 186 229 206 203 133 170 184 144 128 121 88 43 10 26 54 76 106 85 72 62 54 52 53 55 53 49 47 50 49 42 45 43 46 41 35 38 42 33 11
138 54 81 74 170 72 49 90 231 329 118 128 92 101 109 137 167 152 132 119 42 6 19 -9 33 69 100 93 79 71 66 76 71 80 71 64 56 50 39 38 39 47 52 51 54 55 50 44 36
154 126 50 36 -29 40 -39 151 393 278 108 68 62 62 88 68 114 117 106 102 84 40 12 13 14 49 58 75 61 55 85 91 84 70 76 88 82 71 46 48 63 72 75 68 63 68 78 70 50
204 74 83 115 13 -103 -99 76 308 446 82 57 123 109 100 67 66 85 84 87 99 79 29 32 45 53 53 69 64 73 75 79 68 67 59 86 86 86 89 63 78 83 87 80 77 76 79 80 71
131 138 174 142 113 46 -72 13 237 169 108 100 109 128 93 75 66 91 80 80 71 97 98 89 83 77 81 72 74 67 69 50 94 61 44 83 103 111 119 95 76 76 89 81 79 78 74 72 90
133 99 119 98 69 55 55 -13 62 39 122 143 113 102 99 75 48 28 37 64 69 65 90 89 104 130 140 108 77 81 63 63 105 104 65 81 129 138 146 134 112 95 104 97 86 69 84 78 89
140 143 104 82 86 98 74 50 2 29 104 158 165 142 147 121 58 24 21 45 62 66 79 61 115 153 163 171 151 141 134 108 83 110 103 90 121 155 164 179 155 139 147 139 128 95 85 91 100
164 146 123 126 99 133 98 56 69 54 45 119 130 115 137 134 121 72 70 84 84 91 99 101 126 129 120 149 162 149 138 140 123 127 126 100 111 142 162 173 177 190 183 178 173 155 168 159 149
197 187 187 183 145 128 71 75 119 164 76 38 101 97 110 117 96 103 110 131 172 189 175 152 125 116 116 139 150 145 130 107 118 128 129 123 127 127 158 183 187 214 230 209 236 208 209 200 187
139 153 95 126 124 142 95 74 84 79 140 121 97 100 85 93 95 135 195 227 188 248 243 243 208 196 140 142 146 146 135 123 116 122 139 145 156 165 162 158 153 216 237 223 229 248 217 190 228
89 104 89 94 88 100 91 86 103 87 86 99 103 99 93 114 131 199 218 236 239 208 227 217 202 217 224 193 182 184 156 126 139 142 148 154 153 169 180 176 174 196 219 220 224 266 267 228 286
132 100 84 88 116 82 87 104 124 107 103 81 79 94 105 89 125 177 187 187 178 181 178 179 179 164 164 201 219 225 211 202 190 162 135 126 136 152 171 175 182 169 206 220 232 274 293 220 269
121 69 77 106 96 90 115 53 95 117 99 76 83 104 138 159 187 182 167 171 160 159 157 160 162 178 190 195 203 207 186 169 157 165 174 163 150 139 133 130 143 156 186 179 192 241 251 224 201
68 95 95 107 130 115 149 112 -6 127 139 72 70 133 158 170 192 165 136 119 121 137 159 184 212 226 227 208 184 173 188 181 167 161 162 166 159 148 132 121 129 154 161 158 170 194 182 205 198
89 115 158 152 204 162 120 119 11 95 102 114 140 179 187 206 200 191 151 136 158 182 204 216 215 216 213 197 192 176 174 178 184 177 165 184 202 239 222 160 122 110 131 134 154 149 159 161 166
127 158 162 142 149 121 122 132 126 64 59 88 184 208 237 233 214 167 147 162 173 189 193 180 173 169 160 146 152 152 144 149 155 159 158 172 193 196 242 242 215 171 144 124 133 152 141 132 157
133 160 164 134 148 135 213 127 109 29 34 95 175 223 251 221 186 166 161 163 163 156 148 136 133 134 134 122 129 134 136 122 131 149 151 166 175 182 204 207 200 204 210 213 206 181 167 154 135
141 138 143 169 163 116 109 150 146 50 45 129 173 244 232 200 175 151 137 129 119 110 110 101 104 121 122 114 121 134 138 146 145 163 166 165 184 181 193 201 207 216 209 197 191 183 167 169 157
119 178 223 234 124 113 93 69 81 56 80 131 187 208 198 172 157 131 116 102 92 80 76 85 93 98 103 119 125 137 157 169 168 167 179 179 186 195 193 196 196 192 183 165 152 155 181 194 199
128 149 263 248 228 190 116 30 23 56 99 161 209 200 168 138 113 101 97 86 78 79 80 86 98 101 116 128 132 142 151 150 149 151 153 146 136 139 139 146 151 149 155 164 161 172 193 214 225
98 76 154 181 210 209 142 34 40 3 103 195 213 175 133 114 105 96 85 83 78 65 63 72 90 105 110 120 133 138 132 130 128 124 120 113 111 111 108 107 120 133 134 140 146 177 195 174 196

GFSSGP_con_3kmhel_075.txt.gz
Helicity
126 74 55 135 203 188 188 162 140 186 112 59 86 96 68 127 145 121 68 39 53 27 4 11 24 13 6 22 46 49 51 45 41 50 44 34 28 24 16 22 34 23 17 15 19 33 50 70 84
148 84 111 168 197 188 191 157 177 175 171 112 121 142 155 138 122 82 141 33 79 41 24 14 22 9 10 10 21 30 38 36 32 40 26 25 19 12 4 28 44 30 24 19 17 19 39 58 71
186 151 172 219 175 165 190 162 234 220 152 138 135 160 144 173 149 86 113 57 88 65 45 14 27 15 12 6 2 -7 1 29 41 30 23 15 7 4 -0 36 50 35 22 13 8 9 30 52 50
245 212 130 209 178 161 192 217 275 284 143 102 91 145 162 149 84 56 67 69 112 85 62 29 45 21 8 -0 -10 -14 3 -17 -16 2 8 5 -8 -2 3 53 51 38 20 8 -0 4 20 30 25
265 245 224 185 189 100 132 191 216 287 213 132 123 94 170 165 87 85 86 91 113 93 65 72 59 37 15 10 13 20 15 -25 -63 -57 -28 -24 -16 -3 21 44 43 23 18 10 -1 -3 9 10 7
292 236 237 189 211 75 37 117 139 184 137 107 130 170 164 162 146 56 61 84 108 111 110 76 67 50 31 27 27 23 22 -1 -30 -57 -62 -15 -15 24 25 25 20 10 13 10 2 -2 2 10 8
256 257 173 129 185 64 -34 111 153 189 166 110 74 195 165 166 120 79 61 78 95 119 121 96 77 54 44 51 53 38 34 14 5 3 30 11 -12 9 28 36 24 14 9 8 5 1 -4 8 16
220 186 161 140 122 67 -13 108 82 113 186 115 129 99 124 127 104 143 119 110 100 109 97 67 78 73 65 58 60 48 43 30 24 27 49 54 42 27 34 39 42 33 15 -1 -4 1 9 13 20
274 236 163 105 168 37 59 53 136 250 145 115 134 116 123 129 172 162 142 132 92 82 67 67 72 78 72 69 59 57 54 41 33 36 45 66 46 33 33 34 41 41 36 30 23 3 -5 6 11
197 226 165 170 130 69 77 60 155 233 345 148 128 221 212 132 148 100 97 107 79 61 51 62 67 73 73 82 82 74 58 55 46 40 42 53 50 51 44 43 50 49 42 32 24 24 34 36 19
242 113 123 174 97 163 -33 47 111 256 338 146 89 110 154 150 117 105 60 56 53 16 41 32 46 75 102 95 86 82 71 72 71 63 64 60 58 50 48 48 51 52 47 46 36 36 44 39 47
195 151 169 224 126 127 -45 -65 156 244 309 239 145 104 133 99 112 105 85 73 72 48 1 -6 15 52 77 95 89 74 75 72 71 67 75 85 72 57 49 49 43 50 58 57 54 56 54 47 49
201 95 81 136 170 139 16 -48 98 298 414 276 69 89 102 113 112 92 100 91 79 42 17 11 37 35 54 69 69 59 55 77 68 76 82 91 77 62 60 52 55 58 70 72 67 68 68 62 57
146 97 69 -30 -2 21 50 -50 -36 190 315 262 89 81 82 73 103 114 81 91 81 31 27 37 36 36 56 51 53 52 72 75 71 72 80 81 83 75 75 69 67 62 74 75 79 83 80 72 76
139 125 62 -6 67 23 -14 9 -15 196 405 392 114 81 122 97 85 69 66 81 75 67 38 55 56 58 71 66 66 79 81 85 69 49 74 91 100 101 101 98 90 77 87 80 81 71 75 69 74
145 170 81 24 74 49 8 107 -16 212 542 376 116 106 121 124 94 94 72 64 60 98 70 65 83 92 95 89 89 97 98 98 89 76 70 99 114 129 131 124 118 115 124 121 112 113 107 98 102
200 137 112 79 32 88 30 17 -85 -0 279 217 86 72 62 106 145 102 87 76 64 66 90 98 118 126 118 126 132 131 115 110 100 115 106 93 123 135 152 154 147 164 159 168 154 149 164 142 136
224 190 150 96 68 86 92 92 62 75 -5 -57 3 50 74 103 81 110 85 96 93 84 82 85 120 137 126 135 147 154 154 131 119 114 108 103 116 141 153 160 155 180 195 193 207 192 209 204 178
135 143 108 124 91 103 81 69 55 35 63 -26 18 73 73 78 141 146 150 162 185 219 185 170 141 136 140 161 155 141 134 133 126 122 121 118 125 132 167 174 174 192 204 187 204 229 214 203 236
109 100 99 107 104 95 59 34 36 33 7 32 42 62 90 130 119 161 194 216 220 213 226 224 201 188 175 150 145 145 148 145 130 123 125 138 158 165 167 164 164 183 206 213 228 267 252 244 274
120 100 74 96 99 71 67 36 16 6 25 18 77 104 122 113 118 140 185 214 214 196 186 185 193 196 185 188 194 207 199 182 163 143 135 139 148 159 169 168 165 171 199 196 203 236 244 205 224
107 93 93 78 103 97 72 3 24 57 11 21 29 87 100 126 185 186 172 198 189 179 170 160 154 165 187 196 182 178 186 179 174 179 176 164 163 143 149 162 176 179 191 185 176 192 196 220 170
95 106 82 78 89 42 97 71 7 87 85 41 52 95 122 118 153 150 149 167 187 178 171 164 166 175 168 175 181 195 202 199 183 177 178 181 195 203 188 159 152 150 156 156 144 142 150 180 176
77 110 150 125 76 46 79 71 -66 121 77 100 108 88 141 183 183 205 219 197 202 206 201 186 170 182 181 168 166 157 164 168 170 171 161 173 192 211 226 202 167 141 121 116 116 112 116 123 123
94 110 112 118 115 41 55 85 91 39 76 71 99 83 133 236 290 238 222 177 160 158 168 167 173 187 179 165 159 153 153 160 160 152 142 153 150 150 186 195 211 200 197 181 153 142 147 150 147
131 83 123 109 59 53 134 54 58 37 49 59 78 117 152 246 287 237 179 155 138 141 153 160 161 163 160 144 142 130 124 119 129 144 140 149 153 161 181 195 212 230 237 234 239 238 241 224 218
141 124 124 137 120 92 88 78 46 88 93 69 61 140 127 205 240 221 185 144 133 143 144 130 128 133 132 120 119 133 132 133 131 148 155 156 175 179 195 204 210 216 216 220 219 210 213 213 197
164 172 150 162 98 88 69 28 57 37 18 105 128 139 167 196 233 193 156 135 133 113 106 112 110 104 105 113 112 116 126 133 139 151 167 175 186 197 201 207 210 209 198 185 178 174 171 160 152
157 125 135 144 176 99 19 43 57 9 -0 46 130 195 196 158 132 126 123 129 116 96 82 78 78 77 91 97 100 110 123 136 147 153 158 159 155 160 159 154 150 151 148 140 140 152 149 152 144
93 120 176 204 202 282 160 71 111 19 -16 60 126 147 128 103 115 118 115 116 102 78 68 63 64 73 84 96 107 119 134 142 149 151 147 136 126 122 127 129 129 126 133 142 139 147 156 165 170

GFSSGP_con_3kmhel_078.txt.gz
Helicity
142 173 133 163 171 168 177 157 119 141 66 72 89 83 65 93 107 95 50 30 13 8 -31 -25 2 -0 2 22 32 37 40 41 51 48 31 29 24 18 13 17 11 4 5 9 20 34 47 58 62
116 160 174 178 184 178 189 154 142 143 173 111 121 138 113 110 120 77 109 20 36 14 -11 -18 -6 -0 3 2 -1 12 18 24 22 15 9 9 5 -1 -4 19 12 10 4 1 5 18 29 39 32
111 130 167 186 191 150 162 151 173 210 242 122 162 156 130 113 126 64 92 47 68 40 12 -9 3 7 11 2 -16 -28 -28 -9 6 2 1 -2 -4 -9 -0 29 17 9 3 -2 -0 10 17 11 1
141 181 154 190 193 184 148 185 241 260 247 149 161 154 150 134 61 118 90 88 87 52 37 8 22 16 13 3 -23 -45 -30 -51 -40 -23 -12 -15 -11 -15 -8 23 13 4 -4 -7 -4 2 -2 -12 -22
220 192 195 182 181 170 138 168 191 252 277 213 165 155 162 123 114 104 73 76 82 65 57 42 31 23 18 6 -8 11 -11 -34 -53 -61 -46 -45 -28 -20 11 17 2 -4 -8 -8 -5 1 -3 -11 -22
294 222 209 150 165 137 93 127 140 205 211 224 137 150 138 126 97 74 78 93 84 79 74 72 56 41 33 23 39 16 -4 -12 -37 -35 -55 -60 -44 -24 19 9 -12 -23 -22 -20 -14 -5 2 -0 -6
273 219 201 169 144 193 78 123 103 163 243 218 105 178 137 138 125 102 119 124 132 112 95 112 94 65 52 53 42 26 10 -4 -24 -34 10 6 -3 -24 8 12 -0 -5 -15 -22 -24 -11 -6 -4 -3
268 248 174 154 130 136 104 80 121 66 217 216 87 173 121 119 161 161 133 125 123 138 99 96 104 88 78 58 50 39 24 16 15 27 31 31 32 30 34 31 30 26 21 16 21 19 5 -11 -21
289 279 181 168 165 122 89 67 165 124 175 194 133 88 77 159 186 196 157 112 100 111 107 86 103 92 83 70 51 48 37 27 36 47 51 48 38 36 35 33 22 23 22 24 26 29 28 34 41
245 200 202 166 178 165 75 13 157 189 305 214 217 185 116 136 132 116 106 109 85 77 75 95 100 100 88 79 67 56 52 48 48 50 53 57 54 50 45 38 32 32 32 33 33 40 42 43 44
234 178 259 295 127 91 62 -31 65 153 251 214 351 303 148 69 93 92 65 43 33 47 70 76 89 105 94 76 69 71 69 75 66 67 65 59 57 54 53 46 41 38 35 41 40 47 54 51 50
194 167 256 202 159 76 99 -24 46 118 232 274 276 235 95 32 57 61 34 27 69 54 47 52 73 94 83 89 87 77 77 79 75 68 75 72 61 56 49 46 42 41 43 44 50 54 49 48 51
197 155 171 173 134 72 94 5 -99 121 153 208 273 230 69 56 57 67 53 81 77 68 49 32 46 56 70 68 71 73 70 64 67 72 70 73 65 59 49 41 43 44 49 53 58 60 53 46 47
142 166 139 175 153 166 35 64 -65 -48 14 242 339 281 102 77 75 81 75 83 87 63 48 36 27 46 58 59 55 58 65 63 67 66 67 76 71 59 58 50 48 47 62 63 66 65 61 54 57
164 185 199 146 115 99 112 75 5 -143 12 216 361 287 124 50 55 52 68 83 84 62 49 41 35 53 53 54 52 53 58 70 68 63 69 75 77 70 74 72 63 62 74 71 71 65 70 67 71
169 184 150 145 60 71 21 32 21 -166 130 318 337 294 123 53 25 56 49 70 65 66 56 49 47 59 62 65 65 72 74 87 83 78 88 84 86 91 95 97 83 86 96 97 94 98 89 88 98
197 167 160 120 50 57 23 -1 34 -309 142 283 416 255 157 94 87 61 76 73 66 59 55 54 70 82 80 83 98 101 93 102 94 90 94 99 111 114 128 126 119 113 115 122 131 127 147 139 141
195 215 174 143 51 47 15 73 -27 -65 121 319 414 236 162 79 84 109 94 94 108 93 75 76 99 94 96 104 99 96 94 95 105 101 99 104 121 131 137 141 141 152 147 138 156 159 180 174 155
174 179 142 99 54 61 -6 50 -22 -53 -27 314 448 336 259 116 60 85 100 113 117 129 122 111 96 110 130 141 132 117 121 124 114 109 98 94 105 132 144 144 143 159 164 156 179 194 180 168 208
140 157 134 111 61 52 32 33 32 44 36 -8 220 307 128 64 46 82 94 134 158 143 148 144 142 141 137 140 140 135 117 124 138 122 99 103 110 118 128 137 141 156 172 160 169 209 213 208 228
159 121 133 100 103 101 62 45 58 42 106 105 79 21 19 29 63 91 118 130 154 168 171 178 179 163 152 149 150 152 150 149 137 131 124 126 115 117 127 138 154 164 182 169 169 198 199 187 184
155 113 80 104 139 95 79 52 29 23 5 71 9 -9 11 57 68 146 172 207 218 226 225 206 192 185 180 170 145 139 134 132 154 167 175 187 198 176 155 137 142 155 181 168 162 179 179 195 160
105 113 99 98 102 106 101 29 -9 50 -6 -70 -17 -10 -1 63 107 128 147 163 201 200 197 198 196 195 183 172 157 146 151 168 174 176 179 184 194 208 211 184 155 149 169 167 158 163 158 163 161
82 136 144 112 98 18 21 39 -45 66 47 58 74 66 59 101 138 184 195 206 220 212 191 168 163 168 173 170 174 163 162 175 185 193 188 187 186 196 210 198 184 173 154 148 143 138 142 147 153
115 141 146 113 86 13 52 47 42 21 72 62 73 78 89 136 220 287 281 237 228 217 199 166 148 153 158 166 177 177 171 173 169 170 175 186 178 172 187 185 187 180 187 190 177 166 162 157 164
118 98 152 120 69 17 75 -49 -11 9 8 15 43 42 71 113 216 279 287 271 231 209 198 176 153 149 162 168 172 172 164 146 145 146 140 150 149 154 166 173 180 194 208 208 220 226 232 225 226
123 129 114 136 94 56 46 33 8 13 35 68 52 53 66 115 155 239 308 279 249 210 172 150 154 169 164 151 141 149 148 145 132 130 122 121 133 141 162 174 186 201 214 222 225 224 234 236 221
138 153 165 167 72 37 -16 -20 50 42 60 8 28 64 81 137 177 226 253 240 205 161 153 157 158 142 123 117 112 112 114 117 117 120 126 131 140 154 166 185 202 213 219 220 218 210 201 194 189
202 179 197 182 154 61 -15 27 -5 2 54 6 -7 46 105 160 176 177 175 158 138 136 129 130 123 107 105 102 102 108 112 111 113 116 126 133 141 157 164 167 170 176 175 171 165 165 155 168 168
125 130 142 152 102 128 113 96 59 17 -36 -11 -9 51 114 123 120 135 127 126 122 114 105 97 90 85 75 75 83 95 105 117 126 129 136 142 148 148 145 143 146 149 148 149 151 158 170 165 168

GFSSGP_con_3kmhel_081.txt.gz
Helicity
156 152 136 163 146 157 155 162 153 127 103 118 139 112 78 100 91 93 44 30 -3 14 -50 -43 -24 4 16 24 30 31 34 20 18 12 3 -3 -16 -7 -5 -8 -7 -8 -8 -0 17 23 30 27 23
136 149 165 157 166 172 160 152 150 136 129 140 120 114 102 90 97 73 65 18 4 11 -49 -57 -33 -20 -3 8 14 16 6 -1 -7 -10 -13 -25 -33 -19 -4 -6 -9 -13 -13 -17 -1 9 10 10 3
126 138 179 174 169 154 145 145 157 181 177 100 133 116 111 92 92 51 87 26 21 14 -31 -48 -37 -19 -7 -19 -22 -29 -27 -17 -28 -31 -33 -35 -35 -30 3 -1 -5 -13 -18 -18 -14 -6 -8 -9 -12
192 189 202 194 178 180 160 171 200 221 168 152 164 148 117 96 62 102 81 51 40 22 -7 -25 -3 -2 -11 -24 -40 -53 -56 -53 -61 -50 -49 -43 -33 -26 6 -0 -1 -8 -13 -15 -11 -15 -15 -20 -24
197 204 267 212 185 198 165 178 204 209 226 215 189 166 151 149 121 88 90 68 54 38 16 -10 13 21 2 -20 -42 -28 -25 -47 -64 -60 -68 -45 -41 -41 1 -18 -20 -21 -21 -15 -11 -10 -14 -16 -19
299 281 266 187 195 193 150 134 157 202 219 240 210 193 158 104 77 108 90 69 64 59 30 27 28 32 21 2 -6 -17 -22 -38 -44 -51 -65 -45 -54 -15 -3 -16 -27 -28 -31 -32 -24 -19 -24 -23 -18
270 253 203 146 151 179 133 81 131 202 204 245 225 222 139 79 77 113 113 85 79 63 47 45 34 43 45 45 11 -8 -19 -22 -26 -42 -42 -1 -3 -6 -4 -2 -6 -3 -8 -1 7 6 -4 -17 -14
230 244 169 151 142 140 125 87 81 171 186 212 187 273 199 78 71 109 107 97 93 92 65 67 65 55 58 52 34 8 3 4 6 5 23 29 25 19 23 5 1 3 2 5 6 11 21 26 24
313 177 114 98 99 137 128 101 96 110 165 168 160 201 169 54 99 117 138 115 116 107 91 88 82 60 71 67 50 38 29 24 43 46 53 45 32 30 30 20 20 18 19 22 18 20 28 45 38
251 187 100 124 131 150 131 113 123 125 166 229 213 247 208 85 66 99 108 131 126 115 116 102 93 72 86 89 70 62 55 40 37 47 56 52 46 35 32 33 29 26 27 27 25 27 38 49 42
198 143 142 289 216 163 128 96 111 129 187 210 291 303 270 165 81 60 58 82 96 108 131 130 102 85 87 86 83 83 76 65 57 55 56 56 55 50 47 44 38 34 36 31 29 34 38 45 52
159 196 199 192 255 209 145 115 103 130 110 182 213 150 175 130 79 51 53 24 49 73 73 91 94 86 78 90 79 78 85 75 70 67 66 63 58 54 52 50 44 39 39 36 37 40 42 47 52
198 139 174 172 158 159 81 92 77 103 79 106 229 157 225 146 76 48 68 55 51 65 76 86 89 66 75 82 85 80 74 72 70 70 60 60 57 55 54 45 45 42 45 45 47 45 42 45 46
182 138 112 118 120 112 97 80 -33 20 96 140 212 234 286 214 98 71 37 48 38 55 63 59 46 42 60 65 63 60 59 60 52 46 41 42 47 48 48 43 43 42 47 48 49 48 43 44 48
131 192 190 185 129 57 23 53 10 -38 24 48 173 191 280 269 125 54 39 35 45 44 33 25 18 18 25 35 46 52 51 49 50 50 43 44 47 46 44 45 45 50 52 49 53 54 56 60 64
147 175 129 152 130 141 102 14 36 -41 -88 -0 141 206 262 252 123 83 53 53 50 58 45 29 30 24 28 37 49 52 50 48 50 52 52 48 49 51 50 50 52 60 65 67 69 77 76 80 83
198 145 159 160 127 111 136 12 72 52 -54 -82 97 207 235 232 197 110 54 41 55 61 55 45 43 38 38 44 53 57 55 52 54 58 62 54 51 53 64 67 67 76 83 87 89 89 96 96 97
218 173 168 134 93 111 91 80 129 25 -24 30 111 136 212 253 265 108 74 58 56 63 68 65 62 51 52 68 71 60 51 51 57 56 58 61 64 61 74 77 76 89 97 99 103 100 108 108 106
181 157 117 109 92 127 78 83 99 13 12 27 145 128 222 280 249 87 68 70 81 73 66 58 75 74 87 103 95 82 76 79 73 79 72 77 76 69 72 79 83 98 99 92 106 127 119 127 135
178 144 110 104 58 66 104 74 88 38 25 -47 93 243 218 249 243 159 81 86 79 79 72 78 72 83 89 108 121 121 107 99 100 98 89 85 82 92 94 91 99 109 113 108 124 144 168 153 155
178 134 125 79 93 107 92 100 73 62 58 40 53 244 241 196 214 192 80 73 94 85 90 101 117 125 129 121 135 132 125 113 105 104 110 123 114 99 91 96 111 113 131 134 135 145 152 154 157
132 108 100 99 110 97 130 120 40 69 57 35 98 107 119 109 133 135 82 78 94 118 134 141 156 162 163 150 143 135 129 117 127 136 146 163 188 188 182 155 132 124 142 141 135 157 152 174 146
122 99 78 100 115 119 129 85 -1 68 14 47 87 46 -11 52 89 120 92 89 132 172 177 189 196 204 185 161 139 126 124 130 133 141 156 181 200 217 218 204 178 150 157 151 149 161 159 164 150
61 141 147 115 106 51 90 110 -39 26 53 74 72 99 48 54 55 66 89 125 171 223 210 203 203 213 194 170 162 144 134 134 139 164 173 184 186 195 212 199 191 185 174 150 141 141 153 163 154
118 138 120 112 98 10 72 93 41 -1 43 70 54 53 80 69 82 151 205 174 171 176 183 174 166 177 177 172 180 179 174 176 172 173 174 181 178 174 181 173 171 162 164 161 150 146 164 172 171
101 113 130 89 65 55 112 -12 -5 11 -2 30 9 46 77 77 94 155 244 261 232 225 204 209 202 193 183 174 179 184 183 173 172 175 165 164 161 156 161 159 162 167 173 175 186 205 232 239 248
89 91 96 90 84 58 55 64 27 -9 16 31 43 50 40 45 71 106 213 277 300 301 264 219 183 175 162 162 168 187 188 177 164 160 149 146 152 155 164 169 170 179 186 200 209 222 247 254 248
93 133 118 132 54 26 41 29 44 3 23 65 78 57 18 42 102 144 224 290 313 287 248 208 171 144 140 157 168 164 154 145 135 131 135 134 134 139 145 156 167 183 199 215 216 222 227 219 220
155 143 153 132 122 54 14 26 -7 23 92 151 95 16 7 43 120 185 225 230 230 213 184 163 147 137 137 132 131 125 125 126 131 131 130 128 126 126 132 144 162 182 193 193 194 198 194 194 186
119 105 126 130 69 116 86 49 59 30 -1 -8 -22 7 10 36 102 151 155 159 154 143 131 112 108 108 108 107 104 107 110 108 118 126 135 135 136 141 141 146 160 170 177 182 178 179 171 164 172

GFSSGP_con_3kmhel_084.txt.gz
Helicity
161 158 133 133 149 156 156 126 162 109 110 116 147 162 109 138 76 90 24 14 20 7 -8 -19 5 6 13 17 23 22 14 3 -8 -18 -20 -29 -9 -8 -13 -14 -15 -8 -5 5 12 20 13 15 14
147 162 149 147 198 158 125 115 127 137 140 112 109 116 110 92 81 35 44 1 -2 -8 -29 -36 -22 -7 -3 20 18 12 -2 -14 -26 -34 -46 -43 -9 -12 -17 -18 -16 -12 -6 -3 6 6 2 1 -4
144 185 179 166 172 165 133 119 124 141 145 113 95 118 133 103 93 35 73 12 -0 -11 -37 -31 -37 -25 -17 -8 -3 -24 -36 -28 -35 -45 -64 -52 -33 -10 -13 -14 -16 -16 -15 -16 -8 -9 -10 -15 -18
159 174 171 192 157 170 186 138 176 126 129 141 143 89 78 82 78 81 73 26 -3 -11 -27 -17 -28 -18 -28 -34 -48 -69 -62 -37 -55 -63 -64 -64 -55 -8 -17 -19 -17 -22 -20 -15 -13 -15 -18 -18 -18
172 207 179 180 161 131 134 165 215 161 136 160 184 119 108 97 84 92 92 41 18 -0 -4 -24 -7 -2 -14 -35 -48 -77 -53 -70 -86 -70 -66 -61 -60 -2 -11 -24 -28 -26 -31 -25 -19 -18 -20 -18 -11
226 255 201 155 130 153 163 152 182 205 163 155 149 160 130 112 100 91 82 71 47 26 6 -1 2 8 4 -19 -37 -35 -37 -71 -84 -82 -81 -70 -53 -6 -5 -30 -40 -38 -36 -21 -17 -22 -25 -24 -17
223 239 168 143 133 161 173 133 159 190 157 169 175 201 171 125 117 105 96 67 60 35 26 8 -2 6 21 15 1 -10 -24 -42 -55 -59 -50 -45 1 5 5 -11 -14 -7 -10 -9 -7 -7 -3 -5 -2
197 241 151 185 113 143 138 132 130 191 179 169 200 236 222 164 87 120 119 111 80 59 36 32 26 5 7 12 17 9 3 -9 -21 -29 2 15 11 12 19 6 3 6 3 8 11 9 14 14 13
232 207 138 119 148 134 108 118 109 122 137 163 172 173 193 165 64 75 111 128 108 82 76 50 54 36 23 26 37 30 29 27 39 33 38 15 15 17 18 42 29 26 24 24 23 28 34 34 32
221 187 96 111 160 176 73 98 94 93 114 151 191 188 140 135 96 84 97 126 121 91 101 89 68 65 55 56 43 36 42 29 25 22 22 29 33 34 30 43 38 41 41 38 33 34 43 27 27
151 137 130 116 155 139 63 70 104 54 143 177 205 237 160 180 142 103 69 81 104 105 118 124 112 82 76 71 68 63 55 57 49 43 44 50 46 45 36 43 41 40 45 37 37 43 32 36 32
137 134 126 87 138 88 42 74 89 132 112 74 99 173 173 162 139 128 75 54 50 72 87 99 98 101 90 91 76 75 69 66 66 60 63 67 63 58 51 48 50 46 46 46 42 42 44 43 41
149 107 133 135 150 135 64 112 82 99 98 83 72 112 182 197 120 133 111 75 57 44 58 86 96 93 92 92 87 95 86 71 75 75 69 75 77 70 62 57 55 51 52 47 48 46 49 47 47
113 73 128 140 143 124 106 80 100 97 95 101 106 102 137 194 203 122 108 88 89 59 55 70 79 86 77 88 81 89 91 85 81 75 69 58 63 62 63 56 51 51 53 51 49 52 53 52 50
96 125 99 121 112 88 97 70 74 66 99 107 112 89 112 198 227 182 100 87 88 61 56 58 62 68 64 74 87 90 87 84 80 65 49 47 50 55 56 57 59 57 58 52 55 58 58 60 61
76 80 82 74 79 67 68 102 53 27 78 133 99 82 100 164 207 191 138 90 81 56 37 38 43 36 43 60 69 76 74 68 66 64 57 45 47 51 55 57 59 62 63 64 65 69 70 72 73
102 79 71 48 100 86 49 71 91 66 81 66 107 79 97 140 197 183 171 112 88 42 42 34 35 29 25 33 49 52 56 60 62 55 49 45 49 52 52 59 67 72 72 73 74 76 80 84 86
112 91 66 59 73 73 58 60 55 52 112 131 81 84 116 127 170 176 173 122 92 55 42 47 52 37 39 54 55 59 58 55 54 51 52 56 61 58 60 65 68 79 86 81 86 82 84 85 98
85 58 64 88 86 73 63 73 80 97 114 189 190 137 84 126 164 151 176 126 75 84 62 64 57 48 62 58 60 58 58 58 64 65 67 74 75 75 80 82 77 82 86 83 88 94 103 112 113
124 82 61 75 66 68 95 88 86 100 116 146 184 118 114 112 156 188 203 137 93 75 75 66 81 52 74 77 70 83 83 79 83 95 86 82 84 87 90 84 85 86 97 94 103 118 137 143 160
103 54 53 82 56 51 123 117 100 90 85 107 132 140 125 122 162 201 218 174 128 91 79 73 75 86 90 99 104 102 110 104 103 99 108 112 115 108 100 92 97 102 115 124 120 131 136 153 157
70 108 84 57 26 63 68 108 97 50 38 46 79 117 125 143 147 204 201 151 110 90 81 87 90 94 102 103 92 89 93 97 122 136 128 127 153 157 153 151 147 142 150 139 140 148 157 170 160
92 82 66 93 70 78 38 62 72 61 30 45 37 39 15 177 171 176 203 147 114 76 83 93 105 123 131 126 119 111 111 125 123 122 121 135 143 174 188 187 173 155 156 145 136 143 154 175 162
81 90 88 73 67 48 40 49 47 60 23 9 34 33 66 -63 181 129 139 124 123 94 85 101 112 143 156 159 148 131 116 108 104 112 115 128 143 166 193 191 186 167 156 147 145 139 147 163 155
93 76 116 78 75 57 68 39 37 24 22 4 64 68 58 115 206 159 6 44 84 96 108 133 130 146 164 171 159 140 126 121 121 124 131 128 136 147 165 174 170 163 153 147 141 133 142 163 172
51 70 135 86 47 34 69 31 33 22 45 -9 34 68 74 66 58 67 131 71 29 65 138 165 171 158 158 155 153 150 139 141 152 156 152 161 161 160 155 148 145 147 145 144 149 160 187 209 231
85 107 141 97 67 40 27 26 19 11 7 28 28 19 36 41 89 64 -64 -0 32 160 193 193 197 179 170 174 168 163 160 155 155 165 169 168 164 158 152 149 147 148 150 159 163 168 197 234 262
127 94 94 111 56 34 5 22 27 67 125 136 109 67 61 29 35 60 73 97 145 220 245 233 215 200 202 184 168 154 152 164 174 172 167 169 164 161 156 151 148 148 153 162 167 185 203 220 235
135 92 114 118 101 82 54 13 41 67 99 172 159 104 61 48 41 71 109 131 191 238 234 232 215 190 170 157 151 150 159 168 170 168 159 154 151 154 154 153 150 153 158 167 172 184 184 188 181
69 52 58 83 37 69 87 67 50 34 42 32 92 46 27 30 30 46 121 150 195 197 171 159 159 145 139 140 140 149 143 135 130 132 134 134 132 136 137 139 142 150 162 168 172 172 171 169 167

GFSSGP_con_3kmhel_087.txt.gz
Helicity
160 123 115 129 169 171 122 124 140 130 114 137 151 193 141 176 69 84 26 35 55 51 32 9 5 9 6 1 16 8 5 -3 -7 -15 -19 -6 -3 -0 -4 -3 10 16 23 32 24 19 18 17 14
147 115 129 141 210 129 133 69 86 95 122 116 98 132 153 91 95 41 74 31 24 40 8 -14 -10 -3 8 7 12 2 -7 -14 -15 -31 -38 -7 -9 -7 -3 -2 2 1 2 14 12 7 -0 -2 -7
171 137 142 172 161 153 126 86 79 111 138 118 121 169 108 71 72 18 44 46 24 29 -19 -16 -23 -9 3 8 -5 -15 -20 -25 -32 -46 -54 -16 -10 -8 -8 -11 -12 -13 -9 -6 -6 -8 -15 -16 -14
155 145 176 205 150 147 76 77 144 101 121 144 150 92 91 101 89 50 60 34 18 9 -19 14 -24 -24 -21 -14 -29 -36 -35 -40 -50 -57 -64 -46 -5 -4 -12 -12 -12 -14 -17 -11 -6 -7 -10 -8 -8
200 146 188 168 169 87 138 170 140 114 83 88 118 105 84 86 70 63 83 37 25 7 14 -27 -21 -27 -33 -43 -63 -61 -43 -48 -55 -60 -72 -68 -11 -17 -26 -24 -18 -17 -17 -14 -15 -13 -12 -14 -9
204 202 219 166 154 89 123 127 108 185 107 113 142 98 97 114 113 96 117 50 28 44 -7 -15 -16 -21 -32 -48 -69 -41 -51 -67 -74 -67 -63 -68 -16 -37 -31 -34 -26 -26 -24 -19 -20 -16 -16 -8 -4
249 217 191 146 107 145 131 136 99 173 91 161 229 134 60 122 125 136 191 179 55 47 17 -7 -20 -11 -11 -33 -20 -21 -33 -52 -54 -50 -53 -49 -28 -12 -9 -9 -3 -3 -1 -3 3 -1 -1 4 5
257 199 131 78 113 88 114 159 204 231 226 142 215 182 88 150 113 124 155 138 128 10 37 4 -2 -12 -18 -11 3 -2 -9 -23 -35 -25 6 18 14 8 4 6 11 15 17 16 22 17 22 25 25
213 236 202 82 66 46 93 141 175 159 121 164 175 220 150 150 119 138 161 172 169 60 56 37 11 9 10 14 22 26 22 11 8 32 37 15 7 -1 9 51 38 33 33 33 35 36 38 36 40
205 194 123 103 89 100 49 97 105 122 95 119 122 101 108 109 120 121 119 148 163 108 83 47 54 42 51 43 25 28 40 18 8 16 14 -0 35 56 56 70 55 49 47 45 41 41 38 29 37
141 120 131 113 358 84 90 145 113 118 160 163 166 156 93 133 128 99 89 96 132 108 131 189 97 70 56 60 49 48 51 39 43 31 19 41 53 57 41 58 51 51 46 44 43 50 32 36 34
165 169 154 174 100 354 47 107 102 98 106 81 81 97 79 145 140 169 64 54 85 138 98 161 148 104 88 90 72 74 69 70 68 61 50 58 55 62 66 64 70 62 63 56 48 42 44 44 41
49 176 152 211 150 70 174 109 106 72 73 67 68 64 71 121 136 162 186 81 60 56 60 83 98 123 102 105 88 95 92 84 76 79 70 73 80 79 81 77 71 69 69 59 57 50 50 47 43
64 25 119 147 87 94 63 63 157 73 50 54 61 65 53 97 137 119 152 124 92 89 74 87 80 115 103 119 113 137 99 92 91 83 82 84 94 92 85 80 75 70 69 64 59 58 60 55 54
73 69 65 29 40 109 132 70 75 89 31 56 36 48 58 42 99 114 95 131 83 93 55 52 60 94 106 114 124 115 104 110 99 91 83 81 83 73 77 74 80 75 70 66 70 66 68 64 62
88 64 95 61 145 106 116 89 66 64 44 82 61 51 50 47 62 124 170 132 111 85 87 70 73 75 76 108 125 112 122 87 94 88 86 61 55 57 67 72 73 73 75 73 72 72 73 74 73
138 92 64 37 54 81 72 88 177 45 99 82 102 84 61 51 58 114 142 135 131 112 82 65 60 58 51 98 109 102 105 101 87 79 65 53 46 56 62 71 75 76 81 79 79 77 76 82 82
83 142 52 59 20 84 49 65 96 88 26 67 95 98 85 74 61 106 141 173 121 118 94 79 70 68 56 86 92 97 114 105 85 60 53 50 55 60 68 73 73 84 101 91 87 83 90 89 95
54 86 59 60 61 20 66 73 44 93 26 98 106 110 119 106 75 99 120 150 169 142 94 84 59 52 66 69 71 81 80 78 70 63 60 67 71 78 80 80 81 95 101 92 92 102 100 113 110
126 84 103 97 75 46 74 40 39 57 62 75 96 126 129 85 120 81 148 158 168 144 118 93 68 51 59 67 65 73 77 67 63 66 72 73 80 91 99 100 106 111 120 105 112 121 148 155 151
151 100 64 83 26 44 108 78 54 46 52 60 79 97 121 171 96 119 108 141 169 151 133 118 90 85 87 81 114 144 142 130 96 90 84 97 121 119 144 137 137 145 151 140 127 141 154 170 182
72 133 115 59 65 120 -2 99 -9 19 34 42 60 92 92 145 246 134 180 214 206 199 164 150 137 112 126 124 134 115 97 74 84 129 127 126 138 149 142 139 145 152 162 161 161 167 186 199 191
141 76 110 85 62 111 28 79 104 59 58 42 42 42 63 122 202 208 258 220 246 211 174 159 115 103 104 98 109 126 107 144 187 136 126 107 119 148 149 151 151 141 146 167 169 163 167 176 179
77 69 86 72 97 67 60 48 74 69 21 35 27 28 39 68 83 248 183 204 208 216 175 181 104 99 97 107 116 113 128 134 133 128 116 118 117 115 146 159 169 165 158 148 148 147 148 161 171
99 90 125 108 120 64 90 86 56 61 71 75 78 66 50 74 85 99 175 190 162 209 149 155 110 113 105 117 139 150 162 157 152 144 124 106 103 109 128 148 153 160 155 146 142 129 120 132 149
86 81 149 91 71 58 76 42 43 26 42 31 51 39 116 138 121 72 129 194 131 166 129 118 99 129 118 141 160 171 165 162 153 132 126 136 145 156 150 150 152 151 147 144 134 135 154 177 199
54 80 98 170 176 232 73 3 29 -1 19 54 68 57 76 62 75 90 178 311 54 101 66 70 134 160 148 171 168 168 194 167 148 151 160 165 169 174 157 151 152 155 153 148 148 138 146 183 206
116 105 123 155 140 89 37 33 58 22 51 74 68 82 52 56 58 80 137 143 129 68 57 85 111 139 161 185 181 158 148 163 173 167 159 170 175 177 171 159 148 142 139 140 136 143 148 175 199
88 125 134 122 91 109 91 -17 93 95 84 146 137 136 109 71 45 59 90 146 230 168 139 221 191 247 266 207 190 180 186 174 162 158 154 162 153 159 158 151 143 144 142 138 137 154 161 158 164
56 31 63 95 91 75 128 130 14 54 82 125 118 119 129 91 78 59 64 102 142 153 143 119 192 192 216 197 173 159 145 137 136 143 149 146 140 133 140 136 135 138 142 151 159 163 164 174 168

GFSSGP_con_3kmhel_090.txt.gz
Helicity
131 150 172 146 202 187 145 159 68 92 112 92 104 91 100 143 168 106 3 99 175 88 64 36 22 28 11 19 10 3 7 8 -9 3 7 5 3 11 18 30 34 42 31 31 25 19 19 17 11
170 169 150 217 203 168 147 96 113 173 152 145 52 163 162 188 64 64 82 96 80 83 45 30 24 13 22 28 17 16 9 3 -13 -11 2 3 4 5 6 12 20 19 19 13 6 -1 -2 2 -6
155 174 202 238 209 150 150 121 118 136 165 168 97 142 147 98 23 58 85 63 73 57 13 12 8 13 13 34 6 -2 -5 -7 -13 -16 -0 1 -1 -5 -5 -2 -1 -1 -1 1 -6 -9 -9 -5 -9
195 213 229 251 188 134 134 52 134 177 127 129 104 123 149 201 102 48 66 70 73 2 37 5 11 12 8 -1 -13 -17 -13 -17 -22 -26 -14 -8 -5 -9 -9 -7 -8 -12 -10 1 -3 -4 1 -5 -11
224 196 266 228 215 116 88 246 252 104 108 121 183 182 163 148 128 78 55 54 25 38 72 9 -5 -19 -24 -33 -36 -33 -28 -27 -27 -36 -31 -0 -9 -20 -21 -20 -24 -20 -9 -5 -5 -6 -4 -3 -10
248 260 301 227 181 175 163 177 164 192 113 133 150 142 155 151 137 91 85 69 88 112 38 -4 -23 -34 -51 -58 -47 -51 -50 -44 -42 -47 -49 -18 -33 -31 -34 -34 -31 -23 -14 -10 -13 -12 -8 3 -6
230 274 259 240 165 120 173 149 227 244 143 179 252 130 83 132 219 236 140 62 118 50 18 8 -19 -41 -56 -58 -41 -49 -54 -56 -60 -60 -67 -31 -20 -12 -11 -14 -9 -3 7 7 8 8 8 18 14
207 264 265 200 188 173 149 149 283 339 250 196 242 227 87 116 142 211 286 229 121 36 11 15 1 -31 -44 -34 -29 -26 -33 -32 -27 -22 -15 7 7 16 11 7 10 18 31 28 31 33 29 32 33
224 249 247 269 149 135 133 206 290 219 212 239 211 196 118 79 137 129 284 383 115 30 38 41 5 -33 -32 -3 -8 -4 -4 -6 -2 5 23 6 -4 -5 3 28 35 36 44 45 46 48 44 42 44
208 262 227 171 109 80 143 101 152 198 149 190 72 135 104 98 135 166 219 324 248 69 99 59 23 35 14 1 -12 -2 11 2 -0 20 -5 -32 13 13 53 58 51 43 50 52 53 51 45 35 39
212 232 234 109 80 358 216 40 82 109 129 155 208 100 109 84 128 140 155 240 291 128 129 118 92 83 62 38 -9 24 6 2 7 47 -2 -18 92 78 68 55 52 45 44 42 47 43 33 38 40
186 140 229 155 134 196 276 140 135 135 170 142 117 67 94 90 102 119 115 150 206 177 138 133 109 92 82 66 20 50 7 41 49 45 21 76 88 69 50 84 56 58 52 49 37 55 36 48 45
136 193 157 234 94 86 207 283 164 238 162 94 94 56 45 95 112 135 120 119 121 145 138 149 133 100 93 79 49 64 62 78 85 87 71 90 77 80 76 81 98 74 73 70 63 54 50 57 43
70 194 278 115 149 112 197 41 155 144 112 113 96 90 62 59 88 120 133 95 85 91 109 141 131 128 117 100 69 128 115 80 104 112 91 90 98 97 102 94 85 81 82 59 63 62 59 54 62
-74 -27 97 108 198 141 187 168 86 105 41 62 71 77 53 61 78 96 114 122 111 133 133 150 122 142 126 118 83 148 195 113 130 109 94 106 105 108 98 74 76 66 68 58 70 71 81 72 62
49 26 126 128 77 89 98 67 66 102 77 83 65 36 31 38 70 85 85 123 144 127 109 110 119 122 124 166 132 144 153 159 124 125 106 100 96 86 76 66 69 67 79 81 76 82 82 80 82
89 36 8 59 175 214 116 126 101 49 89 39 65 85 58 20 28 54 89 114 106 98 110 98 109 97 85 84 131 138 130 121 114 107 111 103 87 74 63 64 62 71 93 89 84 87 103 97 91
90 91 -5 4 25 96 99 108 185 98 158 174 105 141 133 88 45 66 82 107 127 134 149 146 131 105 89 72 132 120 154 121 153 161 126 90 71 67 77 62 69 80 107 106 107 111 98 110 105
103 85 105 12 28 -2 -8 106 62 115 99 112 98 81 111 119 131 119 110 79 132 156 171 151 153 108 122 145 174 160 166 157 164 120 101 80 74 74 92 83 84 87 105 107 111 108 129 119 115
151 130 126 129 58 25 35 58 60 121 109 51 45 120 119 120 135 257 126 115 152 163 184 158 156 142 141 148 124 120 119 103 72 80 102 96 108 113 109 127 119 105 125 136 127 131 150 157 169
138 75 114 89 50 73 88 91 78 82 73 102 85 90 143 175 140 259 226 127 157 168 161 181 181 158 142 125 174 181 150 124 81 91 83 85 135 158 166 169 154 144 159 148 147 162 172 173 182
135 146 179 194 79 100 50 105 43 42 73 73 83 103 98 113 64 166 242 268 177 172 223 215 187 180 192 211 189 139 134 141 155 126 119 128 152 161 168 146 131 134 146 151 155 161 175 198 191
223 100 93 159 113 129 104 125 119 156 89 57 87 89 86 89 102 53 250 380 327 283 296 299 288 234 210 206 202 183 159 170 183 213 222 153 130 172 172 157 156 163 150 162 165 172 174 187 199
118 168 137 94 79 105 87 70 81 135 121 69 68 81 77 81 103 87 262 336 334 290 249 308 310 279 220 176 191 195 162 189 212 210 211 197 149 107 157 144 148 157 169 160 152 149 148 148 153
137 131 163 129 121 66 59 77 85 92 111 95 102 151 101 97 129 115 268 341 354 282 223 260 291 289 255 160 224 330 195 180 155 156 169 163 138 127 135 126 152 155 162 162 156 152 148 134 134
135 132 171 150 106 27 74 76 73 63 54 124 90 53 86 190 184 156 183 211 300 330 253 256 251 257 195 169 179 198 204 197 202 188 187 200 199 175 151 150 153 156 161 165 164 146 155 165 164
93 103 116 82 108 132 98 71 50 -0 49 51 110 103 71 71 143 204 193 197 321 297 265 199 160 186 158 185 205 233 225 211 203 211 226 209 219 183 166 156 157 159 158 161 161 156 168 159 165
142 179 155 129 132 122 135 66 53 37 63 43 98 110 90 90 95 115 164 191 256 241 208 168 147 232 158 154 172 162 160 177 204 249 217 178 149 167 167 170 170 167 157 156 156 154 168 164 154
167 149 148 147 155 157 124 103 71 132 236 215 129 101 107 103 83 95 92 139 187 223 242 316 309 240 162 197 208 237 228 213 177 169 148 163 163 155 158 157 148 156 160 156 151 155 179 153 152
98 86 141 179 128 125 125 133 60 111 138 99 54 70 89 104 115 89 96 99 182 247 259 253 355 103 170 215 217 109 99 132 143 137 139 155 171 175 163 157 159 157 157 164 185 183 175 192 199

GFSSGP_con_3kmhel_093.txt.gz
Helicity
102 138 151 191 241 202 175 161 103 26 69 83 94 99 102 178 148 115 62 94 117 92 66 62 44 24 22 19 20 11 21 5 6 19 34 34 26 27 35 43 41 37 38 29 26 23 14 0 -6
100 183 240 224 268 209 179 87 137 94 76 71 88 107 221 171 96 120 127 109 130 92 68 46 35 35 34 29 30 27 6 0 3 12 15 19 20 16 19 27 22 18 13 10 2 -1 -8 -16 -15
115 182 243 269 292 180 134 78 118 83 178 145 107 112 49 65 129 80 87 82 128 86 66 31 38 32 24 40 26 14 8 -4 3 9 9 7 3 -2 3 7 3 0 1 -7 -9 -12 -15 -18 -16
179 212 276 262 238 206 140 63 87 100 190 191 73 133 126 186 87 45 65 66 115 69 51 31 32 29 31 26 2 -1 -8 -7 0 4 7 4 0 -3 1 2 0 -1 -7 -12 -9 -8 -8 -22 -13
171 248 324 275 202 130 110 109 209 208 122 178 201 100 98 151 131 106 65 44 71 58 40 28 32 26 8 -7 -13 -17 -18 -20 -14 -1 3 -2 -4 -7 -12 -17 -15 -20 -28 -28 -26 -16 -22 -23 -29
277 284 324 266 194 187 207 172 170 207 162 199 203 203 145 220 140 83 21 48 80 66 41 10 8 2 -17 -22 -27 -32 -30 -36 -35 -20 -23 -24 -27 -32 -35 -30 -24 -25 -27 -25 -16 -3 -8 -5 -16
246 300 283 241 193 180 204 154 187 207 215 287 196 207 143 135 235 243 87 97 107 81 65 23 -8 -17 -39 -34 -46 -48 -49 -61 -64 -48 -48 -40 -30 -30 -22 -15 -10 -13 -9 -6 5 18 16 18 16
191 260 244 262 225 250 228 277 252 211 252 197 195 153 146 192 193 337 138 142 125 85 64 38 23 -9 -33 -41 -55 -53 -54 -56 -56 -57 -20 -26 -17 -11 -3 -3 7 5 11 14 27 36 37 38 40
151 247 255 257 223 173 191 220 288 289 243 245 236 163 100 125 181 312 274 185 122 57 49 38 25 -2 -6 -9 -38 -36 -40 -34 -29 -16 1 -8 -22 -1 13 8 29 26 32 35 38 43 44 43 41
148 231 207 182 315 127 184 190 186 273 252 226 196 203 169 117 162 232 260 198 159 76 34 23 7 9 -1 2 -18 -22 -29 -20 -15 -14 -12 -14 -5 6 13 23 35 37 40 48 45 45 41 38 35
131 176 194 308 240 133 239 140 146 147 205 177 140 133 120 108 135 232 222 186 131 67 35 24 24 8 24 24 4 -10 -16 -7 6 -2 -5 1 19 31 31 33 31 35 33 31 37 40 27 33 36
218 184 211 219 359 214 244 233 146 132 148 141 78 90 91 76 82 187 240 222 200 158 153 97 56 22 57 36 24 -1 -4 0 14 7 14 16 43 54 60 39 30 35 40 29 33 26 24 25 36
201 192 187 270 329 241 243 364 283 158 137 116 91 130 74 87 86 114 188 183 214 170 183 133 123 94 83 74 55 37 10 13 27 22 52 58 38 55 62 56 58 35 53 39 31 22 26 22 30
96 168 155 209 247 364 179 280 396 180 147 131 97 77 119 128 98 135 162 183 172 185 138 146 124 99 105 69 94 48 30 41 44 43 68 76 99 76 75 75 57 47 49 46 48 37 39 40 42
30 50 178 252 89 355 268 235 492 147 118 108 100 93 83 102 100 92 102 109 141 162 164 144 118 104 118 88 88 120 111 96 111 109 113 118 117 102 111 105 80 56 48 48 38 49 56 62 61
117 102 79 130 111 103 169 248 95 151 137 120 77 85 100 95 71 97 90 96 77 133 167 193 201 151 144 129 85 126 147 141 136 131 121 108 118 130 127 104 63 43 52 57 61 57 62 62 65
171 111 106 91 92 133 81 65 152 4 84 95 85 58 58 75 95 105 79 109 104 104 135 110 113 169 181 179 154 139 135 164 174 167 133 91 115 124 110 81 61 62 67 70 69 66 80 84 74
85 166 145 45 39 119 131 54 46 118 94 84 52 63 75 82 75 58 62 77 112 109 127 130 122 85 104 111 161 142 128 137 179 176 174 129 114 113 106 79 57 58 82 82 89 82 91 93 87
37 -26 43 -2 8 94 55 87 147 137 153 128 109 103 81 63 71 86 75 76 111 124 129 115 119 105 129 148 114 140 166 172 172 172 164 143 99 99 92 81 58 64 77 83 95 101 86 100 110
156 27 27 147 67 77 62 50 186 172 193 119 135 129 104 87 89 132 128 108 115 114 123 152 118 123 137 136 144 152 172 173 174 171 202 176 155 107 99 81 81 88 86 102 108 112 117 125 145
112 67 68 77 94 69 18 39 59 69 26 100 132 109 94 88 88 186 179 126 131 136 154 148 149 146 146 151 227 200 161 143 121 121 133 123 127 120 111 101 97 90 95 111 125 129 140 124 147
144 122 97 93 152 84 28 1 41 54 61 92 130 91 88 83 134 166 201 173 142 112 168 177 171 168 192 241 228 201 171 174 134 119 144 165 180 208 194 174 112 106 119 106 119 130 146 167 144
174 93 101 141 115 133 119 50 70 87 94 69 70 113 96 88 86 114 134 147 146 149 168 208 228 220 264 291 230 223 215 176 176 197 247 273 242 211 220 237 177 136 169 152 151 152 149 164 172
79 170 139 214 175 151 88 61 41 108 85 89 87 64 85 125 100 93 91 143 232 240 237 258 257 278 258 274 252 253 246 238 295 284 291 259 245 236 247 216 199 158 165 175 162 149 148 134 141
144 158 197 197 143 107 129 141 85 71 120 180 78 60 69 106 137 126 152 207 302 254 241 230 222 242 243 212 234 253 283 318 282 250 265 261 226 220 199 201 181 152 145 155 153 149 144 151 143
102 181 157 152 132 79 103 93 71 6 56 141 96 116 119 135 111 130 199 188 165 204 214 246 256 290 268 260 270 279 277 270 301 172 202 195 243 178 154 144 129 143 155 168 166 158 152 155 154
100 92 151 111 93 94 99 110 96 30 84 100 98 122 129 129 121 113 183 209 177 158 154 180 223 261 293 319 318 309 293 298 297 253 261 247 209 162 148 137 138 176 162 147 163 162 162 163 166
142 166 144 187 108 110 92 108 95 103 38 123 153 168 179 165 131 141 192 148 141 167 193 209 209 220 236 271 288 255 226 229 223 216 179 148 131 113 78 116 167 131 166 169 165 167 166 168 173
199 173 172 151 121 102 93 84 78 44 137 152 122 100 106 128 149 118 139 144 130 171 179 184 202 220 243 294 340 225 163 171 180 172 156 143 137 164 193 144 143 186 193 195 184 165 165 168 143
192 173 180 164 176 148 99 95 76 96 115 119 89 73 74 67 75 92 84 100 114 130 163 176 221 224 198 282 359 330 124 169 131 119 155 166 189 168 133 152 189 183 182 184 186 169 177 168 179

GFSSGP_con_3kmhel_096.txt.gz
Helicity
159 163 144 218 288 259 214 188 139 125 93 81 85 134 136 107 209 151 68 66 127 105 71 64 34 41 33 23 33 18 21 17 28 45 56 55 56 56 50 44 41 33 25 24 21 24 10 -1 -5
117 159 203 252 343 271 232 179 141 122 111 53 136 241 180 257 96 79 108 62 122 98 66 51 33 38 27 9 41 17 7 10 24 31 32 23 33 40 37 29 25 16 9 2 3 6 -7 -13 -12
146 164 264 287 320 193 189 122 188 161 82 112 115 165 208 173 22 107 45 87 124 92 59 31 46 46 43 43 30 6 4 6 9 10 21 19 23 24 17 6 1 0 -3 -7 -8 -14 -12 -22 -18
177 225 272 309 267 222 165 125 100 115 118 81 110 163 156 285 77 97 77 91 134 82 39 34 43 39 42 38 21 -3 4 4 7 5 -4 -1 3 4 3 -5 -7 -11 -15 -10 -26 -31 -29 -34 -29
194 290 388 339 224 247 244 122 122 57 51 50 109 108 160 212 73 104 84 120 126 88 51 38 47 30 38 18 1 -13 -7 -1 3 5 -3 -8 -9 -11 -13 -21 -28 -30 -30 -34 -40 -40 -26 -31 -23
297 359 444 333 224 206 194 128 178 168 198 246 188 143 143 165 112 70 56 100 101 91 51 47 47 34 18 -4 -17 -25 -30 -10 -11 -9 -14 -26 -31 -31 -30 -32 -33 -29 -25 -32 -34 -36 -19 -11 -8
302 458 329 268 244 251 273 182 283 192 242 272 255 230 102 118 128 45 26 109 101 82 73 49 32 9 3 -15 -28 -37 -41 -40 -26 -38 -41 -47 -54 -47 -35 -33 -20 -8 1 -6 -5 -9 -5 5 11
237 405 334 266 304 256 250 179 168 142 280 277 255 186 152 166 95 142 68 106 103 71 71 62 35 -2 -10 -36 -41 -46 -56 -70 -55 -53 -50 -50 -51 -43 -31 -30 -16 1 13 15 16 24 20 21 11
227 371 299 272 290 269 262 248 100 113 187 243 210 186 153 169 146 84 83 105 81 49 49 47 29 -1 -13 -37 -52 -48 -51 -51 -31 -28 -31 -30 -36 -27 -19 -18 -1 7 17 26 19 23 28 26 19
394 297 309 311 334 310 235 295 134 180 203 261 231 254 213 218 221 222 49 89 38 33 40 31 25 6 -6 -23 -42 -42 -39 -36 -17 -18 -17 -22 -14 -13 -7 -2 12 13 17 18 24 27 18 19 16
307 330 350 361 410 303 202 222 229 183 209 153 108 161 181 203 199 229 154 5 50 39 42 22 28 15 6 -7 -24 -29 -27 -14 -12 -2 1 4 6 2 9 7 13 15 18 12 8 11 15 6 16
189 252 282 332 401 358 319 231 247 200 170 139 133 136 222 176 206 212 194 159 76 42 36 26 24 17 6 11 -1 -13 -6 -4 -5 8 12 25 29 25 23 23 26 21 24 20 16 13 5 9 11
248 224 334 386 384 527 301 300 263 205 108 103 146 155 110 147 162 258 215 129 115 92 43 27 34 21 17 29 20 16 4 9 -2 15 12 35 53 48 47 33 33 29 31 24 15 13 13 8 14
153 159 436 369 322 393 372 304 266 250 176 127 107 119 103 126 151 200 204 270 204 128 76 107 86 21 26 61 60 42 19 20 23 32 28 35 61 57 55 61 52 46 39 30 29 27 19 15 26
-2 123 306 280 331 260 451 329 332 323 213 121 113 108 118 101 120 117 171 203 193 170 136 104 87 64 62 108 72 102 62 48 62 57 67 71 80 75 84 81 73 53 42 39 35 33 39 34 39
-1 25 10 181 307 416 392 354 271 329 350 191 151 134 109 101 101 101 93 164 152 150 147 132 125 107 102 105 97 115 110 122 76 65 94 108 103 110 123 119 91 74 66 62 57 52 46 45 45
200 45 95 44 61 135 339 231 336 313 410 316 137 127 126 122 115 98 95 100 86 118 164 141 135 138 131 92 114 149 127 142 125 124 126 131 150 145 148 129 101 89 74 65 66 61 65 58 50
103 44 86 109 31 -49 151 256 297 229 322 338 162 84 108 114 80 65 68 83 103 112 114 140 179 163 140 129 135 166 190 157 174 166 157 147 123 144 148 132 104 100 86 68 72 60 67 73 66
101 23 43 11 -28 -20 15 19 47 274 163 218 221 151 106 93 73 92 104 93 117 106 100 105 130 135 159 186 164 157 166 159 188 172 158 174 177 130 119 128 101 77 73 58 71 79 65 68 83
151 72 72 86 123 85 27 52 35 14 27 43 105 111 93 94 79 78 83 102 109 102 98 100 100 136 156 168 185 176 179 175 183 223 233 232 220 184 127 136 110 84 67 66 58 79 92 96 109
141 48 39 28 44 139 140 68 36 60 3 166 123 96 98 105 93 76 85 89 98 111 108 125 107 113 123 125 195 204 197 172 207 236 237 191 170 141 138 148 125 186 108 122 91 72 79 89 105
116 95 52 70 42 104 33 144 104 11 17 83 85 141 132 120 109 125 96 126 115 109 138 109 118 121 119 178 178 169 153 173 174 185 190 188 170 173 147 205 181 156 258 184 190 70 116 111 103
134 176 126 130 174 126 71 99 81 66 16 28 54 75 70 76 84 98 120 113 124 132 154 194 187 187 163 159 167 185 192 164 175 225 215 245 250 233 210 182 203 189 177 185 192 166 164 171 153
118 193 235 215 187 106 103 67 27 54 54 68 81 72 57 60 91 103 101 114 159 158 154 155 153 179 174 191 201 179 177 190 235 255 295 320 300 268 237 193 177 175 175 190 158 166 157 155 168
139 191 195 144 145 150 168 141 64 66 75 77 112 74 39 69 108 144 145 128 128 133 148 166 184 178 167 175 204 204 172 202 217 269 288 315 325 281 233 188 162 185 154 152 152 134 120 151 161
128 77 155 132 97 132 118 123 100 70 30 62 106 85 60 47 61 135 165 162 128 125 170 191 183 190 189 158 153 188 217 267 288 297 316 281 241 236 185 119 115 146 141 163 122 115 119 138 151
124 115 100 105 110 107 102 97 105 53 87 94 94 145 150 137 88 64 151 149 173 190 167 180 199 192 187 187 185 188 235 283 304 316 274 221 227 264 162 164 142 111 103 110 104 113 138 142 154
83 127 140 150 93 100 93 94 71 62 72 124 156 165 157 148 139 107 106 172 178 153 137 155 155 158 165 182 201 210 206 232 256 272 329 272 265 239 187 185 145 117 125 143 148 151 156 153 165
192 193 187 122 117 84 68 66 63 18 54 88 90 104 102 140 159 156 154 141 145 140 125 134 143 156 171 187 196 214 237 275 285 246 200 190 182 152 136 125 119 132 147 134 121 141 147 154 151
99 128 164 154 162 188 121 91 76 53 94 127 122 88 83 68 76 87 110 128 124 109 126 131 145 160 183 199 217 214 214 245 275 283 375 265 150 105 78 107 138 187 113 145 116 130 182 167 156

GFSSGP_con_3kmhel_099.txt.gz
Helicity
118 167 192 232 339 333 184 176 152 85 74 122 105 113 111 103 154 156 45 63 141 141 86 68 62 55 52 43 35 38 30 59 43 31 42 46 41 44 44 47 33 28 28 22 14 4 3 5 -7
80 163 264 298 379 354 241 219 181 64 99 71 118 201 211 150 142 75 150 80 131 130 91 68 54 43 47 28 38 25 19 39 43 52 48 45 53 44 34 32 23 16 11 9 1 -1 -3 -7 -22
103 140 303 374 386 270 217 216 171 168 102 146 120 166 182 141 111 107 121 99 128 114 91 52 37 36 23 25 27 13 1 12 21 20 24 33 27 33 21 11 7 -1 -6 -9 -12 -5 -15 -17 -41
151 273 344 384 362 201 189 195 121 121 229 184 93 188 124 177 105 113 112 122 135 105 82 46 50 46 43 36 5 4 -1 -17 -5 8 15 18 15 11 -4 -6 -11 -16 -20 -29 -31 -26 -25 -24 -26
158 335 424 436 289 215 246 151 84 104 140 186 127 123 183 212 87 99 116 104 118 111 90 55 60 50 43 23 -9 -0 -7 -13 -18 -16 -15 -13 -12 -17 -21 -30 -37 -37 -37 -34 -26 -30 -22 -18 -4
172 166 385 429 278 292 208 124 147 94 135 -1 58 99 183 255 126 103 116 99 106 104 70 42 51 41 40 16 -18 -2 -7 -12 -15 -22 -25 -26 -28 -36 -44 -52 -56 -48 -40 -27 -20 -23 -24 -6 11
181 220 246 379 310 296 260 197 174 203 67 49 96 128 121 160 134 133 136 143 105 94 90 71 54 33 33 -4 -28 -19 -12 -16 -19 -29 -36 -46 -53 -55 -50 -48 -43 -43 -35 -16 -3 -5 -16 -6 12
151 192 279 224 307 332 203 330 176 230 247 154 124 81 133 108 147 157 142 150 112 96 112 100 68 44 28 -8 -33 -37 -30 -30 -36 -44 -46 -54 -56 -52 -43 -39 -28 -18 -8 -3 -3 4 -0 7 7
112 213 214 333 243 288 216 285 361 216 240 245 179 118 201 226 122 111 113 115 84 73 83 102 53 41 19 -13 -47 -59 -60 -56 -52 -55 -48 -44 -52 -41 -33 -25 -12 -7 5 13 8 16 14 11 12
118 29 378 381 384 281 197 231 480 218 261 208 181 177 264 162 270 99 90 74 52 53 81 75 39 24 1 -24 -48 -75 -79 -54 -51 -55 -47 -41 -29 -24 -18 -10 3 6 6 13 12 14 15 8 6
262 164 408 392 429 352 281 263 411 209 207 178 131 140 159 190 128 270 423 52 61 76 98 76 45 22 -3 -21 -43 -55 -58 -54 -47 -29 -27 -16 -5 -2 1 5 6 12 12 11 14 12 12 3 3
501 169 272 361 446 410 380 357 301 290 154 82 103 102 129 88 79 243 294 215 60 81 82 88 71 25 -4 -13 -36 -45 -36 -39 -28 -21 -4 10 14 17 18 20 22 20 24 19 13 17 9 3 3
429 298 389 394 418 523 300 384 317 398 267 193 166 140 152 116 77 104 35 66 40 64 88 85 69 18 8 -3 -22 -28 -30 -17 -2 8 4 26 33 31 36 28 33 28 34 30 27 18 18 11 6
195 324 515 376 414 409 393 401 353 459 372 231 176 174 195 163 196 128 48 90 129 43 75 60 21 45 21 15 10 -5 -12 -5 24 27 24 34 48 57 56 41 37 33 39 42 41 32 26 18 17
45 237 508 518 518 447 493 372 370 370 328 298 209 169 151 147 177 164 130 126 129 8 10 79 30 15 50 45 21 35 14 31 47 34 32 40 52 67 74 64 58 49 54 45 41 35 37 27 30
27 -23 514 486 473 424 401 350 305 276 241 296 295 278 193 159 108 152 173 174 197 129 109 61 58 48 -24 13 48 70 74 62 65 74 78 66 68 81 96 90 73 73 77 73 66 59 56 50 48
43 -74 165 331 231 335 330 360 392 316 296 341 338 294 184 153 138 105 119 110 185 177 138 109 98 53 43 61 84 108 75 82 85 113 106 89 94 115 132 112 102 112 107 101 86 69 63 62 57
-32 -12 34 76 182 115 412 408 415 348 313 332 370 355 215 143 100 96 97 106 68 112 128 127 147 102 98 127 101 111 115 86 100 93 109 91 113 120 132 134 138 146 137 113 89 74 64 63 56
13 19 -45 9 -87 53 62 146 548 472 340 325 332 386 306 156 93 101 99 88 94 108 94 126 133 110 151 180 174 138 113 147 142 118 142 119 120 134 145 130 135 150 144 119 102 84 75 72 70
102 32 85 65 -140 -110 -151 87 56 158 206 165 188 245 302 264 145 95 72 83 101 98 91 121 100 117 109 149 179 190 201 182 146 129 150 167 194 196 198 160 121 119 98 130 83 78 83 86 82
128 74 93 55 -21 13 -194 -70 23 50 73 101 115 108 174 229 170 97 77 56 53 89 100 95 92 121 145 173 209 194 203 193 183 173 202 223 238 252 259 189 148 108 119 125 150 97 111 136 92
100 104 78 83 71 -26 15 -43 13 17 18 56 151 34 71 159 134 104 93 87 83 47 53 80 125 125 155 200 207 194 151 165 134 207 252 230 240 227 211 164 159 149 140 140 130 107 159 155 86
68 98 73 97 140 111 83 66 66 79 53 13 37 50 88 104 105 120 111 113 106 109 102 91 79 93 111 135 157 162 165 148 143 159 209 228 221 205 211 212 206 188 165 129 94 76 125 142 116
101 128 166 163 148 68 92 75 131 83 76 110 69 47 73 94 75 75 93 111 124 147 153 121 108 108 112 120 124 140 145 146 136 156 181 252 314 339 322 248 184 177 189 183 127 111 104 99 110
134 177 117 112 137 91 119 140 106 102 91 49 18 33 60 45 52 65 86 107 98 116 157 149 137 142 148 154 152 153 134 134 142 159 207 255 309 309 261 199 170 168 150 129 103 92 90 87 114
144 116 103 89 111 123 140 129 190 98 59 35 93 70 61 50 79 92 87 107 114 101 115 135 126 144 163 147 152 156 160 144 148 175 216 234 268 244 243 260 247 103 174 196 163 147 103 103 94
133 111 69 25 192 100 76 98 147 76 83 76 48 76 87 86 65 58 84 106 137 136 98 116 137 154 152 135 136 133 134 139 165 219 249 261 260 240 238 224 236 223 184 211 260 134 106 112 104
118 120 132 108 35 77 51 35 26 12 65 105 91 91 90 122 149 133 90 77 102 111 142 184 173 147 156 150 147 133 118 128 154 201 229 254 257 268 236 211 226 193 169 166 138 131 111 108 97
159 147 156 92 119 61 37 28 20 31 42 42 71 89 119 129 116 105 98 85 76 117 129 155 133 141 153 155 153 149 144 138 140 153 184 236 261 241 198 165 170 146 124 121 136 133 95 77 107
136 100 124 130 93 124 65 47 51 42 32 53 88 104 104 106 124 126 129 124 118 119 142 137 121 110 115 132 143 148 160 164 170 190 210 194 218 211 197 226 284 261 158 137 134 116 121 113 102

GFSSGP_con_3kmhel_102.txt.gz
Helicity
170 133 141 254 328 358 324 223 197 168 129 148 135 146 120 120 129 162 34 90 167 159 93 73 47 61 50 38 50 51 26 7 18 32 44 48 44 35 32 36 27 25 18 16 10 5 -3 -10 -17
154 137 179 277 352 410 347 217 128 118 121 82 110 144 179 113 119 55 96 111 151 148 103 65 66 57 46 39 54 58 42 17 25 40 38 28 39 32 28 25 19 12 10 5 3 -2 -13 -27 -38
153 124 203 310 355 310 289 210 102 171 131 137 95 132 155 94 84 36 106 130 158 133 105 61 70 46 40 40 50 49 46 45 29 28 26 49 27 20 12 4 0 1 -6 -2 -8 -22 -37 -47 -34
127 124 153 317 323 200 173 228 162 237 278 264 138 141 116 105 70 96 169 151 172 124 100 53 53 41 37 35 32 29 18 12 20 37 38 15 1 1 -6 -14 -17 -26 -30 -26 -25 -31 -25 -33 -18
110 98 142 293 338 182 204 259 163 188 189 235 175 211 130 145 113 105 175 145 142 129 93 65 45 30 29 24 16 2 -11 -15 -2 7 9 5 -11 -15 -20 -32 -45 -49 -44 -36 -22 -20 -9 -14 -13
71 83 -53 190 256 249 242 258 145 153 104 110 221 153 117 117 110 133 147 125 108 117 93 73 60 31 28 12 6 -5 -19 -29 -25 -15 -13 -17 -22 -35 -44 -43 -45 -46 -46 -36 -29 -18 -5 -1 -1
63 -7 -49 351 199 316 304 210 124 201 162 115 121 140 118 125 128 127 143 157 125 125 106 88 71 48 31 8 6 -3 -20 -25 -29 -35 -37 -42 -49 -49 -48 -44 -40 -28 -26 -21 -15 -4 -4 3 4
84 77 34 168 241 272 279 326 168 129 32 226 265 189 142 186 188 153 145 166 135 122 112 105 92 78 51 17 -3 -14 -18 -26 -39 -54 -53 -54 -60 -51 -38 -33 -19 -11 -2 6 10 8 13 20 20
171 -232 166 20 401 326 330 367 369 242 260 268 -10 -29 54 119 169 190 169 152 127 109 98 100 80 69 46 8 -2 -25 -29 -37 -46 -56 -58 -60 -70 -53 -33 -23 0 6 13 21 23 22 25 23 30
112 -29 -3 174 176 284 180 283 448 304 221 232 100 61 126 86 114 134 140 145 118 107 93 87 53 60 50 23 2 -20 -53 -59 -71 -73 -70 -68 -57 -43 -30 -14 5 13 17 23 25 25 25 25 17
92 39 29 15 157 112 109 218 367 269 219 185 119 92 90 171 265 157 110 77 99 87 95 71 50 53 48 30 12 -11 -34 -56 -73 -66 -53 -42 -31 -21 -12 -3 5 10 17 14 21 19 18 20 20
-41 47 225 140 176 233 126 198 316 376 291 147 211 165 221 307 243 156 123 69 95 83 78 67 49 57 54 48 33 12 -23 -39 -56 -58 -37 -14 -5 6 8 11 19 22 19 23 20 19 16 19 17
47 519 367 222 408 388 179 267 277 332 318 172 197 199 124 194 147 -4 37 83 169 110 70 75 69 75 75 55 59 37 0 -23 -34 -33 -19 1 9 16 20 23 28 31 35 35 29 25 23 18 11
32 182 493 207 339 561 238 373 308 339 291 155 160 144 156 121 66 185 101 31 47 115 78 74 74 83 92 78 66 57 26 7 3 -10 -3 6 22 34 37 41 37 43 45 45 46 38 32 24 24
28 105 473 379 501 447 566 428 396 441 344 299 199 125 129 125 111 50 68 104 179 205 107 102 77 76 87 85 86 94 78 53 29 17 26 19 33 47 53 58 52 53 58 58 61 57 53 43 39
-120 -210 189 529 640 339 352 480 470 455 349 405 285 224 170 175 117 99 107 135 -70 57 129 52 39 74 84 78 86 89 93 88 67 61 55 36 38 57 69 70 65 79 76 73 80 85 80 70 67
-238 -158 130 376 465 425 364 433 505 493 462 422 405 297 223 216 187 132 122 82 64 5 77 35 85 65 85 70 82 88 87 88 63 68 53 42 45 73 89 76 78 98 102 93 99 104 101 107 83
-131 -119 2 11 330 392 455 468 506 446 475 468 442 417 340 247 194 125 163 193 124 101 66 90 125 117 93 134 102 93 85 96 124 77 67 36 46 64 88 83 85 115 126 117 113 114 101 97 86
-71 -105 -15 -76 73 261 351 323 423 346 372 432 394 336 332 285 200 147 153 189 171 143 124 106 113 85 73 101 136 122 19 107 142 128 61 35 51 68 118 106 107 116 128 117 104 97 89 72 54
-14 -84 -37 -58 -43 -15 129 355 340 261 224 293 344 322 301 353 337 223 151 139 131 135 134 167 103 97 126 105 104 117 123 108 108 89 104 113 116 125 131 138 125 124 122 95 72 105 156 74 58
61 3 -32 10 -34 2 -72 111 174 161 92 311 305 246 243 248 304 239 150 99 87 87 113 138 114 152 203 148 172 188 196 154 132 131 131 128 106 133 173 190 188 168 147 119 111 93 91 68 52
16 62 48 70 -29 -2 -43 -61 38 202 54 141 152 159 147 150 170 174 139 98 104 81 84 87 86 134 143 144 162 163 116 120 162 176 187 161 154 164 200 210 222 205 161 149 134 94 96 103 64
36 54 49 81 102 116 75 -21 -18 -10 2 -31 88 119 78 127 113 130 110 93 64 76 86 94 91 99 102 134 134 153 189 108 128 119 104 136 169 196 206 207 219 213 198 204 168 130 90 84 79
36 88 121 128 96 14 64 53 26 2 -25 -25 -17 53 9 14 77 140 156 104 95 97 94 102 122 119 94 113 120 129 110 141 145 108 118 133 173 229 245 260 270 257 256 199 97 86 154 99 90
129 109 120 54 83 22 104 43 46 80 110 51 40 49 74 63 79 101 124 130 106 97 106 124 123 130 117 122 113 111 104 102 90 97 117 142 173 204 226 245 216 222 227 217 174 161 208 80 82
115 83 87 39 56 63 88 18 25 56 93 105 85 60 55 117 125 90 106 139 115 93 96 100 126 133 128 139 132 128 117 127 117 121 141 161 189 206 181 187 206 214 215 219 190 229 120 86 104
119 127 102 77 68 92 62 68 66 45 113 150 141 104 86 51 50 60 88 113 123 124 103 102 139 161 146 133 135 125 117 115 125 127 158 176 186 197 195 182 191 198 226 206 198 203 156 190 162
134 98 145 141 106 114 81 85 39 66 85 90 113 121 97 86 91 95 77 91 137 131 131 146 142 134 146 135 125 118 103 110 116 128 146 175 230 253 236 208 180 187 190 190 191 199 190 160 131
134 148 138 113 109 19 28 36 10 48 48 54 46 80 121 105 97 115 135 129 86 88 109 133 136 140 131 130 145 149 147 143 147 142 148 169 201 203 194 167 185 211 245 233 205 225 217 223 144
42 52 126 149 105 105 61 80 83 35 15 32 68 109 139 122 107 114 116 110 87 73 68 105 125 116 103 110 128 131 145 163 179 187 182 176 179 169 152 165 199 206 228 246 212 209 204 158 143

GFSSGP_con_3kmhel_105.txt.gz
Helicity
117 173 164 275 378 392 333 347 244 154 204 215 204 196 127 136 136 179 41 112 208 163 92 55 55 43 42 55 48 30 4 -1 -5 8 31 27 36 36 40 25 20 24 21 5 7 -2 -14 -11 -9
143 105 169 282 460 493 374 292 218 151 157 187 249 194 169 155 130 80 64 73 171 154 94 52 62 49 36 52 51 28 8 11 -3 11 29 41 25 29 23 18 13 10 5 6 -3 -14 -26 -37 -28
166 107 209 264 394 383 312 309 250 171 118 149 195 194 159 143 102 16 45 118 136 128 89 52 64 48 42 53 59 39 19 15 13 14 22 43 27 17 16 12 7 -1 -1 -11 -19 -40 -37 -30 -23
145 29 134 234 257 303 255 243 212 162 246 221 253 274 105 127 49 58 83 179 137 109 82 68 60 53 51 64 63 75 56 32 15 14 33 36 14 15 14 9 1 -11 -21 -28 -31 -33 -22 -16 -15
116 133 133 264 67 282 245 214 212 109 184 212 254 163 218 108 91 51 148 177 136 114 79 62 52 50 53 72 72 74 76 63 33 47 31 6 6 9 12 -1 -20 -31 -30 -25 -25 -15 -14 -10 -8
143 73 138 -15 190 11 129 258 215 149 154 241 346 262 201 54 50 111 181 178 114 116 76 59 48 38 44 58 56 42 39 33 41 23 -3 -8 -6 -4 -13 -24 -29 -24 -21 -17 -16 -10 -1 -7 -3
130 13 50 142 58 101 122 146 239 173 131 120 170 417 134 58 58 132 188 180 131 106 82 61 46 34 37 32 34 15 7 -4 -2 2 -6 -14 -28 -34 -33 -40 -30 -19 -15 -1 -0 1 6 8 3
85 48 -59 96 -34 246 76 180 194 138 65 195 228 44 48 111 117 160 185 175 133 116 101 81 58 39 29 19 19 -0 2 -4 -10 -29 -25 -35 -47 -50 -48 -36 -20 -5 3 14 14 19 20 20 17
84 -93 113 -235 -5 98 92 156 83 137 151 316 271 244 149 58 98 178 193 179 151 115 93 80 67 53 50 28 24 13 2 -0 -9 -29 -42 -49 -63 -50 -37 -34 -12 1 12 28 27 28 28 29 28
77 -22 -84 122 20 56 279 166 92 133 180 247 308 294 254 114 149 130 175 189 159 131 90 70 69 54 54 61 28 16 1 -20 -39 -58 -68 -64 -54 -51 -33 -18 -0 15 23 32 34 34 35 17 8
58 33 1 110 -6 112 315 354 148 129 155 169 133 140 246 -13 153 181 202 177 144 135 101 64 67 49 44 51 44 23 2 -17 -38 -51 -51 -52 -48 -38 -31 -9 -0 11 16 17 24 26 15 19 17
25 -8 -218 70 100 137 120 295 142 145 179 125 150 -1 22 31 225 251 306 134 140 120 115 82 51 46 47 57 36 26 -1 -17 -19 -32 -37 -29 -21 -18 -12 -3 10 15 14 19 18 18 18 19 23
44 55 -10 80 203 141 11 227 167 212 294 131 131 2 20 122 -0 61 6 90 107 90 90 73 51 54 54 46 47 35 21 11 5 -7 -10 -6 -5 1 9 15 18 27 29 24 28 30 31 29 22
25 98 129 239 331 313 -32 210 152 147 395 182 139 86 75 173 174 93 -50 90 103 89 65 84 74 66 56 45 47 50 47 48 24 21 17 13 16 20 23 26 27 33 33 38 37 42 43 38 34
72 -49 110 -14 138 292 119 48 142 189 218 148 125 144 116 123 249 56 -13 134 91 75 74 65 84 67 61 59 59 67 65 64 56 40 29 27 31 31 36 35 41 48 51 51 58 58 58 53 51
13 -10 87 136 48 469 221 58 203 245 204 296 196 141 119 143 107 28 -60 63 34 100 88 88 96 82 79 79 89 83 80 72 58 59 48 32 34 40 47 45 48 64 70 70 73 78 84 79 77
30 107 -25 48 -50 468 229 160 294 292 349 281 304 183 74 108 113 23 -44 18 37 72 61 122 113 61 71 97 85 75 73 73 67 65 63 51 50 52 54 55 64 82 85 82 86 93 99 110 92
10 46 -20 75 -120 309 403 299 332 319 351 376 306 236 198 124 81 74 65 101 20 26 69 166 82 91 74 88 95 82 77 72 74 74 71 54 67 60 58 57 74 94 95 93 91 81 91 89 78
49 59 -14 -31 -136 192 361 399 389 373 365 394 388 339 267 208 202 140 82 66 54 -44 111 99 112 88 87 148 112 102 98 70 65 70 57 60 58 62 51 47 72 86 75 92 94 101 88 67 74
45 54 18 -33 -74 72 126 525 318 349 353 331 370 398 365 265 255 197 99 75 87 83 88 70 108 110 94 116 60 71 50 60 61 70 71 74 79 85 61 51 58 87 88 59 104 125 127 94 105
24 -23 -33 -46 -54 29 51 281 164 267 253 274 262 313 349 353 267 237 174 97 138 108 82 111 124 141 148 121 107 106 51 29 58 71 39 39 50 81 92 97 98 108 125 126 114 117 122 88 99
2 4 -9 10 -19 31 24 229 199 215 183 199 191 170 217 254 240 217 173 161 96 78 136 102 128 181 139 -47 105 130 89 59 26 20 29 1 80 66 94 134 141 137 153 169 172 187 145 137 98
12 27 4 25 47 45 28 124 142 190 160 134 94 109 112 179 175 157 171 158 110 115 78 79 160 165 104 86 169 301 123 51 12 45 83 130 94 124 141 149 187 204 235 221 265 269 223 51 41
47 95 119 87 31 -22 13 47 94 95 126 154 89 29 105 127 119 121 114 107 118 111 101 82 95 111 134 144 120 143 121 183 229 185 114 104 115 119 142 169 194 207 224 237 297 284 233 174 2
108 105 67 36 57 21 85 59 73 76 106 187 92 -16 16 118 144 117 96 91 121 120 115 110 98 99 99 109 106 98 114 124 117 136 122 130 137 129 138 165 174 172 176 189 214 222 215 162 126
82 81 72 13 22 50 71 51 84 53 58 63 124 91 14 83 75 48 45 124 119 110 117 122 110 106 106 110 109 107 106 117 119 111 113 110 121 129 127 148 162 189 179 177 169 185 185 142 110
101 81 93 97 121 80 84 64 44 21 81 91 112 86 81 132 96 67 68 70 111 117 135 126 127 143 148 145 148 136 127 117 115 113 119 120 131 150 173 189 201 199 192 187 177 200 165 150 197
46 69 105 117 64 83 96 87 62 120 119 134 144 146 124 124 93 86 106 97 137 164 143 146 137 132 135 141 153 164 144 137 136 141 130 140 171 203 222 231 228 220 210 212 204 207 205 192 156
-28 58 78 56 140 80 101 147 27 82 106 128 127 83 91 113 121 120 111 91 107 181 169 147 144 158 154 149 158 159 166 163 154 154 163 178 199 228 250 251 249 219 197 186 189 195 180 193 185
-38 -18 45 89 82 112 82 72 37 109 107 80 59 54 104 110 104 123 106 103 106 97 117 121 145 168 155 150 132 130 145 166 180 177 167 177 208 230 243 244 224 190 171 158 164 169 191 183 184

GFSSGP_con_3kmhel_108.txt.gz
Helicity
136 129 102 151 352 364 262 192 168 216 138 142 257 161 147 182 150 204 50 65 117 174 139 91 62 45 36 44 39 24 45 51 42 24 24 35 43 29 40 26 39 35 16 13 15 18 8 2 -8
112 151 104 253 436 436 374 160 168 233 133 143 187 290 190 161 176 103 50 74 92 163 108 85 68 53 41 39 29 -2 3 20 29 21 14 33 39 38 25 25 44 15 21 11 -5 -8 -21 -19 -18
111 144 225 354 302 364 298 218 219 193 110 133 230 261 331 227 161 53 50 75 120 139 99 101 72 54 43 33 17 -10 -19 16 19 21 26 47 32 32 23 32 28 18 18 -1 -18 -34 -30 -24 -13
77 88 123 272 261 260 48 148 248 142 222 129 146 240 252 223 162 82 15 102 129 120 101 115 76 53 49 42 21 3 18 13 33 47 45 40 31 24 27 33 34 22 -5 -12 -21 -13 -3 -6 -7
68 174 155 254 32 191 118 73 99 202 147 128 142 225 291 136 115 42 46 150 160 110 102 90 72 56 64 65 52 32 26 21 44 48 60 39 16 19 20 25 14 -5 -8 -12 -9 -0 -2 -4 1
92 153 174 137 9 30 178 125 84 89 119 116 105 154 303 127 57 18 72 155 143 111 103 96 73 60 78 77 83 67 61 51 47 68 58 26 14 13 7 -9 -20 -29 -9 -8 -5 3 3 1 7
99 121 150 116 -86 130 88 75 157 90 101 97 141 101 270 133 49 33 102 169 154 110 98 98 73 66 101 112 103 110 93 76 64 67 33 21 11 -4 -20 -32 -27 -26 -9 -6 -2 6 7 5 6
122 132 178 -11 -13 58 40 280 180 299 69 64 39 117 112 208 9 83 154 181 153 116 100 93 81 68 40 73 109 107 98 80 74 42 21 31 -13 -37 -39 -45 -34 -24 -5 1 5 9 15 16 12
57 120 77 9 -60 17 56 44 62 138 102 104 44 101 93 324 88 135 194 188 174 124 104 83 74 65 61 45 66 78 64 52 42 45 30 -10 -45 -55 -50 -50 -29 -14 5 10 15 20 25 27 24
80 94 28 1 62 19 155 137 32 174 184 116 83 132 227 266 260 219 216 198 169 158 105 80 75 63 64 74 47 16 8 -6 -9 -20 -33 -48 -46 -40 -41 -22 -14 5 13 12 17 19 19 -13 6
51 74 -57 -6 58 161 41 232 190 154 213 76 49 49 135 323 636 206 227 199 173 149 122 88 77 70 68 68 75 55 30 18 -2 -31 -42 -37 -35 -29 -22 -13 -13 -6 -5 -1 2 7 -7 -2 1
32 -36 -78 -59 -48 113 102 75 264 73 273 77 21 87 207 178 262 122 465 257 153 124 102 92 70 71 70 80 80 81 51 20 1 -25 -26 -25 -24 -22 -11 -5 1 1 -5 2 3 -1 5 5 8
-4 -94 -14 -23 -8 78 127 -6 182 185 72 112 54 71 105 148 186 191 -41 479 249 87 72 78 70 69 74 74 75 68 42 22 5 -6 -16 -10 -5 -4 6 8 10 9 11 10 13 12 12 12 15
-18 -50 -67 -20 -128 3 102 63 141 206 76 104 59 36 83 79 83 136 102 260 109 57 68 78 79 74 63 63 52 53 43 18 19 13 15 13 16 15 20 22 21 24 21 24 20 30 30 36 34
-35 -28 -15 15 -4 83 78 43 62 223 163 111 48 73 60 18 -0 -273 -276 -141 31 110 87 88 73 72 69 57 50 39 53 38 35 41 38 36 40 41 38 37 31 32 36 38 43 46 50 53 55
-5 -12 -20 -5 97 30 34 3 22 128 161 150 53 40 66 40 75 -17 11 -42 175 64 82 94 85 67 74 79 68 68 53 59 62 69 60 48 47 45 46 43 41 48 51 50 51 56 62 66 69
-31 -16 -58 -26 -75 -9 96 145 52 83 124 137 129 91 66 99 59 44 11 31 62 36 77 81 74 62 72 90 91 85 72 70 62 69 69 51 48 44 49 50 53 52 58 62 61 69 73 83 77
17 -6 78 57 10 43 -6 206 154 61 122 117 145 142 221 106 60 74 28 51 -19 31 58 44 51 62 74 106 105 104 91 82 81 74 64 51 54 47 51 54 64 70 73 70 74 73 81 92 100
62 27 -29 112 2 -3 -45 214 266 98 93 116 159 211 200 169 135 113 108 68 31 6 51 90 79 47 111 135 138 121 89 85 81 82 70 67 58 51 52 59 68 71 67 72 73 82 115 128 114
47 16 45 21 23 -66 20 181 297 188 103 119 127 181 118 72 99 68 51 57 67 79 150 80 75 40 73 123 122 137 112 109 76 71 86 86 83 59 39 39 54 59 76 62 73 89 115 136 100
29 32 22 23 7 -6 8 75 208 159 163 147 156 161 166 111 58 88 72 190 86 48 71 -5 83 85 76 118 145 115 107 128 107 80 84 75 54 62 55 55 50 44 100 98 115 72 65 139 157
38 8 -2 -12 -2 41 2 59 100 129 198 160 118 116 146 182 184 144 214 197 68 -89 143 49 44 99 82 119 66 54 64 128 28 61 49 42 41 58 60 73 82 35 103 132 154 153 135 203 281
82 56 8 -19 17 58 18 85 9 163 257 193 148 139 129 140 188 237 217 200 106 51 16 14 124 74 82 182 181 82 -113 75 82 9 81 64 51 70 66 69 21 73 139 157 200 206 260 209 187
67 71 37 25 16 80 71 77 68 83 112 110 173 159 93 102 118 113 107 132 111 139 78 37 125 196 193 81 79 98 13 73 49 5 87 42 74 102 91 -9 101 144 166 159 178 204 271 240 153
46 25 49 59 47 73 65 90 113 85 72 199 176 129 135 120 131 151 117 103 118 103 118 116 76 69 122 147 124 113 150 197 110 39 44 26 29 85 111 140 176 152 128 151 196 250 247 231 212
10 71 92 49 40 63 93 122 116 88 98 127 171 125 80 -14 129 162 148 145 100 83 91 89 88 77 82 105 89 75 60 142 104 71 114 118 136 143 152 127 123 135 167 209 239 229 192 142 131
7 35 91 74 79 82 104 84 76 59 92 100 162 120 71 45 86 137 121 59 65 81 87 81 84 88 77 90 88 109 124 106 107 103 108 124 120 136 125 141 168 184 216 214 190 178 176 177 184
-55 1 43 76 40 59 71 101 99 150 153 133 155 125 103 106 102 81 128 105 74 129 102 121 121 109 98 107 120 132 141 147 149 130 126 141 155 158 180 208 218 236 224 209 210 216 197 169 165
-23 -101 -39 42 149 74 45 80 81 152 152 156 143 107 107 121 117 107 70 50 57 142 112 166 173 163 137 133 142 152 166 175 176 174 182 181 189 200 230 241 259 254 254 236 224 199 171 152 157
-41 -86 16 30 -7 71 164 93 52 69 79 89 85 86 87 105 138 110 82 86 97 99 157 224 203 183 174 156 141 148 169 169 178 186 188 175 177 186 208 230 250 261 253 222 187 183 166 167 162

GFSSGP_con_3kmhel_111.txt.gz
Helicity
163 188 134 300 466 407 332 140 160 119 143 84 33 71 71 53 74 244 104 112 78 154 147 100 105 67 50 38 36 52 73 73 53 40 48 47 37 36 39 38 38 39 30 44 41 28 26 15 16
111 281 149 383 734 734 379 225 224 189 52 64 44 146 93 92 153 194 49 68 117 218 148 119 113 73 43 47 36 47 58 65 33 32 48 48 40 35 30 41 41 44 48 53 38 26 12 -2 -4
95 171 341 467 610 655 348 293 210 128 27 36 107 163 115 88 164 150 71 26 107 205 137 140 117 72 50 49 39 34 35 35 18 35 47 47 44 36 44 49 46 43 38 27 15 1 -4 -7 -10
98 185 249 473 546 383 269 154 62 65 25 82 158 214 205 210 165 148 29 22 231 149 148 150 113 70 50 46 34 18 23 21 25 49 58 65 56 34 31 35 48 51 12 -2 -16 -11 0 -1 -2
82 152 257 328 392 161 168 105 -9 65 84 102 215 201 178 151 184 171 57 107 205 140 167 129 110 73 50 49 26 11 16 30 44 63 72 72 55 50 36 34 39 12 4 -18 2 6 1 2 2
113 149 248 211 138 97 91 50 48 69 116 61 155 192 141 170 118 130 80 130 151 185 143 137 112 79 71 50 35 29 39 44 65 82 66 70 54 55 32 27 1 11 -14 -11 1 4 4 5 10
87 172 179 173 34 -34 63 212 135 120 131 68 101 84 159 155 133 71 86 125 151 193 138 132 109 104 108 74 64 53 62 76 88 74 76 35 48 46 30 -5 -11 -4 -11 -2 2 6 7 8 7
124 101 55 65 53 -84 -54 4 115 197 20 89 48 162 192 197 71 101 77 129 160 180 162 145 121 97 92 87 119 118 109 98 92 94 89 68 55 40 5 -17 -19 -1 -7 4 9 10 11 7 5
50 100 34 0 54 73 -18 -17 102 111 51 149 96 40 120 149 93 123 127 175 182 150 160 144 117 84 88 103 128 164 144 119 112 106 80 51 28 7 2 -21 -9 12 1 8 14 16 19 19 6
65 36 5 47 126 15 22 -15 12 103 182 313 135 98 106 188 100 150 155 130 184 156 145 155 108 89 86 111 128 154 145 127 91 61 24 12 7 -3 -28 -3 4 14 17 12 18 14 8 -19 4
22 5 12 7 50 6 139 -43 3 89 203 190 102 135 241 74 135 169 159 145 139 197 183 128 98 109 105 97 111 117 132 68 29 15 25 9 11 11 -19 12 5 5 -3 -4 1 4 -8 -14 -8
17 6 29 9 -13 -20 25 217 15 19 42 64 120 116 95 74 166 348 466 315 518 171 150 134 95 154 113 109 117 80 82 60 47 34 31 17 6 -9 -8 -15 -14 -8 -14 -8 -10 -9 -7 -2 -7
-14 -52 -36 -46 -80 -64 -165 211 76 38 115 113 25 114 99 54 141 343 359 230 564 568 144 133 141 173 89 116 118 94 92 86 71 59 42 20 -2 1 -1 -2 3 -1 -2 1 -2 -3 4 -4 2
-10 -57 -66 -136 -237 -128 -295 187 18 34 134 32 58 44 79 27 85 194 241 325 213 364 345 110 123 104 92 106 115 136 86 90 85 63 40 13 19 21 24 24 18 14 14 12 5 1 9 11 19
-11 -65 -63 -109 -139 -155 -25 116 -14 27 204 161 170 73 8 37 65 138 242 130 -28 116 364 99 92 103 72 82 83 114 113 89 78 57 31 34 39 43 41 31 28 24 20 20 23 21 26 30 32
-14 -15 -51 -101 -54 -103 29 83 80 7 180 141 125 59 24 34 42 80 93 -189 -193 142 259 91 123 120 104 85 105 141 154 75 76 61 54 46 49 53 56 45 33 26 34 34 34 42 34 36 39
22 8 14 -19 -51 -34 -110 8 43 117 28 188 161 31 33 60 23 31 -7 -162 100 78 91 103 127 109 97 121 132 73 95 109 109 101 74 61 52 55 54 46 39 38 37 41 41 46 46 58 62
84 49 6 48 -9 -3 -5 0 49 199 44 166 142 25 58 49 34 53 -18 -1 8 -22 88 136 123 113 123 146 163 155 113 73 74 86 97 78 76 64 65 64 47 44 41 41 50 51 59 72 79
49 28 18 -7 75 11 8 3 16 216 79 151 130 118 75 62 66 54 -15 -31 -23 100 134 86 115 89 142 161 160 141 128 133 128 117 79 79 72 54 67 73 48 54 48 45 51 59 76 89 103
50 14 -15 48 -3 -17 20 17 8 50 107 117 104 109 99 175 142 87 80 59 88 84 110 175 115 102 117 139 148 158 166 159 126 120 113 114 111 99 71 76 72 68 51 54 69 83 83 79 120
43 67 46 26 -43 -35 -38 -53 -10 91 87 92 89 101 91 142 170 85 90 40 77 205 119 151 111 133 107 107 145 163 177 196 181 129 114 93 83 93 94 79 82 85 83 76 111 102 85 93 93
99 56 31 5 -25 0 4 -18 -65 74 44 63 55 72 125 118 111 145 17 33 96 87 291 97 123 145 100 72 118 134 189 187 187 165 133 98 62 56 68 75 79 81 100 78 69 77 69 122 94
99 74 71 48 31 43 -22 -9 -31 39 48 68 46 62 74 95 83 36 59 49 95 46 -108 48 180 73 67 55 99 93 103 121 166 203 192 137 96 82 42 60 65 79 108 123 68 91 118 165 249
52 31 18 41 40 64 64 65 -53 14 0 63 78 12 53 70 105 106 91 115 125 149 105 98 141 192 84 75 84 73 74 96 119 113 112 69 82 65 48 34 62 94 137 149 82 195 142 200 190
-4 42 69 43 55 111 59 102 151 85 66 64 101 106 54 30 84 116 140 126 159 160 100 45 107 97 72 16 -2 99 53 104 128 64 225 139 30 63 102 100 87 166 109 81 126 191 150 192 200
-27 15 44 58 75 85 38 101 94 49 92 63 174 243 214 122 77 108 84 87 86 130 44 120 136 70 94 106 22 -22 10 124 164 123 71 133 -99 -124 -51 73 48 86 126 148 170 165 167 228 271
-12 -44 69 73 70 70 53 54 27 67 93 73 86 139 134 114 126 87 99 83 76 77 82 122 112 57 83 131 131 73 12 138 88 96 -6 9 -22 -1 41 82 100 129 173 174 164 210 241 216 209
-49 -66 11 51 34 13 15 86 126 96 109 131 101 124 97 91 101 108 157 161 145 109 85 58 62 45 85 96 83 94 45 85 110 117 60 45 38 77 85 128 169 175 203 214 235 246 226 238 191
-8 -86 -49 -13 64 52 43 108 107 133 114 114 121 134 126 82 116 109 155 164 141 141 133 95 106 101 98 109 97 112 130 150 153 141 132 166 191 179 188 213 224 236 234 234 243 228 211 215 196
-23 -58 -134 -130 31 46 63 51 40 67 77 77 88 101 118 114 125 141 125 98 114 113 106 85 113 142 148 143 138 136 161 182 189 231 246 209 199 200 213 230 252 268 270 248 252 243 240 220 175

GFSSGP_con_3kmhel_114.txt.gz
Helicity
112 205 177 226 439 490 71 155 343 220 117 150 102 224 81 54 83 109 3 73 225 175 222 202 145 117 85 71 74 80 69 61 48 37 41 45 42 39 38 38 31 38 43 52 45 47 44 32 17
105 214 249 383 561 489 129 323 255 234 192 70 107 25 118 84 149 97 157 117 235 202 218 206 164 135 94 74 75 88 80 67 54 33 39 51 41 51 36 30 26 44 60 54 43 31 16 15 4
46 175 257 446 498 346 362 266 283 225 150 83 36 121 64 74 22 134 134 180 221 235 206 218 164 145 102 78 73 72 85 70 50 32 37 52 45 54 56 37 35 52 68 45 31 13 2 1 1
71 144 225 432 363 220 176 482 274 293 110 10 65 62 111 253 113 128 147 285 303 205 212 198 152 132 116 86 71 71 70 72 42 32 41 53 67 76 84 68 49 36 43 24 7 1 0 2 6
91 199 197 215 126 175 194 207 216 279 255 156 20 52 258 270 284 132 93 296 265 166 228 194 142 117 128 94 69 73 58 70 37 36 58 68 74 76 97 85 51 27 15 -3 1 -1 2 10 7
136 192 248 100 52 25 78 148 310 172 14 135 21 77 192 212 245 125 190 224 194 293 211 200 152 122 110 88 71 70 52 57 44 72 77 88 75 61 69 78 49 17 0 7 11 3 7 14 8
67 122 123 131 143 97 23 89 242 103 -108 162 95 169 225 192 198 163 237 269 225 257 202 200 177 137 107 95 72 71 52 41 71 94 91 84 78 59 76 49 56 12 2 12 8 4 11 9 2
97 118 99 102 81 73 40 78 87 65 -167 -173 -18 114 153 320 264 282 321 220 251 226 210 210 175 166 141 120 91 82 71 68 102 110 113 83 89 63 43 46 49 25 25 12 4 4 5 2 -4
51 189 157 40 55 25 75 81 134 107 -85 -96 -127 -76 178 137 164 266 331 285 317 263 227 200 182 184 174 163 129 128 126 152 163 149 116 88 95 54 31 43 44 36 27 18 5 4 7 5 -2
92 142 50 34 11 23 27 58 30 80 24 -49 6 34 78 257 144 232 298 322 289 285 220 197 182 210 218 206 168 184 196 192 171 128 84 87 89 46 36 30 37 38 24 18 10 5 -3 -4 -11
44 35 8 -4 -7 40 95 123 56 -62 144 -148 30 118 102 203 105 73 160 205 252 255 256 190 181 221 256 250 267 240 223 202 156 124 36 72 59 31 57 52 38 40 18 14 10 -1 -21 -26 -3
31 48 59 8 -11 33 1 -82 -2 -70 -16 30 -43 74 1 142 101 228 298 369 504 583 257 173 138 210 232 275 264 220 217 146 141 70 16 83 108 58 70 27 15 27 -1 1 -10 -7 -25 -9 -2
62 54 -12 -19 -43 -38 -70 -65 -53 61 105 -101 37 85 25 -150 -108 159 391 505 495 468 277 609 154 211 236 225 234 181 141 123 93 56 60 95 71 33 39 20 -8 12 -9 -7 -16 6 -5 5 -10
-11 23 28 16 -19 -68 -54 -65 -78 132 186 94 51 -2 -53 -94 61 337 401 391 350 508 275 234 500 197 263 230 186 143 118 151 138 130 159 146 66 64 27 6 -6 7 11 9 8 5 12 -1 6
-6 -2 25 94 19 -56 -88 -110 62 215 66 30 -44 -39 -31 -142 -22 169 225 241 228 262 464 46 293 169 171 192 254 257 267 245 186 220 193 113 83 75 62 62 46 36 36 20 11 1 9 13 22
9 -5 -42 38 76 -28 9 76 9 63 30 15 166 123 87 119 -74 65 168 152 128 160 344 113 201 87 179 236 262 265 237 257 240 225 173 100 92 78 84 70 54 49 34 32 36 39 50 33 30
72 53 111 31 161 47 20 -9 11 -11 72 24 101 165 272 57 72 100 115 88 102 146 219 134 271 143 160 185 160 179 201 207 202 188 154 111 100 92 85 74 50 44 45 49 42 39 33 29 34
28 35 41 108 175 89 12 102 -8 4 30 71 37 96 36 109 3 46 61 14 -44 183 220 290 84 107 110 140 216 242 236 193 183 162 127 117 109 94 74 64 51 71 59 43 28 41 38 52 55
72 78 77 36 215 49 80 95 22 6 74 15 125 125 134 148 36 77 84 82 34 76 155 102 71 137 263 244 204 221 200 188 192 182 147 114 103 102 86 95 70 69 55 38 43 50 57 58 88
86 95 39 65 96 -51 14 57 26 -4 44 8 73 108 99 121 96 54 63 38 -7 -14 28 147 50 88 235 283 211 233 240 199 155 130 105 100 101 92 89 96 89 71 82 56 58 72 73 76 95
93 112 73 79 -33 -35 3 22 32 4 14 23 60 77 102 113 117 126 72 70 55 97 163 204 280 106 171 248 290 282 255 262 246 217 201 174 156 141 117 100 102 111 103 90 114 86 93 96 86
80 55 110 60 41 39 -52 2 -2 21 10 30 48 97 167 150 174 93 34 120 60 61 115 171 253 177 188 154 198 178 199 188 195 207 206 197 179 153 129 111 106 88 94 85 101 131 106 109 65
44 73 79 59 37 10 4 -1 15 11 16 31 40 82 125 169 172 106 33 22 83 33 77 73 122 222 143 180 146 200 188 198 207 225 210 219 212 180 156 137 105 95 86 70 82 82 94 116 91
-2 45 52 22 28 40 46 53 161 47 42 38 33 61 77 101 132 63 21 48 18 2 -33 -17 67 52 145 164 214 179 179 181 164 131 168 158 166 171 150 141 127 107 70 63 76 87 106 112 105
-2 6 43 49 52 58 33 55 84 32 6 37 128 77 74 77 86 114 67 54 53 36 -41 7 45 101 112 86 101 60 154 134 167 147 164 161 151 158 190 186 189 154 83 78 77 91 106 117 55
-29 -33 -36 1 54 53 32 89 137 32 66 0 74 118 124 43 64 70 117 163 104 100 91 49 27 65 105 196 122 91 118 99 120 82 90 102 109 136 223 183 154 215 157 90 38 36 52 68 114
-10 -99 33 7 48 226 -3 13 74 105 200 73 -88 144 158 158 65 67 83 85 74 93 93 126 83 37 -39 21 17 2 1 98 145 156 174 121 61 106 183 105 75 211 28 44 60 103 104 173 203
-10 -37 -67 60 76 66 46 67 124 142 108 139 106 87 66 88 206 135 87 69 46 56 109 159 98 109 100 92 124 78 116 98 93 72 1 98 105 46 -84 12 16 10 23 125 164 186 174 190 210
0 -67 -50 24 25 31 76 59 75 88 84 61 60 61 56 78 106 146 152 142 147 118 72 77 59 59 48 99 120 93 97 73 112 51 13 -75 -13 -82 20 119 126 157 192 184 182 210 210 220 217
14 -30 -54 -58 -30 -22 41 61 51 56 50 71 36 31 46 56 51 48 62 107 125 106 129 96 105 102 80 63 134 112 125 158 170 118 108 143 169 197 203 217 185 160 172 187 209 218 214 227 205

GFSSGP_con_3kmhel_117.txt.gz
Helicity
139 239 219 241 339 347 -5 340 336 333 210 144 120 168 100 34 123 107 51 89 197 167 133 160 228 192 177 152 117 93 78 66 56 53 48 43 32 36 59 49 53 52 42 49 49 47 43 37 34
129 246 279 340 402 336 146 161 332 310 189 160 110 91 59 38 -27 24 97 150 215 184 179 194 247 217 177 161 129 101 86 65 49 50 45 37 34 57 64 36 52 49 42 47 35 25 25 9 4
114 188 295 414 369 235 377 427 240 270 254 193 146 125 95 97 -14 -20 149 252 293 210 200 195 238 242 174 164 143 114 90 65 58 64 47 41 47 56 62 73 79 71 53 39 18 6 6 -5 -9
150 208 264 301 209 121 316 350 425 313 315 188 226 297 159 63 24 122 206 285 268 252 245 247 248 259 180 162 145 135 98 81 61 58 50 46 50 69 86 103 94 83 42 12 11 5 2 -1 6
156 238 234 214 75 129 153 147 106 163 209 270 -14 216 258 167 116 333 257 298 301 254 281 273 209 232 190 151 129 133 114 96 66 51 49 56 65 86 92 95 77 73 40 -2 0 13 9 2 4
201 214 208 111 76 56 33 47 107 94 0 109 101 229 84 222 145 312 261 286 262 263 305 309 243 197 177 146 134 127 122 102 62 41 61 78 106 101 91 90 73 54 31 7 5 17 11 -1 1
101 122 116 72 82 78 32 -6 79 48 87 -49 -130 157 47 246 175 257 285 360 332 229 266 292 266 212 149 142 137 137 119 108 63 59 75 97 115 92 85 81 61 44 39 20 8 9 10 5 5
107 117 66 66 36 65 5 33 67 95 53 56 -235 18 83 43 117 448 279 434 363 288 241 320 303 244 189 151 149 143 141 132 92 105 136 119 104 105 85 75 55 33 38 33 16 9 6 7 4
69 58 40 63 93 131 114 116 91 127 120 63 -70 -173 -166 -31 -5 281 281 354 400 315 282 309 302 241 210 165 162 166 154 152 145 159 158 135 101 94 59 78 78 55 44 31 20 11 4 4 4
85 89 31 148 52 43 53 77 116 154 209 72 37 -171 -249 -149 -133 -132 53 238 322 307 264 276 286 241 219 189 188 209 200 196 194 180 162 147 131 83 91 76 63 63 49 32 16 9 5 6 -5
39 87 73 8 16 30 1 5 59 77 122 87 138 -49 -170 -138 9 -16 63 70 362 361 324 285 316 257 225 234 251 286 287 273 230 185 185 163 156 108 95 80 71 62 42 26 16 8 -2 0 -1
68 65 43 24 36 -13 -36 7 80 74 60 -2 33 107 -28 -170 -37 7 16 123 350 425 352 266 307 303 251 254 260 287 294 275 244 178 181 192 179 116 84 80 64 50 28 18 4 -11 -16 -15 -14
51 45 64 76 31 81 49 41 133 82 109 37 59 29 -15 -218 47 52 29 -143 490 690 581 528 341 282 266 269 266 275 282 254 217 172 150 150 155 114 68 40 50 39 18 2 -11 -19 -21 -20 -18
17 -19 65 96 60 144 113 98 -20 176 137 -3 50 36 -30 -66 -13 102 63 -35 287 646 559 564 465 374 231 267 254 249 245 216 181 162 141 124 147 110 83 48 32 19 5 -9 -9 -3 -13 -15 -8
-2 44 10 24 84 115 5 141 149 210 44 41 26 34 -38 11 49 -30 -6 -12 219 483 472 416 508 415 288 213 218 232 226 204 179 130 120 139 144 103 68 58 1 -17 -1 4 1 6 15 6 0
37 43 51 45 76 143 186 92 -39 -10 -28 54 119 11 22 10 2 -101 -93 63 245 476 383 327 371 332 291 163 222 251 218 209 168 172 157 155 147 98 70 36 14 28 35 31 30 20 18 19 22
47 42 87 58 72 203 248 164 45 -20 -62 29 -4 -27 41 25 -29 -112 -42 47 253 192 210 240 282 376 377 141 206 215 263 124 255 263 257 207 180 119 97 79 77 69 62 46 41 47 44 38 28
-17 -9 59 141 66 281 299 363 193 47 34 39 46 51 92 49 27 -60 -63 148 83 105 107 155 221 285 345 238 263 301 283 296 305 311 262 212 185 143 125 104 90 79 67 57 51 45 39 32 27
25 24 21 38 -17 185 236 290 241 114 135 44 65 40 58 112 75 96 173 104 55 68 134 157 186 198 289 254 339 376 311 353 292 277 233 193 165 135 124 101 88 75 67 45 38 48 39 54 66
23 33 70 14 46 92 22 193 166 49 113 81 74 28 80 117 130 188 82 42 27 22 166 213 310 242 217 194 272 318 348 314 246 232 219 176 154 132 122 102 95 76 70 59 47 62 72 54 59
39 35 44 65 34 118 19 38 36 11 80 48 88 153 100 81 119 61 59 55 68 72 99 77 171 103 336 192 258 334 319 313 263 210 201 170 136 120 120 126 129 106 95 83 78 61 78 73 53
22 48 56 81 56 5 27 19 54 209 54 33 95 56 60 74 103 136 92 53 92 128 134 95 138 132 202 237 152 180 218 206 212 207 183 163 141 139 124 138 145 131 121 129 116 121 136 116 101
11 52 67 58 51 50 12 90 155 68 85 79 64 24 73 97 63 34 89 5 103 118 69 133 147 229 306 314 221 113 115 171 213 206 237 248 225 191 171 159 153 144 139 129 132 129 88 88 62
34 46 70 36 37 79 51 46 188 177 15 44 47 76 46 98 192 173 44 9 -4 -18 -27 79 79 384 241 381 344 76 75 154 173 246 264 258 254 212 183 170 158 159 170 163 177 134 134 115 74
16 14 32 54 83 114 76 40 118 129 -4 -6 135 183 91 83 185 119 22 -28 -37 31 30 -45 43 145 286 176 186 122 165 173 155 169 175 197 207 202 162 161 156 153 151 144 152 167 213 217 143
3 -47 -34 30 32 122 98 81 88 97 -2 -63 69 387 140 109 62 83 -15 21 24 44 12 -1 -17 80 170 85 164 152 183 181 201 188 179 163 155 125 73 87 113 133 132 144 162 193 208 232 207
19 -26 14 44 178 114 149 136 53 163 84 -101 -84 182 323 218 111 63 51 43 55 6 85 72 18 -28 -96 113 116 165 101 146 103 144 133 123 111 101 84 96 100 139 207 255 179 166 186 191 68
25 96 -14 58 124 71 96 101 144 106 53 5 -24 -100 73 114 144 133 109 62 20 6 16 72 88 83 72 90 77 18 57 50 88 69 73 72 98 81 73 98 97 152 142 126 170 205 190 149 115
13 42 22 36 55 77 89 43 127 128 48 -9 16 22 43 49 51 89 132 93 55 22 1 42 30 102 94 72 19 24 -57 -33 17 -37 93 162 137 183 147 92 114 103 88 34 -24 -55 77 48 133
6 13 25 -33 38 3 -10 29 163 189 84 21 49 51 47 5 26 51 123 84 85 58 66 30 29 40 66 58 28 35 74 71 95 109 35 19 140 -93 131 135 142 86 55 54 8 99 177 200 230